     2              OBSERVATION DATA    GPS                 RINEX VERSION / TYPE
srx-v1.3-(5/19/93) SEISMO 13-DEC-1996                       PGM / RUN BY / DATE
                                                            COMMENT
sig: 9 8 7 6 5 4 1 0                                        COMMENT
sig: 9 8 7 6 5 4 1 0                                        COMMENT
sig: 9 8 7 6 5 4 1 0                                        COMMENT
Original Marker Name: DAYZ                                  COMMENT
Campaign Name: HMC San Gabriel Valley 1993-1996             COMMENT
4-Character Station Name: DAYZ                              COMMENT
6-Character Antenna Code: DMRCHT                            COMMENT
Vertical Measurement Point: BPA                             COMMENT
Vertical Offset to Rinex Ref. Point: 0.0000                 COMMENT
Radial Measurement Point: RRP                               COMMENT
Radial Offset to Rinex Ref. Point: 0.0000                   COMMENT
Antenna Height from Field Measurement: 0.0806 m             COMMENT
Additional Antenna Identification Info.:                    COMMENT
Turborogue and Ashtech Choke Ring                           COMMENT
Antenna aligned to magnetic north.                          COMMENT
Original XYZ: -2445346.5880 -4687337.2108 3561898.1299      COMMENT
New XYZ position is based on association with SCEC monument COMMENT
E1D0R5C5+0011. Position of that monument is believed to be  COMMENT
valid to within 1 m horizontally; vertical accuracy         COMMENT
should be no worse than 3-times this value.                 COMMENT
                                                            COMMENT
Revised Rinex header created by UCSD GPS archive for        COMMENT
GSAC on 13-Apr-1999 (1999:103) 22:50:23 GMT                 COMMENT
For assistance contact dagnew@ucsd.edu or hjohnson@ucsd.edu COMMENT
                                                            COMMENT
DAY CANYON AZIMUTH                                          MARKER NAME
DAYZ                                                        MARKER NUMBER
GAL HARVEY MUDD COLLEGE                                     OBSERVER / AGENCY
262 TURBOROGUE SNR-8000 3.2                                 REC # / TYPE / VERS
260 DORNE-MARGOL. TYPE T                                    ANT # / TYPE
 -2442579.0000 -4684604.0000  3562707.0000                  APPROX POSITION XYZ
        0.0806        0.0000        0.0000                  ANTENNA: DELTA H/E/N
     1     1     0                                          WAVELENGTH FACT L1/2
     5    L1    L2    P1    P2    C1                        # / TYPES OF OBSERV
    30                                                      INTERVAL
  1996    12     3     0     0    0.000000                  TIME OF FIRST OBS
  1996    12     3    23    59   30.000000                  TIME OF LAST OBS
    25                                                      # OF SATELLITES
                                                            END OF HEADER
 96 12  3  0  0  0.0000000  0  8G27G19G31G18G 3G16G 2G10
  -8814488.01344  -6868426.05244                  22102563.3744   22102564.4134
  -3135579.17944  -2443306.25244                  20603753.0934   20603753.5004
  -8133900.14044  -6338097.74744                  21790418.9124   21790418.4204
   1437218.59844   1119911.47244                  20435022.9054   20435022.6484
    315471.62144    245825.30544                  23413816.2114   23413816.6134
   9444952.03944   7359701.90844                  23020589.0714   23020590.7594
  -8534536.09444  -6650277.31544                  23483504.6884   23483507.1134
  -1905331.23044  -1484672.21344                  23817057.5424   23817061.3634
 96 12  3  0  0 30.0000000  0  8G27G19G31G18G 3G16G 2G10
  -8875001.39744  -6915579.31644                  22091048.0614   22091048.5724
  -3146291.36244  -2451653.39744                  20601714.4684   20601715.0264
  -8163838.89344  -6361426.63044                  21784721.6904   21784721.2144
   1481284.43644   1154248.48244                  20443408.3524   20443408.0704
    353602.52944    275537.70844                  23421072.4894   23421073.1464
   9535974.56544   7430628.52844                  23037909.9374   23037911.8164
  -8613073.89044  -6711475.54644                  23468559.1134   23468561.2604
  -1937290.50944  -1509575.52944                  23810975.9584   23810982.3714
 96 12  3  0  1  0.0000000  0  8G27G19G31G18G 3G16G 2G10
  -8935412.63244  -6962652.97844                  22079552.1634   22079552.8234
  -3156787.62444  -2459832.29544                  20599717.2344   20599717.6284
  -8193197.94544  -6384303.80244                  21779134.9414   21779134.7384
   1525857.62444   1188980.82944                  20451890.4594   20451890.1964
    392274.62744    305671.82044                  23428431.5904   23428432.2104
   9627161.14044   7501682.97944                  23055262.2174   23055264.4004
  -8691359.55344  -6772477.30244                  23453662.0534   23453664.1374
  -1968735.30044  -1534077.90444                  23804992.1294   23804994.5444
 96 12  3  0  1 30.0000000  0  8G27G19G31G18G 3G16G 2G10
  -8995692.14444  -7009623.99244                  22068081.3324   22068081.8854
  -3167054.06044  -2467832.10544                  20597763.6124   20597764.0244
  -8221954.37444  -6406711.39244                  21773662.6404   21773662.3564
   1570952.64944   1224119.80244                  20460471.6724   20460471.5434
    431510.42044    336245.17044                  23435897.5444   23435897.8574
   9718538.59744   7572886.16744                  23072650.9134   23072653.0064
  -8769391.28644  -6833281.18944                  23438813.2664   23438815.1584
  -1999633.46044  -1558154.41044                  23799112.2134   23799114.5164
 96 12  3  0  2  0.0000000  0  8G27G19G31G18G 3G16G 2G10
  -9055860.56244  -7056508.44244                  22056631.7324   22056632.3784
  -3177132.97244  -2475685.79644                  20595845.5764   20595846.0934
  -8250136.64744  -6428671.59544                  21768299.7684   21768299.4264
   1616545.32144   1259646.55544                  20469147.6144   20469147.7044
    471276.71344    367231.90144                  23443464.7684   23443465.2984
   9810077.58044   7644215.22144                  23090070.0234   23090072.5244
  -8847193.04344  -6893905.87444                  23424008.2274   23424010.0574
  -2029997.11344  -1581813.36344                  23793334.3404   23793333.9054
 96 12  3  0  2 30.0000000  0  8G27G19G31G18G 3G16G 2G10
  -9115911.68444  -7103301.49744                  22045204.2384   22045204.8264
  -3187015.54644  -2483386.49644                  20593965.0624   20593965.4854
  -8277741.70344  -6450182.01044                  21763046.7784   21763046.1994
   1662636.66844   1295561.88844                  20477918.6834   20477918.5164
    511561.72544    398622.81644                  23451130.8714   23451132.0584
   9901781.28244   7715672.62244                  23107520.6474   23107523.5444
  -8924766.66444  -6954352.79544                  23409246.3484   23409248.3734
  -2059807.15544  -1605041.96344                  23787661.7894   23787663.5184
 96 12  3  0  3  0.0000000  0  8G27G19G31G18G 3G16G 2G10
  -9175842.53844  -7150000.83544                  22033799.9084   22033800.4594
  -3196694.85944  -2490928.81244                  20592123.1264   20592123.6334
  -8304780.69544  -6471251.33444                  21757901.3554   21757900.7474
   1709211.08744   1331853.63544                  20486781.4674   20486781.2794
    552369.32844    430420.96844                  23458896.1914   23458895.8034
   9993650.81144   7787259.24244                  23125002.6554   23125004.8384
  -9002130.56944  -7014636.29944                  23394524.5164   23394525.9394
  -2089052.79644  -1627830.75744                  23782096.4154   23782097.1664
 96 12  3  0  3 30.0000000  0  8G27G19G31G18G 3G16G 2G10
  -9235667.60144  -7196617.73544                  22022415.4504   22022415.9684
  -3206186.37544  -2498324.79044                  20590316.9464   20590317.2744
  -8331259.36744  -6491884.04544                  21752862.6234   21752862.1344
   1756295.12544   1368542.48644                  20495741.0904   20495740.7684
    593704.86444    462630.49044                  23466761.9804   23466761.6574
  10085671.67644   7858963.79644                  23142513.5664   23142516.2794
  -9079268.80144  -7074743.95344                  23379845.6674   23379846.6444
  -2117752.59544  -1650194.23244                  23776635.2184   23776636.9254
 96 12  3  0  4  0.0000000  0  8G27G19G31G18G 3G16G 2G10
  -9295405.97044  -7243167.08344                  22011047.5304   22011048.0524
  -3215487.83644  -2505572.67444                  20588546.9114   20588547.2154
  -8357180.84244  -6512082.57844                  21747929.8174   21747929.3194
   1803892.66444   1405631.46944                  20504798.5134   20504798.3224
    635564.25144    495248.20944                  23474727.7234   23474727.3404
  10177842.63244   7930785.30044                  23160053.1324   23160056.2774
  -9156164.24244  -7134662.40944                  23365212.8664   23365213.7804
  -2145917.06744  -1672140.59144                  23771275.5564   23771277.6504
 96 12  3  0  4 30.0000000  0  8G27G19G31G18G 3G16G 2G10
  -9355068.71144  -7289657.49844                  21999694.0964   21999694.5694
  -3224595.29544  -2512669.39144                  20586813.7794   20586814.1864
  -8382540.38444  -6531843.24044                  21743104.2274   21743103.8224
   1851981.68644   1443103.42644                  20513949.7724   20513949.5914
    677943.30344    528270.85844                  23482792.3464   23482792.2734
  10270166.48444   8002725.93444                  23177622.0604   23177624.2674
  -9232829.68144  -7194401.66244                  23350623.7674   23350625.4224
  -2173569.38544  -1693687.87044                  23766013.8004   23766015.1164
 96 12  3  0  5  0.0000000  0  8G27G19G31G18G 3G16G 2G10
  -9414648.37844  -7336083.18544                  21988356.5894   21988357.0354
  -3233516.27044  -2519620.79444                  20585116.1154   20585116.5414
  -8407322.86044  -6551154.23844                  21738388.3344   21738387.8204
   1900566.85644   1480961.99444                  20523195.4224   20523195.1094
    720847.23044    561702.50244                  23490956.7674   23490956.7904
  10362641.27644   8074784.18044                  23195219.4654   23195221.4734
  -9309254.57244  -7253953.47244                  23336080.3234   23336081.7334
  -2200730.21444  -1714852.17744                  23760845.2214   23760844.6614
 96 12  3  0  5 30.0000000  0  8G27G19G31G18G 3G16G 2G10
  -9474145.26044  -7382444.36644                  21977034.5944   21977035.0944
  -3242257.00644  -2526431.74844                  20583452.8794   20583453.2164
  -8431517.81244  -6570007.42444                  21733784.2104   21733783.6444
   1949650.41744   1519208.91444                  20532535.4354   20532535.1644
    764255.03444    595526.77744                  23499217.1664   23499216.8354
  10455261.45844   8146955.71344                  23212844.2884   23212846.6064
  -9385431.98244  -7313312.45644                  23321584.1344   23321586.0004
  -2227408.00644  -1735640.06544                  23755768.2834   23755768.5784
 96 12  3  0  6  0.0000000  0  8G27G19G31G18G 3G16G 2G10
  -9533540.80144  -7428726.58044                  21965731.9694   21965732.5024
  -3250796.41544  -2533085.82544                  20581827.8094   20581828.2684
  -8455119.90344  -6588398.63844                  21729292.8894   21729292.4744
   1999212.28144   1557828.53944                  20541966.7084   20541966.3974
    808162.12644    629740.10644                  23507572.3384   23507572.7844
  10548032.01944   8219244.43344                  23230497.8664   23230499.9634
  -9461376.78644  -7372490.17744                  23307132.0714   23307134.1214
  -2253579.22144  -1756033.21244                  23750788.1474   23750788.7964
 96 12  3  0  6 30.0000000  0  8G27G19G31G18G 3G16G 2G10
  -9592833.84144  -7474928.92344                  21954448.8834   21954449.4234
  -3259133.79344  -2539582.47544                  20580241.3544   20580241.6004
  -8478126.28044  -6606325.66144                  21724914.6864   21724914.2564
   2049241.96644   1596812.69844                  20551487.1054   20551486.9164
    852570.70044    664344.20244                  23516022.9274   23516023.1094
  10640940.78844   8291640.84344                  23248178.5284   23248181.3674
  -9537099.62844  -7431494.93844                  23292722.3274   23292723.9454
  -2279236.15044  -1776025.65044                  23745905.8284   23745908.0084
 96 12  3  0  7  0.0000000  0  8G27G19G31G18G 3G16G 2G10
  -9652037.88844  -7521061.93044                  21943182.7734   21943183.2044
  -3267283.86244  -2545933.17144                  20578690.4184   20578690.7464
  -8500554.08144  -6623801.84144                  21720646.6444   21720646.2254
   2099733.81644   1636156.98644                  20561095.2744   20561095.1284
    897464.18844    699326.14144                  23524565.8534   23524565.4554
  10733959.34444   8364122.79844                  23265879.7224   23265882.1984
  -9612614.12344  -7490337.36244                  23278352.4334   23278353.3064
  -2304384.18644  -1795621.52244                  23741120.4604   23741122.8714
 96 12  3  0  7 30.0000000  0  8G27G19G31G18G 3G16G 2G10
  -9711132.81944  -7567109.91244                  21931937.3684   21931938.1644
  -3275214.71044  -2552113.04744                  20577181.3804   20577181.6284
  -8522382.84444  -6640811.24344                  21716492.7674   21716492.5624
   2150712.67244   1675880.76444                  20570796.2464   20570796.2044
    942869.48344    734706.90644                  23533206.2304   23533205.1274
  10827106.59144   8436705.02744                  23283605.0214   23283606.5244
  -9687902.15844  -7549003.32944                  23264025.9734   23264027.5084
  -2328977.64344  -1814785.24444                  23736440.2324   23736442.0114
 96 12  3  0  8  0.0000000  0  8G27G19G31G18G 3G16G 2G10
  -9770129.18044  -7613081.08844                  21920710.5254   21920711.2354
  -3282926.93344  -2558122.56344                  20575713.7074   20575714.1684
  -8543615.40044  -6657356.05944                  21712452.2194   21712451.7274
   2202181.80744   1715986.57944                  20580590.5254   20580590.3634
    988795.16544    770493.15844                  23541945.5584   23541945.9064
  10920374.12644   8509380.98744                  23301352.7764   23301354.4154
  -9762966.41644  -7607494.92944                  23249741.7264   23249743.8464
  -2353023.59544  -1833522.36144                  23731864.2554   23731866.6494
 96 12  3  0  8 30.0000000  0  8G27G19G31G18G 3G16G 2G10
  -9829040.71144  -7658986.16344                  21909500.0264   21909500.9354
  -3290442.59144  -2563978.91244                  20574283.4204   20574283.8164
  -8564255.98944  -6673439.61144                  21708524.3744   21708523.9864
   2254141.31544   1756474.50044                  20590478.3824   20590478.0334
   1035221.01444    806669.14344                  23550779.9654   23550778.8364
  11013734.53344   8582129.33244                  23319118.4474   23319119.9024
  -9837806.86244  -7665812.13344                  23235499.8834   23235501.9294
  -2376541.02044  -1851847.64244                  23727389.2784   23727389.6244
 96 12  3  0  9  0.0000000  0  8G27G19G31G18G 3G16G 2G10
  -9887862.44644  -7704821.27344                  21898306.7484   21898307.2134
  -3297760.85344  -2569681.44544                  20572890.7334   20572891.2694
  -8584306.26844  -6689063.18144                  21704709.2224   21704708.7744
   2306597.00844   1797349.05444                  20600460.4944   20600460.0184
   1082142.54744    843231.38944                  23559708.6524   23559709.4634
  11107183.27144   8654946.48944                  23336901.3254   23336902.4244
  -9912408.12944  -7723942.96644                  23221303.7934   23221305.6824
  -2399520.53244  -1869753.76544                  23723016.6144   23723018.5364
 96 12  3  0  9 30.0000000  0  8G27G19G31G18G 3G16G 2G10
  -9946594.16544  -7750586.23944                  21887130.5634   21887131.2624
  -3304867.76144  -2575219.28744                  20571538.3454   20571538.7324
  -8603756.77244  -6704219.39544                  21701007.8504   21701007.5694
   2359542.42744   1838605.21444                  20610535.6394   20610535.3134
   1129561.12644    880180.93544                  23568731.9094   23568732.9614
  11200735.37444   8727844.20444                  23354703.8384   23354707.0234
  -9986744.66344  -7781867.51444                  23207158.0904   23207160.3864
  -2421944.76644  -1887227.18844                  23718749.4084   23718751.4904
 96 12  3  0 10  0.0000000  0  8G27G19G31G18G 3G16G 2G10
 -10005216.69044  -7796266.12244                  21875974.9804   21875975.5614
  -3311748.44844  -2580580.85744                  20570229.1594   20570229.4744
  -8622598.43144  -6718901.18744                  21697422.5584   21697421.9264
   2412972.84344   1880239.29844                  20620702.8364   20620702.7884
   1177474.17244    917515.77444                  23577849.8604   23577850.1404
  11294409.99444   8800837.39944                  23372529.8664   23372532.6314
 -10060796.50344  -7839570.23444                  23193066.5074   23193068.5604
  -2443805.08044  -1904261.20944                  23714589.4314   23714590.2014
 96 12  3  0 10 30.0000000  0  8G27G19G31G18G 3G16G 2G10
 -10063741.62344  -7841869.95844                  21864838.1044   21864838.6184
  -3318420.37244  -2585779.75444                  20568959.2814   20568959.6494
  -8640853.89244  -6733126.19744                  21693948.6374   21693948.0704
   2466854.38144   1922224.90744                  20630956.2324   20630955.9454
   1225863.23044    955221.53644                  23587058.0944   23587058.7344
  11388199.13244   8873919.81544                  23390377.3564   23390380.1274
 -10134587.93644  -7897070.03044                  23179024.5494   23179026.0764
  -2465108.29644  -1920861.11744                  23710535.5414   23710538.4504
 96 12  3  0 11  0.0000000  0  8G27G19G31G18G 3G16G 2G10
 -10122179.02044  -7887405.57744                  21853717.7554   21853718.2004
  -3324883.16844  -2590815.69744                  20567729.5724   20567729.9544
  -8658531.35644  -6746900.82344                  21690584.6364   21690584.1944
   2521177.92944   1964554.93444                  20641293.7204   20641293.2824
   1274744.17044    993310.59444                  23596360.0944   23596359.8454
  11482121.96744   8947106.41744                  23408249.6364   23408252.5004
 -10208124.97944  -7954371.60844                  23165030.8954   23165032.4974
  -2485863.30344  -1937033.87144                  23706586.1194   23706586.8404
 96 12  3  0 11 30.0000000  0  8G27G19G31G18G 3G16G 2G10
 -10180512.51144  -7932860.23444                  21842617.2454   21842617.7224
  -3331135.36244  -2595687.53744                  20566539.8584   20566540.1834
  -8675623.98444  -6760219.73744                  21687332.1334   21687331.3814
   2575948.15944   2007233.02644                  20651716.0744   20651715.8304
   1324125.03744   1031789.19944                  23605756.8044   23605756.4144
  11576182.91944   9020400.63444                  23426148.7644   23426150.7984
 -10281418.53644  -8011483.45744                  23151083.7004   23151085.3634
  -2506086.08744  -1952791.91644                  23702737.8174   23702739.0774
 96 12  3  0 12  0.0000000  0  8G27G19G31G18G 3G16G 2G10
 -10238743.90344  -7978235.32944                  21831536.1904   21831536.7984
  -3337204.23544  -2600416.52744                  20565384.8844   20565385.1864
  -8692146.78044  -6773094.62544                  21684187.9814   21684187.4444
   2631168.12944   2050261.56744                  20662224.0364   20662223.9704
   1374006.43944   1070657.82844                  23615248.5724   23615248.9684
  11670345.50744   9093774.06344                  23444067.2704   23444069.3384
 -10354501.12444  -8068430.91744                  23137176.4834   23137178.1264
  -2525794.24144  -1968148.92844                  23698987.1804   23698988.7424
 96 12  3  0 12 30.0000000  0  8G27G19G31G18G 3G16G 2G10
 -10296881.33844  -8023537.20844                  21820472.8364   21820473.5444
  -3343088.76844  -2605001.87844                  20564265.1064   20564265.4444
  -8708094.46344  -6785521.37444                  21681153.1894   21681152.4654
   2686859.44744   2093657.39544                  20672821.9014   20672821.9504
   1424404.53044   1109929.06844                  23624839.0414   23624838.7434
  11764595.67644   9167215.71244                  23462002.8374   23462004.8294
 -10427365.66744  -8125208.47544                  23123310.5884   23123312.3034
  -2544996.12944  -1983111.42644                  23695333.4504   23695334.2404
 96 12  3  0 13  0.0000000  0  8G27G19G31G18G 3G16G 2G10
 -10354914.14244  -8068757.55744                  21809429.5804   21809430.1204
  -3348787.00344  -2609442.06244                  20563180.7364   20563181.1184
  -8723448.94744  -6797485.89544                  21678231.0974   21678230.8404
   2743046.01444   2137439.13044                  20683513.9544   20683513.6314
   1475314.19844   1149598.94544                  23634526.8764   23634527.4224
  11858923.68844   9240718.02944                  23479953.1324   23479956.7344
 -10499982.26644  -8181792.83344                  23109492.0194   23109493.5074
  -2563690.87244  -1997678.74644                  23691776.0504   23691777.5474
 96 12  3  0 13 30.0000000  0  8G27G19G31G18G 3G16G 2G10
 -10412839.71544  -8113894.34344                  21798406.6194   21798407.3844
  -3354308.42144  -2613744.46744                  20562130.1524   20562130.4914
  -8738208.74544  -6808987.02344                  21675422.1774   21675421.8284
   2799726.40944   2181605.66444                  20694299.6514   20694299.3294
   1526700.99944   1189640.62544                  23644305.1914   23644305.8084
  11953297.77444   9314256.24544                  23497911.7914   23497914.6464
 -10572357.99744  -8238189.49044                  23095719.4154   23095721.2044
  -2581876.63144  -2011849.46644                  23688315.0734   23688317.6934
 96 12  3  0 14  0.0000000  0  8G27G19G31G18G 3G16G 2G10
 -10470677.82344  -8158962.97844                  21787400.4594   21787401.0014
  -3359651.40344  -2617907.82944                  20561113.2684   20561113.7534
  -8752372.93244  -6820024.03844                  21672726.9584   21672726.5044
   2856899.21044   2226155.88944                  20705179.1774   20705178.9554
   1578550.36944   1230042.74144                  23654171.8664   23654172.7344
  12047722.71644   9387834.09644                  23515880.1474   23515881.9244
 -10644489.56544  -8294395.90344                  23081993.2434   23081994.8594
  -2599545.97844  -2025617.79544                  23684952.9594   23684954.8464
 96 12  3  0 14 30.0000000  0  8G27G19G31G18G 3G16G 2G10
 -10528422.86344  -8203959.09444                  21776411.9644   21776412.4394
  -3364788.38644  -2621910.67144                  20560135.7994   20560136.2354
  -8765916.84444  -6830577.72344                  21670149.7204   21670149.1564
   2914570.44544   2271094.51044                  20716153.8544   20716153.7174
   1630868.83844   1270810.37344                  23664127.6164   23664127.6014
  12142223.74944   9461471.24144                  23533863.0614   23533865.0604
 -10716357.57044  -8350396.93144                  23068317.4284   23068318.5214
  -2616688.21744  -2038975.36744                  23681690.7384   23681692.1474
 96 12  3  0 15  0.0000000  0  8G27G19G31G18G 3G16G 2G10
 -10586072.88044  -8248881.15944                  21765441.5004   21765442.1964
  -3369725.59744  -2625757.84444                  20559196.2274   20559196.6924
  -8778839.04744  -6840646.95944                  21667690.5944   21667690.0674
   2972724.80444   2316409.59144                  20727220.3634   20727220.2544
   1683646.15444   1311935.56744                  23674170.9854   23674170.2684
  12236795.41344   9535163.41544                  23551859.3444   23551861.5834
 -10787990.45144  -8406214.74844                  23054686.0174   23054687.7494
  -2633301.82244  -2051921.05944                  23678529.3764   23678530.5444
 96 12  3  0 15 30.0000000  0  8G27G19G31G18G 3G16G 2G10
 -10643618.20144  -8293721.64044                  21754490.9514   21754491.4574
  -3374432.09544  -2629425.24144                  20558300.7224   20558301.1024
  -8791139.24144  -6850231.51844                  21665349.8864   21665349.6004
   3031356.10444   2362096.31244                  20738377.3974   20738377.3914
   1736913.44844   1353442.56444                  23684307.6934   23684308.5624
  12331455.09544   9608924.17744                  23569872.6234   23569874.0604
 -10859403.53944  -8461861.29944                  23041096.3124   23041097.5984
  -2649370.75944  -2064442.29244                  23675471.9064   23675473.0834
 96 12  3  0 16  0.0000000  0  8G27G19G31G18G 3G16G 2G10
 -10701062.13944  -8338483.12944                  21743559.8314   21743560.2754
  -3378899.22044  -2632906.11144                  20557450.7184   20557451.0894
  -8802816.21244  -6859330.45044                  21663127.9074   21663127.5254
   3090451.29144   2408144.50544                  20749622.7984   20749622.7764
   1790698.78944   1395353.22644                  23694542.4994   23694541.7944
  12426216.02644   9682763.82644                  23587905.6654   23587907.2844
 -10930578.83044  -8517322.54044                  23027552.0544   23027553.9694
  -2664895.33044  -2076539.36844                  23672517.3644   23672519.7424
 96 12  3  0 16 30.0000000  0  8G27G19G31G18G 3G16G 2G10
 -10758395.94944  -8383158.79844                  21732649.4624   21732650.0114
  -3383135.13044  -2636206.81544                  20556644.7134   20556645.0494
  -8813883.91244  -6867954.61844                  21661021.9414   21661021.3754
   3150003.81144   2454549.06144                  20760955.1714   20760954.9684
   1844999.87244   1437665.76244                  23704875.2914   23704874.9684
  12521050.89244   9756661.07844                  23605951.9314   23605953.7754
 -11001519.74744  -8572601.16644                  23014052.4854   23014053.8084
  -2679888.16344  -2088222.09444                  23669664.1254   23669665.3154
 96 12  3  0 17  0.0000000  0  8G27G19G31G18G 3G16G 2G10
 -10815606.16444  -8427738.16244                  21721762.7624   21721763.1494
  -3387149.88544  -2639335.18844                  20555880.7624   20555880.9774
  -8824356.80144  -6876115.30544                  21659028.8734   21659028.4534
   3210013.81244   2501310.09544                  20772374.9184   20772374.7924
   1899810.50744   1480375.33444                  23715305.4224   23715305.2934
  12615954.30544   9830611.75344                  23624011.1474   23624014.4264
 -11072212.82144  -8627686.65344                  23000600.1014   23000601.4184
  -2694353.64244  -2099493.90044                  23666911.4704   23666913.0584
 96 12  3  0 17 30.0000000  0  8G27G19G31G18G 3G16G 2G10
 -10872713.09844  -8472237.04944                  21710895.6394   21710896.1284
  -3390960.00944  -2642304.10844                  20555155.5904   20555155.9344
  -8834257.40344  -6883830.05044                  21657144.8394   21657144.1244
   3270470.61444   2548419.28344                  20783879.4084   20783879.1144
   1955108.98244   1523465.05644                  23725828.3424   23725828.3374
  12710915.95144   9904607.80644                  23642081.7274   23642082.9554
 -11142640.70344  -8682565.50044                  22987198.2414   22987199.5054
  -2708303.92044  -2110364.23444                  23664257.1014   23664257.4264
 96 12  3  0 18  0.0000000  0  8G27G19G31G18G 3G16G 2G10
 -10929701.00644  -8516643.18744                  21700051.2254   21700051.6194
  -3394567.76544  -2645115.33644                  20554469.0374   20554469.2674
  -8843567.25744  -6891084.47244                  21655373.0734   21655372.6824
   3331402.36544   2595898.56344                  20795474.2954   20795474.2644
   2010884.45144   1566926.44944                  23736442.3004   23736442.2494
  12805941.51444   9978653.67944                  23660164.3154   23660167.2704
 -11212772.71244  -8737213.80044                  22973852.5004   22973853.8574
  -2721723.21344  -2120820.82344                  23661703.4204   23661705.3314
 96 12  3  0 18 30.0000000  0  8G27G19G31G18G 3G16G 2G10
 -10986573.44744  -8560959.35844                  21689228.7194   21689229.3154
  -3397979.62444  -2647773.91644                  20553819.6014   20553819.9194
  -8852291.88144  -6897882.87244                  21653712.9514   21653712.5374
   3392811.68244   2643749.97044                  20807160.0234   20807159.8894
   2067110.76144   1610739.16744                  23747142.1904   23747142.2304
  12901013.92544  10052736.03244                  23678256.6954   23678257.6324
 -11282633.74744  -8791650.94744                  22960558.3754   22960559.2484
  -2734620.52044  -2130870.66644                  23659249.1504   23659250.0714
 96 12  3  0 19  0.0000000  0  8G27G19G31G18G 3G16G 2G10
 -11043334.59644  -8605188.81044                  21678427.3954   21678427.7794
  -3401197.71944  -2650281.51044                  20553207.2414   20553207.5694
  -8860422.74544  -6904218.60344                  21652165.9444   21652165.4274
   3454689.24344   2691966.24044                  20818935.0714   20818934.7114
   2123784.14644   1654900.24044                  23757926.7954   23757925.6514
  12996153.39744  10126870.64444                  23696361.5004   23696362.1234
 -11352221.78644  -8845875.36044                  22947316.3124   22947317.3724
  -2746989.46244  -2140508.79944                  23656895.3294   23656897.5634
 96 12  3  0 19 30.0000000  0  8G27G19G31G18G 3G16G 2G10
 -11099984.70644  -8649331.73644                  21667647.3344   21667647.7744
  -3404202.17544  -2652622.63444                  20552635.4654   20552635.8424
  -8867943.11344  -6910078.61844                  21650734.8634   21650734.3544
   3517030.95344   2740544.18644                  20830798.5204   20830798.1844
   2180905.81344   1699410.64944                  23768796.5694   23768796.9474
  13091360.07844  10201057.62544                  23714478.5554   23714479.9424
 -11421550.50344  -8899897.70844                  22934123.5934   22934124.9864
  -2758817.68344  -2149725.60444                  23654644.5214   23654645.7154
 96 12  3  0 20  0.0000000  0  8G27G19G31G18G 3G16G 2G10
 -11156515.89344  -8693381.99944                  21656889.7024   21656890.1904
  -3406989.15844  -2654794.29844                  20552105.1134   20552105.5274
  -8874846.03344  -6915457.50544                  21649420.9204   21649420.6754
   3579824.73544   2789474.39844                  20842747.6044   20842747.4484
   2238474.30844   1744269.23044                  23779751.1874   23779750.8694
  13186615.76144  10275282.79344                  23732604.6094   23732606.5274
 -11490651.91444  -8953742.93244                  22920973.9444   22920975.3344
  -2770113.68744  -2158527.68644                  23652494.9584   23652497.4464
 96 12  3  0 20 30.0000000  0  8G27G19G31G18G 3G16G 2G10
 -11212942.24444  -8737350.57444                  21646152.1714   21646152.5834
  -3409566.11344  -2656802.30544                  20551614.8084   20551614.8894
  -8881136.70444  -6920359.31744                  21648223.8214   21648223.4274
   3643057.70644   2838746.83644                  20854780.2534   20854780.1974
   2296500.74344   1789484.63544                  23790793.2284   23790792.5984
  13281910.34344  10349538.28244                  23750738.6364   23750741.7414
 -11559539.80944  -9007421.78744                  22907864.6894   22907866.8204
  -2780904.29144  -2166935.96744                  23650441.6454   23650444.3054
 96 12  3  0 21  0.0000000  0  8G27G19G31G18G 3G16G 2G10
 -11269252.65744  -8781228.80744                  21635436.6594   21635437.2164
  -3411915.01044  -2658632.60344                  20551167.8574   20551168.0334
  -8886797.93544  -6924770.65144                  21647146.7504   21647146.2074
   3706742.90444   2888371.65744                  20866899.1514   20866899.0194
   2355006.25244   1835073.35144                  23801926.5624   23801926.9474
  13377246.00344  10423825.77244                  23768881.0684   23768883.1964
 -11628189.13944  -9060914.74644                  22894801.2504   22894803.3974
  -2791172.19944  -2174936.93144                  23648487.7264   23648489.9514
 96 12  3  0 21 30.0000000  0  8G27G19G31G18G 3G16G 2G10
 -11325443.82944  -8825014.12444                  21624743.7114   21624744.2224
  -3414015.22844  -2660269.12644                  20550768.1754   20550768.4764
  -8891809.97644  -6928676.11944                  21646193.0224   21646192.3804
   3770896.27844   2938361.28944                  20879107.3814   20879107.1074
   2413998.45544   1881041.30844                  23813152.3364   23813153.3754
  13472612.50444  10498137.28544                  23787028.8424   23787030.6054
 -11696592.99944  -9114216.42544                  22881784.5284   22881786.4764
  -2800906.46244  -2182522.06344                  23646635.2704   23646637.1724
 96 12  3  0 22  0.0000000  0  8G27G19G31G18G 3G16G 2G10
 -11381514.70144  -8868705.70044                  21614073.8324   21614074.2384
  -3415862.73744  -2661708.72944                  20550416.6184   20550416.9624
  -8896156.40944  -6932062.93344                  21645365.9434   21645365.2744
   3835536.55744   2988730.32944                  20891408.1684   20891407.9744
   2473496.49344   1927403.44344                  23824474.6094   23824473.1374
  13568028.89844  10572487.69344                  23805185.7854   23805187.4594
 -11764715.85744  -9167299.14044                  22868821.1024   22868822.7224
  -2810092.42244  -2189679.96144                  23644887.1464   23644888.7524
 96 12  3  0 22 30.0000000  0  8G27G19G31G18G 3G16G 2G10
 -11437467.32044  -8912305.12944                  21603426.4554   21603426.8704
  -3417454.12744  -2662948.76144                  20550113.8564   20550114.1264
  -8899826.97144  -6934923.09244                  21644667.2204   21644666.7424
   3900675.48244   3039487.92544                  20903803.7054   20903803.3704
   2533502.34344   1974161.24844                  23835893.5094   23835894.1714
  13663513.50144  10646891.25044                  23823355.3974   23823357.7404
 -11832527.47644  -9220139.32644                  22855916.8424   22855918.4814
  -2818713.40844  -2196397.59844                  23643246.6414   23643247.8414
 96 12  3  0 23  0.0000000  0  8G27G19G31G18G 3G16G 2G10
 -11493338.39044  -8955841.01244                  21592794.4484   21592794.9754
  -3418821.64444  -2664014.34944                  20549853.7054   20549853.8754
  -8902866.10944  -6937291.23844                  21644088.8864   21644088.4914
   3966256.16744   3090589.74944                  20916283.1734   20916282.8514
   2593954.69144   2021267.00044                  23847396.9544   23847395.6904
  13759024.47544  10721315.34844                  23841530.2974   23841532.5894
 -11900073.83144  -9272772.81444                  22843063.2744   22843064.7394
  -2826780.62644  -2202683.74444                  23641711.4844   23641713.4974
 96 12  3  0 23 30.0000000  0  8G27G19G31G18G 3G16G 2G10
 -11549130.64244  -8999315.47744                  21582177.6324   21582178.0124
  -3419989.34444  -2664924.23944                  20549631.3804   20549631.5364
  -8905299.50944  -6939187.37744                  21643625.9164   21643625.1784
   4032265.38344   3142025.49044                  20928844.2944   20928843.9274
   2654832.51944   2068704.29044                  23858981.7094   23858982.3534
  13854559.83544  10795758.45244                  23859710.7154   23859713.0124
 -11967372.81544  -9325213.54744                  22830256.5614   22830258.1674
  -2834304.56844  -2208546.56644                  23640279.8364   23640282.5054
 96 12  3  0 24  0.0000000  0  8G27G19G31G18G 3G16G 2G10
 -11604806.30044  -9042699.08944                  21571582.7934   21571583.1464
  -3420944.99644  -2665668.89644                  20549449.5704   20549449.7774
  -8907125.80144  -6940610.44744                  21643278.6404   21643277.8724
   4098725.76244   3193812.79044                  20941491.1684   20941490.9024
   2716166.40344   2116496.93744                  23870653.1274   23870653.7944
  13950146.78544  10870241.74444                  23877900.3174   23877901.0934
 -12034392.99044  -9377437.01844                  22817502.7964   22817504.5244
  -2841272.29244  -2213975.97944                  23638953.9814   23638955.2734
 96 12  3  0 24 30.0000000  0  8G27G19G31G18G 3G16G 2G10
 -11660386.13544  -9086008.02844                  21561006.2384   21561006.6784
  -3421730.26744  -2666280.79044                  20549300.0494   20549300.1774
  -8908396.77644  -6941600.80644                  21643036.4854   21643035.9234
   4165598.34444   3245921.28844                  20954216.4884   20954216.5234
   2777899.32644   2164600.52044                  23882400.3944   23882400.5774
  14045732.02444  10944723.69644                  23896089.8774   23896092.3084
 -12101188.17044  -9429485.17144                  22804792.1114   22804793.5064
  -2847737.67544  -2219013.95944                  23637723.6644   23637725.3364
 96 12  3  0 25  0.0000000  0  8G27G19G31G18G 3G16G 2G10
 -11715841.36944  -9129219.87944                  21550453.4564   21550453.9294
  -3422338.25544  -2666754.54744                  20549184.3044   20549184.6804
  -8909114.61744  -6942160.09044                  21642899.5164   21642898.8774
   4232901.39344   3298365.21744                  20967023.9234   20967023.9804
   2840047.44744   2213027.63644                  23894226.9024   23894227.5474
  14141312.83044  11019202.20044                  23914277.8074   23914279.9754
 -12167755.15344  -9481355.50244                  22792125.1374   22792126.7684
  -2853705.55244  -2223664.24144                  23636587.8554   23636589.9524
 96 12  3  0 25 30.0000000  0  8G27G19G31G18G 3G16G 2G10
 -11771143.30244  -9172312.26744                  21539929.9864   21539930.2084
  -3422753.75044  -2667078.29944                  20549105.3804   20549105.7204
  -8909244.04144  -6942260.96144                  21642874.9234   21642874.3864
   4300673.09344   3351174.32644                  20979920.5424   20979920.5174
   2902644.37944   2261804.48544                  23906138.7784   23906138.9944
  14236916.04444  11093698.18844                  23932470.0964   23932472.3514
 -12234050.53544  -9533014.20244                  22779509.5644   22779510.6804
  -2859177.47144  -2227928.09044                  23635546.5864   23635549.7434
 96 12  3  0 26  0.0000000  0  8G27G19G31G18G 3G16G 2G10
 -11826288.78144  -9215282.74644                  21529436.0574   21529436.4884
  -3422961.54344  -2667240.21044                  20549065.7554   20549066.1004
  -8908748.45444  -6941874.77844                  21642969.3374   21642968.9064
   4368921.42844   3404354.84044                  20992907.7414   20992907.4994
   2965706.26244   2310943.62444                  23918138.9784   23918139.3054
  14332554.19644  11168221.38144                  23950670.0014   23950671.0454
 -12300058.73344  -9584449.11944                  22766948.6214   22766949.4314
  -2864143.64244  -2231797.84444                  23634601.5944   23634603.1824
 96 12  3  0 26 30.0000000  0  8G27G19G31G18G 3G16G 2G10
 -11881292.31244  -9258142.61444                  21518969.1414   21518969.6884
  -3422960.87644  -2667239.68544                  20549065.8294   20549066.2474
  -8907621.87244  -6940996.90944                  21643183.7914   21643183.3904
   4437632.97844   3457896.29944                  21005983.0494   21005982.7204
   3029222.60444   2360436.88044                  23930225.3574   23930225.7544
  14428205.81144  11242755.08444                  23968872.2284   23968873.5894
 -12365800.62544  -9635676.53244                  22754438.2414   22754439.2144
  -2868596.17744  -2235267.36944                  23633754.1634   23633755.5474
 96 12  3  0 27  0.0000000  0  8G27G19G31G18G 3G16G 2G10
 -11936151.39644  -9300889.93244                  21508529.8694   21508530.0824
  -3422730.95444  -2667060.52344                  20549109.5634   20549109.8314
  -8905849.82544  -6939616.07644                  21643521.1004   21643520.5334
   4506795.59944   3511789.23844                  21019144.2654   21019143.9604
   3093214.21244   2410300.48244                  23942402.5814   23942402.8764
  14523889.73244  11317313.92944                  23987080.5074   23987081.9084
 -12431263.93244  -9686686.86544                  22741980.9064   22741982.1614
  -2872504.47444  -2238312.81844                  23633010.6024   23633012.3404
 96 12  3  0 27 30.0000000  0  8G27G19G31G18G 3G16G 2G10
 -11990887.03944  -9343541.06044                  21498114.0144   21498114.3994
  -3422266.45044  -2666698.57244                  20549198.0574   20549198.2444
  -8903428.20344  -6937729.07944                  21643982.0694   21643981.4034
   4576387.55744   3566016.72944                  21032387.1914   21032387.0994
   3157666.55244   2460523.10044                  23954667.3484   23954667.3574
  14619605.72644  11391897.76444                  24005294.2814   24005294.8164
 -12496450.11244  -9737481.25444                  22729576.2664   22729577.2444
  -2875852.26744  -2240921.50744                  23632373.9234   23632375.6924
 96 12  3  0 28  0.0000000  0  8G27G19G31G18G 3G16G 2G10
 -12045509.77944  -9386104.21144                  21487719.5954   21487719.9444
  -3421566.63844  -2666153.26444                  20549331.3024   20549331.2854
  -8900388.01944  -6935360.08444                  21644560.4214   21644559.9494
   4646382.36444   3620558.12944                  21045706.8734   21045706.8574
   3222558.18144   2511088.03144                  23967015.8994   23967015.9924
  14715323.37644  11466482.91044                  24023508.0864   24023510.6584
 -12561386.76044  -9788081.20844                  22717219.2984   22717220.2304
  -2878629.16444  -2243085.32644                  23631845.2064   23631846.8824
 96 12  3  0 28 30.0000000  0  8G27G19G31G18G 3G16G 2G10
 -12100002.48244  -9428566.03744                  21477350.0224   21477350.1844
  -3420612.33744  -2665409.65544                  20549512.7914   20549512.8244
  -8896743.05344  -6932519.83444                  21645254.0974   21645253.6464
   4716788.97944   3675420.41944                  21059104.8604   21059104.7114
   3287891.52644   2561997.14044                  23979448.6344   23979448.9624
  14811045.04544  11541071.17244                  24041723.2504   24041726.6344
 -12626071.93144  -9838485.21044                  22704909.9174   22704911.1154
  -2880827.92644  -2244798.65344                  23631426.9604   23631428.8844
 96 12  3  0 29  0.0000000  0  8G27G19G31G18G 3G16G 2G10
 -12154388.12144  -9470944.43844                  21467000.8004   21467001.0244
  -3419430.01344  -2664488.36544                  20549737.7484   20549737.9054
  -8892505.78644  -6929218.04944                  21646060.4724   21646059.9254
   4787589.06044   3730589.30644                  21072577.6764   21072577.5154
   3353642.97544   2613232.04244                  23991960.9664   23991960.9154
  14906759.01344  11615653.45244                  24059937.2804   24059939.9504
 -12690528.29944  -9888710.92744                  22692644.1644   22692645.6154
  -2882484.43744  -2246089.44644                  23631111.7084   23631112.8854
 96 12  3  0 29 30.0000000  0  8G27G19G31G18G 3G16G 2G10
 -12208673.03844  -9513244.35444                  21456670.5154   21456670.7434
  -3418041.03444  -2663406.04344                  20550002.1134   20550002.2564
  -8887669.92944  -6925449.83344                  21646980.5224   21646980.0074
   4858806.01144   3786083.02444                  21086129.7014   21086129.6554
   3419802.07144   2664784.59844                  24004550.6094   24004550.0024
  15002452.22244  11690219.55644                  24078147.8794   24078148.9714
 -12754761.26644  -9938762.56744                  22680421.2194   22680422.2654
  -2883630.37144  -2246982.39144                  23630893.5424   23630895.4744
 96 12  3  0 30  0.0000000  0  8G27G19G31G18G 3G16G 2G10
 -12262846.86244  -9555457.70744                  21446361.6694   21446361.8834
  -3416449.14644  -2662165.60844                  20550304.9364   20550305.2584
  -8882224.12944  -6921206.33844                  21648016.6064   21648016.4344
   4930456.99644   3841914.95044                  21099764.4274   21099764.2084
   3486388.81044   2716670.39944                  24017221.4684   24017222.0444
  15098123.10344  11764768.24544                  24096353.2904   24096355.7974
 -12818775.55544  -9988643.81144                  22668239.6474   22668240.5694
  -2884284.68244  -2247492.24044                  23630769.0754   23630771.1774
 96 12  3  0 30 30.0000000  0  8G27G19G31G18G 3G16G 2G10
 -12316924.06044  -9597595.77344                  21436071.0744   21436071.4464
  -3414659.71044  -2660771.24044                  20550645.4454   20550645.7884
  -8876144.00044  -6916468.55944                  21649173.5954   21649172.9504
   5002549.19444   3898090.67944                  21113483.2824   21113483.1694
   3553410.48744   2768895.07744                  24029974.9894   24029974.9844
  15193785.34644  11839310.21644                  24114556.7314   24114559.1614
 -12882568.32244 -10038352.44044                  22656100.0844   22656101.0904
  -2884465.84344  -2247633.43544                  23630734.6264   23630735.5264
 96 12  3  0 31  0.0000000  0  8G27G19G31G18G 3G16G 2G10
 -12370900.72044  -9639655.49844                  21425799.7214   21425800.1154
  -3412670.66844  -2659221.33544                  20551024.0484   20551024.2134
  -8869408.17844  -6911219.84444                  21650455.5584   21650454.9834
   5075086.72744   3954613.42244                  21127286.6584   21127286.6284
   3620870.84044   2821461.58744                  24042812.1354   24042812.2304
  15289444.08644  11913849.46144                  24132759.5974   24132763.9844
 -12946114.93944 -10087869.27244                  22644007.5584   22644009.1674
  -2884165.28444  -2247399.27644                  23630792.0384   23630795.1824
 96 12  3  0 31 30.0000000  0  8G27G19G31G18G 3G16G 2G10
 -12424778.91244  -9681638.49644                  21415547.0324   21415547.2024
  -3410481.14144  -2657515.20744                  20551440.7514   20551440.9374
  -8862045.31144  -6905482.52544                  21651856.7244   21651856.0794
   5148050.51944   4011468.31644                  21141171.2074   21141170.9824
   3688750.80444   2874355.07444                  24055729.3934   24055729.8754
  15385071.68344  11988364.43844                  24150956.9784   24150960.3904
 -13009409.42444 -10137189.63444                  22631962.9684   22631964.5454
  -2883386.74644                                                  23630939.9604
 96 12  3  0 32  0.0000000  0  8G27G19G31G18G 3G16G 2G10
 -12478566.33944  -9723550.76844                  21405311.6834   21405311.8924
  -3408085.31844  -2655648.33144                  20551896.7024   20551896.9114
  -8854076.05644  -6899272.69344                  21653373.1594   21653372.3934
   5221398.57444   4068622.63044                  21155128.8204   21155128.4984
   3757030.57144   2927560.08344                  24068722.6324   24068723.2534
  15480641.45544  12062834.36344                  24169144.1434   24169147.2664
 -13072462.38744 -10186321.80244                  22619964.5974   22619966.0404
  -2882125.44444                                                  23631179.7854
 96 12  3  0 32 30.0000000  0  8G27G19G31G18G 3G16G 2G10
 -12532202.64744  -9765345.28744                  21395104.9544   21395105.2934
  -3405420.81644  -2653572.09244                  20552403.6524   20552403.8144
  -8845466.23144  -6892563.72244                  21655011.5024   21655011.0514
   5295159.12344   4126098.37144                  21169165.0804   21169164.8404
   3825742.64344   2981101.96344                  24081797.8114   24081798.6184
  15576199.08644  12137294.82444                  24187328.2524   24187331.4164
 -13135204.08044 -10235211.42244                  22608025.1784   22608026.8214
  -2880327.21044                                                  23631522.2084
 96 12  3  0 33  0.0000000  0  8G27G19G31G18G 3G16G 2G10
 -12585673.17944  -9807010.63044                  21384929.8944   21384930.1034
  -3402499.81744  -2651295.98544                  20552959.4114   20552959.7304
  -8836233.64744  -6885369.48044                  21656768.4534   21656767.7134
   5369326.58144   4183891.18244                  21183278.6534   21183278.4904
   3894873.12144   3034969.89544                  24094952.5274   24094954.4954
  15671722.08744  12211728.28644                  24205506.0014   24205507.0214
 -13197639.20944 -10283862.15944                  22596144.2544   22596145.7574
  -2878000.60244  -2242596.63644                  23631965.0444   23631965.4684
 96 12  3  0 33 30.0000000  0  8G27G19G31G18G 3G16G 2G10
 -12638986.97644  -9848553.84544                  21374784.6444   21374784.7664
  -3399334.09144  -2648829.18044                  20553561.9804   20553562.1784
  -8826389.04644  -6877698.34244                  21658641.7254   21658640.7904
   5443893.82644   4241995.52044                  21197468.1794   21197468.1474
   3964416.95344   3089159.90144                  24108186.1254   24108187.3444
  15767193.41644  12286121.51744                  24223673.3314   24223675.4524
 -13259788.92344 -10332290.49244                  22584317.6854   22584318.9474
  -2875168.24744  -2240395.52844                  23632503.9094   23632503.7894
 96 12  3  0 34  0.0000000  0  8G27G19G31G18G 3G16G 2G10
 -12692151.17844  -9889980.49044                  21364667.7444   21364668.0864
  -3395935.70344  -2646181.08344                  20554208.7664   20554208.6564
  -8815928.34144  -6869547.11944                  21660632.3154   21660631.7264
   5518871.31344   4300419.52744                  21211736.0994   21211735.7694
   4034375.58644   3143673.13944                  24121499.1804   24121500.6264
  15862620.40444  12360480.17744                  24241832.4454   24241835.0234
 -13321660.26444 -10380501.90644                  22572544.1604   22572545.2144
  -2871833.07244  -2237802.47544                  23633138.5714   23633138.4694
 96 12  3  0 34 30.0000000  0  8G27G19G31G18G 3G16G 2G10
 -12745172.36744  -9931295.69644                  21354578.1664   21354578.5034
  -3392312.33544  -2643357.67644                  20554898.2714   20554898.2164
  -8804847.59444  -6860912.75444                  21662740.7334   21662740.1344
   5594293.33144   4359189.91744                  21226088.6134   21226088.1754
   4104759.29444   3198517.61744                  24134893.3024   24134892.9224
  15958022.97844  12434819.79944                  24259987.4044   24259988.9344
 -13383258.19144 -10428500.27144                  22560822.3294   22560823.2604
  -2867993.77944  -2234799.42344                  23633869.1674   23633868.7034
 96 12  3  0 35  0.0000000  0  8G27G19G31G18G 3G16G 2G10
 -12798050.65944  -9972499.55244                  21344515.6804   21344516.0574
  -3388452.62444  -2640350.10644                  20555632.5374   20555632.6794
  -8793116.73844  -6851771.81344                  21664973.0814   21664972.5554
   5670196.97344   4418335.60044                  21240532.4454   21240532.2654
   4175579.17144   3253701.94344                  24148369.7654   24148369.3094
  16053418.98444  12509154.32144                  24278140.9734   24278141.7264
 -13444590.47944 -10476291.64944                  22549150.8244   22549152.3714
  -2863619.10444                                                  23634701.7944
 96 12  3  0 35 30.0000000  0  8G27G19G31G18G 3G16G 2G10
 -12850824.54844 -10013622.05344                  21334473.1634   21334473.5824
  -3384378.07744  -2637175.12744                  20556407.8884   20556407.8354
  -8780776.87544  -6842156.31844                  21667321.2514   21667320.7494
   5746542.72744   4477825.78844                  21255060.3864   21255060.5104
   4246802.73644   3309200.84844                  24161923.5394   24161923.5184
  16148777.97844  12583459.99244                  24296286.8494   24296288.8804
 -13505680.26644 -10523894.06044                  22537525.6334   22537527.3304
  -2858727.85444  -2227578.03744                                  23635632.4834
 96 12  3  0 36  0.0000000  0  8G27G19G31G18G 3G16G 2G10
 -12903499.56844 -10054667.51344                  21324449.3824   21324449.6584
  -3380089.65644  -2633833.49244                  20557224.1664   20557224.1604
  -8767835.36944  -6832072.01044                  21669784.2584   21669783.2804
   5823320.32244   4537652.47544                  21269670.7464   21269670.7824
   4318409.16044   3364998.09244                  24175549.7974   24175549.2184
  16244099.57644  12657736.53344                  24314425.8214   24314426.8724
 -13566533.72044 -10571312.31644                  22525945.8914   22525947.1014
  -2853302.67444  -2223350.68244                  23636664.8444   23636668.3084
 96 12  3  0 36 30.0000000  0  8G27G19G31G18G 3G16G 2G10
 -12956063.03444 -10095626.05444                  21314446.8954   21314447.3224
  -3375567.07444  -2630309.39644                  20558084.7504   20558084.5564
  -8754278.47044  -6821508.17544                  21672364.2584   21672363.4364
   5900516.44744   4597805.28744                  21284360.9704   21284360.7374
   4390390.49144   3421087.45944                  24189247.3034   24189246.2984
  16339384.82844  12731984.76744                  24332557.3304   24332559.2624
 -13627145.55744 -10618542.28844                  22514412.0044   22514413.0954
  -2847341.22544  -2218705.43444                  23637799.3194   23637803.9924
 96 12  3  0 37  0.0000000  0  8G27G19G31G18G 3G16G 2G10
 -13008454.93444 -10136450.90044                  21304477.0804   21304477.2374
  -3370765.99144  -2626568.28844                  20558998.2204   20558998.3374
  -8740075.07344  -6810440.57744                  21675066.8414   21675066.2114
   5978144.11344   4658294.36344                  21299132.8864   21299132.6094
   4462776.31044   3477492.02944                  24203021.6014   24203021.3914
  16434650.43544  12806217.68044                  24350685.8384   24350689.0564
 -13687453.82344 -10665535.70944                  22502935.8084   22502936.8524
  -2840811.57544  -2213617.41844                  23639041.6614   23639046.6974
 96 12  3  0 37 30.0000000  0  8G27G19G31G18G 3G16G 2G10
 -13060667.19344 -10177135.76744                  21294541.3764   21294541.3834
  -3365693.13844  -2622615.40844                  20559963.3804   20559963.6154
  -8725235.34444  -6798877.14044                  21677890.4704   21677889.9984
   6056183.85944   4719104.54044                  21313983.1404   21313983.0684
   4535564.12344   3534209.82444                  24216872.3134   24216873.4584
  16529876.93344  12880420.12444                  24368806.8774   24368808.8634
 -13747448.12844 -10712284.48744                  22491519.1094   22491520.6084
  -2833739.60344  -2208106.77244                  23640387.5624   23640389.6294
 96 12  3  0 38  0.0000000  0  8G27G19G31G18G 3G16G 2G10
 -13112732.63344 -10217706.22944                  21284633.5784   21284633.9044
  -3360380.78944  -2618475.90444                  20560974.2584   20560974.5074
  -8709781.46944  -6786835.14744                  21680831.4704   21680830.9704
   6134601.91844   4780209.51344                  21328905.5654   21328905.6974
   4608723.57944   3591217.21044                  24230793.9684   24230793.7384
  16625031.69044  12954566.67244                  24386914.7574   24386916.9984
 -13807176.44344 -10758826.00144                  22480152.8844   22480154.4394
  -2826166.22744  -2202205.42044                  23641828.7734   23641829.2484
 96 12  3  0 38 30.0000000  0  8G27G19G31G18G 3G16G 2G10
 -13164643.66844 -10258156.36944                  21274755.2324   21274755.6234
  -3354828.25044  -2614149.24044                  20562031.0474   20562031.0674
  -8693717.42744  -6774317.69744                  21683888.4094   21683887.9044
   6213401.90344   4841612.09044                  21343901.0844   21343900.9194
   4682279.91344   3648533.84844                  24244791.2744   24244791.5314
  16720113.58744  13028656.44244                  24405008.4164   24405011.5424
 -13866629.03244 -10805152.65844                  22468839.3514   22468840.7554
  -2818100.53544  -2195920.45144                  23643363.3684   23643364.6284
 96 12  3  0 39  0.0000000  0  8G27G19G31G18G 3G16G 2G10
 -13216396.37444 -10298483.13844                  21264907.0794   21264907.4844
  -3349041.25844  -2609639.88844                  20563132.3064   20563132.1354
  -8677038.84144  -6761321.38044                  21687061.9854   21687061.2524
   6292592.19144   4903318.79644                  21358970.8214   21358970.3644
   4756265.08144   3706184.64544                  24258870.2884   24258872.3804
  16815128.62344  13102694.12344                  24423089.0944   24423092.2854
 -13925809.91144 -10851267.58944                  22457577.9014   22457578.8564
  -2809529.00644  -2189241.30644                  23644994.7734   23644995.9164
 96 12  3  0 39 30.0000000  0  8G27G19G31G18G 3G16G 2G10
 -13267997.35944 -10338691.68044                  21255087.7514   21255087.9904
  -3343016.71044  -2604945.42744                  20564278.7504   20564278.5994
  -8659736.96744  -6747839.38544                  21690354.2714   21690353.7094
   6372172.78544   4965329.63844                  21374114.2264   21374113.8064
   4830686.19644   3764175.14344                  24273032.2784   24273032.8304
  16910097.90244  13176696.14344                  24441161.0674   24441163.3774
 -13984740.69544 -10897187.63644                  22446363.7664   22446364.6884
  -2800443.19144  -2182161.40044                  23646723.7834   23646724.7014
 96 12  3  0 40  0.0000000  0  8G27G19G31G18G 3G16G 2G10
 -13319450.27444 -10378784.84344                  21245296.4584   21245296.8014
  -3336762.71744  -2600072.17744                  20565468.8124   20565468.8364
  -8641822.98344  -6733880.42044                  21693763.2694   21693762.5184
   6452137.49244   5027639.78244                  21389330.8514   21389330.4294
   4905542.63944   3822504.84444                  24287277.1144   24287276.3134
  17005021.94544  13250662.89344                  24459224.3464   24459226.8544
 -14043431.58944 -10942920.75844                  22435194.9544   22435196.2034
  -2790841.56244  -2174679.59044                  23648550.9374   23648553.9764
 96 12  3  0 40 30.0000000  0  8G27G19G31G18G 3G16G 2G10
 -13370772.07844 -10418775.84344                  21235530.2754   21235530.6624
  -3330314.80244  -2595047.81744                  20566695.7494   20566695.7994
  -8623327.31544  -6719468.19544                  21697282.9204   21697282.0814
   6532457.49844   5090226.78744                  21404615.2184   21404614.8634
   4980806.36744   3881151.92744                  24301599.0924   24301601.6484
  17099863.85944  13324565.68044                  24477271.9804   24477275.3194
 -14101899.48644 -10988480.12144                  22424068.7264   22424070.3894
  -2780764.70244  -2166827.45744                  23650468.3804   23650470.2854
 96 12  3  0 41  0.0000000  0  8G27G19G31G18G 3G16G 2G10
 -13421949.39644 -10458654.25644                  21225791.5884   21225791.9074
  -3323663.94044  -2589865.31544                  20567961.4674   20567961.4154
  -8604231.12944  -6704588.02944                  21700916.9094   21700916.0214
   6613144.63944   5153099.87244                  21419969.5134   21419969.4274
   5056473.46644   3940113.27844                  24315997.8454   24315996.6934
  17194627.49844  13398407.47744                  24495305.2374   24495308.0194
 -14160140.71344 -11033862.85744                  22412985.7564   22412987.5394
  -2770218.59244  -2158609.70444                  23652475.0894   23652478.9684
 96 12  3  0 41 30.0000000  0  8G27G19G31G18G 3G16G 2G10
 -13472959.05744 -10498402.02944                  21216084.8124   21216085.1184
  -3316784.18644  -2584504.45844                  20569270.6004   20569270.5124
  -8584506.49344  -6689218.16444                  21704670.4164   21704669.4284
   6694241.02544   5216291.84844                  21435401.8334   21435401.7234
   5132545.19544   3999389.97344                  24330474.1424   24330474.9034
  17289329.05144  13472200.87644                  24513326.5304   24513329.6244
 -14218107.10744 -11079031.43944                  22401955.2794   22401956.6914
  -2759182.68544  -2150010.30144                  23654575.5054   23654578.5454
 96 12  3  0 42  0.0000000  0  8G27G19G31G18G 3G16G 2G10
 -13523836.86544 -10538047.05544                  21206402.9204   21206403.2474
  -3309702.81644  -2578986.50344                  20570618.2434   20570618.0324
  -8564178.60344  -6673378.23644                  21708538.3444   21708537.8054
   6775727.53244   5279787.81944                  21450908.1404   21450908.0754
   5208984.22344   4058952.84844                  24345019.9194   24345019.3814
  17383926.73444  13545913.32744                  24531328.0134   24531330.9824
 -14275815.89444 -11123999.27744                  22390973.7414   22390974.9184
  -2747683.22744  -2141049.70644                  23656763.6524   23656765.1054
 96 12  3  0 42 30.0000000  0  8G27G19G31G18G 3G16G 2G10
 -13574596.28044 -10577599.83244                  21196743.7804   21196743.8674
  -3302414.62944  -2573307.38644                  20572004.9844   20572005.1004
  -8543240.22744  -6657062.60144                  21712522.9754   21712522.3714
   6857589.64744   5343576.46844                  21466485.6054   21466485.8754
   5285772.95244   4118788.24444                  24359632.4004   24359633.1224
  17478419.23744  13619543.81744                  24549308.9964   24549310.9314
 -14333266.91644 -11168766.27144                  22380041.1534   22380042.3904
  -2735706.29344  -2131717.02344                  23659042.6294   23659044.6234
 96 12  3  0 43  0.0000000  0  8G27G19G31G18G 3G16G 2G10
 -13625233.90044 -10617057.69944                  21187107.7864   21187108.0274
  -3294882.93044  -2567438.51844                  20573438.1064   20573438.3114
  -8521665.04944  -6640250.76144                  21716628.7354   21716627.7624
   6939837.77444   5407665.90744                  21482136.8864   21482136.7174
   5362907.28244   4178892.91344                  24374310.6564   24374310.2014
  17572828.62444  13693109.56644                  24567273.9494   24567276.8064
 -14390435.70344 -11213313.34444                  22369162.1554   22369163.2564
  -2723209.67244  -2121979.37444                  23661420.5794   23661422.6724
 96 12  3  0 43 30.0000000  0  8G27G19G31G18G 3G16G 2G10
 -13675754.87544 -10656424.67444                  21177494.0164   21177494.3594
  -3287098.58644  -2561372.78544                  20574919.5184   20574919.6924
  -8499459.90544  -6622948.02744                  21720854.3474   21720853.3824
   7022461.83444   5472048.28244                  21497860.0304   21497859.7414
   5440365.29444   4239249.82144                  24389050.1864   24389050.7684
  17667158.98644  13766613.71144                  24585224.3184   24585226.7154
 -14447313.16644 -11257633.41244                  22358338.6774   22358339.8344
  -2710180.64244  -2111826.85644                  23663899.9124   23663902.9334
 96 12  3  0 44  0.0000000  0  8G27G19G31G18G 3G16G 2G10
 -13726143.74344 -10695688.70944                  21167905.1614   21167905.4654
  -3279045.15644  -2555097.37644                  20576452.1754   20576452.2504
  -8476624.57644  -6605154.24544                  21725199.4754   21725198.5094
   7105444.29544   5536709.92944                  21513651.3044   21513650.9474
   5518158.54844   4299867.97344                  24403853.7844   24403854.3464
  17761418.63544  13840062.77344                  24603162.0704   24603163.3174
 -14503907.70144 -11301733.01644                  22347569.2554   22347570.1884
  -2696623.88744  -2101263.14144                  23666479.6064   23666481.1874
 96 12  3  0 44 30.0000000  0  8G27G19G31G18G 3G16G 2G10
 -13776398.35344 -10734848.13044                  21158342.0554   21158342.2864
  -3270741.15044  -2548626.71544                  20578032.2404   20578032.1784
  -8453168.10844  -6586876.46544                  21729662.9014   21729662.3914
   7188770.27444   5601639.25344                  21529507.4324   21529507.7624
   5596279.37644   4360741.31844                  24418719.5054   24418718.9714
  17855593.82644  13913446.02044                  24621082.8084   24621084.3784
 -14560226.24444 -11345617.57044                  22336852.0864   22336852.9704
  -2682569.32044  -2090311.51544                  23669154.1994   23669155.5354
 96 12  3  0 45  0.0000000  0  8G27G19G31G18G 3G16G 2G10
 -13826508.09344 -10773894.66744                  21148806.5514   21148806.7124
  -3262197.06644  -2541968.98444                  20579658.0974   20579657.8694
  -8429102.28044  -6568123.85744                  21734242.3414   21734241.8454
   7272464.56644   5666855.58044                  21545433.6204   21545434.0744
   5674736.07044   4421876.42344                  24433649.0654   24433649.7144
  17949667.08344  13986749.82344                  24638984.5064   24638987.0624
 -14616279.48844 -11389295.39544                  22326185.4504   22326186.1324
  -2668056.61944  -2079002.92244                  23671915.9904   23671919.0524
 96 12  3  0 45 30.0000000  0  7G27G19G31G18G 3G 2G10
 -13876437.65644 -10812800.80444                  21139305.4184   21139305.4674
  -3253397.24244  -2535111.97244                  20581332.4764   20581332.5534
  -8404402.79644  -6548877.49544                  21738942.6364   21738942.0344
   7356561.34044   5732385.52444                  21561436.9234   21561437.0684
   5753573.15544   4483307.93344                  24448651.1534   24448652.6674
 -14672058.42744 -11432759.48044                  22315571.0364   22315572.2494
  -2653065.60744  -2067321.62144                  23674768.6114   23674770.0854
 96 12  3  0 46  0.0000000  0  8G27G19G31G18G 3G 7G 2G10
 -13926187.65944 -10851567.01944                  21129838.1594   21129838.2424
  -3244352.47144  -2528064.09144                  20583053.8034   20583053.8684
  -8379067.93544  -6529136.02844                  21743763.7954   21743762.9644
   7441061.08844   5798229.47344                  21577517.0854   21577516.7684
   5832815.12844   4545054.95344                  24463730.4154   24463731.9194
        -0.86954        -0.28754                                  25088630.8574
 -14727569.71044 -11476015.00344                  22305007.3334   22305008.6344
  -2637591.38744  -2055263.79744                  23677713.2284   23677715.7294
 96 12  3  0 46 30.0000000  0  8G27G19G31G18G 3G 7G 2G10
 -13975753.34644 -10890189.61244                  21120406.0834   21120406.3684
  -3235059.08944  -2520822.49144                  20584822.3454   20584822.3354
  -8353092.76544  -6508895.62144                  21748706.6904   21748705.8234
   7525982.74744   5864402.17944                  21593677.1354   21593676.7834
   5912458.51644   4607114.73544                  24478886.0824   24478887.1604
   -105694.27844    -82358.58144                  25068517.6754   25068520.6594
 -14782804.83944 -11519055.34644                  22294496.4174   22294497.6934
  -2621620.44744  -2042818.93044                  23680752.1574   23680753.0314
 96 12  3  0 47  0.0000000  0  8G27G19G31G18G 3G 7G 2G10
 -14025175.64844 -10928700.48044                  21111001.2244   21111001.4214
  -3225536.44644  -2513402.24344                  20586634.4704   20586634.4194
  -8326527.01344  -6488195.01644                  21753761.9854   21753761.3384
   7611283.54144   5930870.31944                  21609909.0444   21609908.7504
   5992458.87144   4669452.68744                  24494110.0124   24494110.6034
   -211454.69844   -164769.14844                  25048392.1824   25048395.8064
 -14837800.12444 -11561908.80644                  22284031.2264   22284032.1994
  -2605170.68444  -2030000.85244                  23683882.2554   23683882.2464
 96 12  3  0 47 30.0000000  0  8G27G19G31G18G 3G 7G 2G10
 -14074446.72844 -10967093.51144                  21101625.1964   21101625.4064
  -3215765.73344  -2505788.69444                  20588493.7974   20588493.7054
  -8299368.52044  -6467032.54044                  21758929.9454   21758929.2294
   7696943.30644   5997618.17644                  21626209.3164   21626209.5374
   6072813.85744   4732066.98144                  24509401.2924   24509401.8564
   -317265.18944   -247218.79544                  25028256.5104   25028263.1264
 -14892536.71044 -11604560.67444                  22273615.1404   22273616.1634
  -2588212.39544  -2016786.60344                  23687109.8874   23687111.9204
 96 12  3  0 48  0.0000000  0  8G27G19G31G18G 3G 7G 2G10
 -14123569.23744 -11005370.77544                  21092277.6014   21092277.7694
  -3205753.78844  -2497987.17444                  20590399.0704   20590398.9994
  -8271647.06344  -6445431.39344                  21764204.9634   21764204.5214
   7782943.01344   6064630.92844                  21642574.7584   21642574.8814
   6153504.58844   4794942.89144                  24524756.1054   24524755.5734
   -423145.59244   -329722.98944                  25008108.0684   25008110.1854
 -14947008.98544 -11647006.59044                  22263249.3484   22263250.2454
  -2570772.61244  -2003197.15044                  23690428.7214   23690428.6704
 96 12  3  0 48 30.0000000  0  8G27G19G31G18G 3G 7G 2G10
 -14172524.82544 -11043517.97044                  21082961.6134   21082961.6154
  -3195481.52444  -2489982.80644                  20592353.5504   20592353.6554
  -8243352.48144  -6423383.65444                  21769589.3274   21769588.8314
   7869293.17444   6131916.75344                  21659006.9584   21659006.6484
   6234534.96544   4858083.46244                  24540175.6394   24540175.2354
   -529100.46544   -412285.25944                  24987945.3034   24987949.1074
 -15001211.42144 -11689242.23844                  22252934.9504   22252936.1894
  -2552848.48044  -1989230.29844                  23693839.2254   23693840.8474
 96 12  3  0 49  0.0000000  0  8G27G19G31G18G 3G 7G 2G10
 -14221320.42244 -11081540.49844                  21073676.1894   21073676.3774
  -3184948.71744  -2481775.41744                  20594357.9084   20594357.9704
  -8214485.42944  -6400889.83244                  21775082.6654   21775082.0164
   7955980.45844   6199465.27144                  21675502.9384   21675502.4424
   6315911.20544   4921493.54744                  24555661.2994   24555660.6944
   -635137.20944   -494911.29544                  24967766.9394   24967771.1794
 -15055149.07144 -11731271.56744                  22242671.0744   22242672.2174
  -2534445.75244  -1974890.52444                  23697341.1824   23697342.4564
 96 12  3  0 49 30.0000000  0  8G27G19G31G18G 3G 7G 2G10
 -14269953.84744 -11119436.65844                  21064421.4604   21064421.6024
  -3174165.71144  -2473373.06644                  20596409.8494   20596409.7364
  -8185034.45344  -6377941.00844                  21780687.0014   21780686.4474
   8043016.24644   6267285.35044                  21692065.0824   21692064.8264
   6397642.77744   4985180.50144                  24571213.8964   24571213.4584
   -741258.88744   -577603.47744                  24947572.6564   24947574.1454
 -15108827.32844 -11773098.77244                  22232456.5094   22232457.7284
  -2515571.41044  -1960183.23244                  23700932.6214   23700933.0424
 96 12  3  0 50  0.0000000  0  8G27G19G31G18G 3G 7G 2G10
 -14318419.70044 -11157202.24544                  21055198.6624   21055198.8734
  -3163130.31344  -2464774.04744                  20598509.9274   20598509.7684
  -8154973.85444  -6354517.14844                  21786407.3804   21786406.8654
   8130427.98644   6335398.38444                  21708698.8654   21708699.1464
   6479746.53344   5049157.46744                  24586838.0964   24586837.5274
   -847454.97144   -660353.63944                  24927364.4464   24927368.9594
 -15162238.22844 -11814717.65044                  22222292.7164   22222294.0624
  -2496219.34844  -1945103.71644                  23704615.5014   23704618.0044
 96 12  3  0 50 30.0000000  0  8G27G19G31G18G 3G 7G 2G10
 -14366718.91644 -11194837.98444                  21046007.5554   21046007.5714
  -3151848.64144  -2455983.13144                  20600656.9074   20600656.7834
  -8124286.16444  -6330604.65444                  21792246.9144   21792245.9574
   8218224.76344   6403811.45144                  21725406.1204   21725406.5634
   6562221.82844   5113423.95844                  24602532.6744   24602532.0314
   -953712.40944   -743151.48944                  24907144.4634   24907146.0704
 -15215385.33744 -11856130.97744                  22212179.1594   22212180.2854
  -2476382.87444  -1929646.72544                  23708389.9084   23708391.7634
 96 12  3  0 51  0.0000000  0  8G27G19G31G18G 3G 7G 2G10
 -14414856.16044 -11232347.51844                  21036847.2964   21036847.3724
  -3140334.99744  -2447011.45444                  20602847.8064   20602847.7664
  -8092984.29144  -6306213.57344                  21798203.5954   21798202.9614
   8306399.49844   6472519.02744                  21742185.3224   21742185.3874
   6645046.74444   5177962.90344                  24618293.9004   24618292.0054
  -1060019.16544   -825987.76344                  24886914.9794   24886917.9354
 -15268259.39144 -11897331.52944                  22202117.7294   22202118.6044
  -2456065.89644  -1913815.30344                  23712256.2834   23712257.4794
 96 12  3  0 51 30.0000000  0  8G27G19G31G18G 3G 7G 2G10
 -14462837.45344 -11269735.52944                  21027716.8044   21027717.0174
  -3128608.87344  -2437874.20744                  20605078.9954   20605079.1494
  -8061082.10144  -6281354.71244                  21804274.3984   21804273.8074
   8394939.38444   6541511.13644                  21759034.0304   21759033.6924
   6728196.11044   5242754.63144                  24634116.8694   24634116.1294
  -1166386.00944   -908870.82644                  24866674.0194   24866676.5444
 -15320870.17344 -11938326.93244                  22192106.3464   22192107.1334
  -2435284.36644  -1897621.90044                  23716210.9604   23716212.1824
 96 12  3  0 52  0.0000000  0  8G27G19G31G18G 3G 7G 2G10
 -14510647.50844 -11306990.10644                  21018618.8684   21018619.1524
  -3116661.16844  -2428564.29744                  20607352.5104   20607352.5694
  -8028576.48444  -6256025.64244                  21810460.0804   21810459.2844
   8483830.21744   6610776.70544                  21775949.3264   21775949.0174
   6811662.99144   5307793.77644                  24649999.9824   24649999.8214
  -1272795.91944   -991787.42044                  24846424.8544   24846427.0174
 -15373200.55244 -11979103.83844                  22182148.0544   22182148.9664
  -2414029.06544  -1881059.31744                  23720255.7774   23720258.4524
 96 12  3  0 52 30.0000000  0  8G27G19G31G18G 3G 7G 2G10
 -14558288.46444 -11344112.91544                  21009553.2714   21009553.5794
  -3104491.37644  -2419081.33644                  20609668.4464   20609668.4134
  -7995484.49444  -6230239.66144                  21816757.0874   21816756.3794
   8573042.51744   6680292.77044                  21792925.8884   21792925.7214
   6895428.56244   5373065.64444                  24665939.8134   24665937.9644
  -1379251.51744  -1074739.62844                  24826166.7934   24826167.4534
 -15425260.76744 -12019670.23144                  22172241.2554   22172242.4934
  -2392311.36844  -1864136.41244                  23724388.4664   23724390.2784
 96 12  3  0 53  0.0000000  0  8G27G19G31G18G 3G 7G 2G10
 -14605768.40344 -11381110.25744                  21000518.2014   21000518.3234
  -3092084.88944  -2409413.93944                  20612029.4794   20612029.3074
  -7961812.10744  -6204001.43144                  21823164.5404   21823163.8924
   8662566.14544   6750051.43144                  21809961.6394   21809961.4124
   6979485.96444   5438564.92544                  24681935.3274   24681933.0324
  -1485767.87944  -1157739.19044                  24805897.2114   24805897.3874
 -15477064.67344 -12060036.90744                  22162383.3234   22162384.5344
  -2370136.44244  -1846857.24244                  23728608.1624   23728610.6734
 96 12  3  0 53 30.0000000  0  8G27G19G31G18G 3G 7G 2G10
 -14653082.96044 -11417978.73144                  20991514.3004   20991514.4234
  -3079421.25744  -2399546.16844                  20614439.2764   20614438.9244
  -7927548.17444  -6177302.25544                  21829684.8424   21829684.1094
   8752404.30044   6820055.17444                  21827057.2844   21827057.2304
   7063850.26944                                                  24697988.7744
  -1592352.56844  -1240792.02444                  24785614.5774   24785617.4564
 -15528617.57644 -12100207.99644                  22152573.2514   22152574.1494
  -2347506.49344  -1829223.53744                  23732914.8144   23732915.3444
 96 12  3  0 54  0.0000000  0  7G27G19G31G18G 7G 2G10
 -14700227.20044 -11454714.49244                  20982543.0364   20982543.3724
  -3066489.90444  -2389469.78544                  20616899.8224   20616899.6134
  -7892684.88944  -6150136.05044                  21836319.1314   21836318.4004
   8842561.38744   6890307.44644                  21844213.7084   21844213.7054
  -1698995.83144  -1323890.55444                  24765320.6464   24765321.0014
 -15579919.77144 -12140183.72544                  22142810.6744   22142811.4014
  -2324418.28144  -1811232.72644                  23737308.0004   23737310.0564
 96 12  3  0 54 30.0000000  0  7G31G27G19G18G 7G 2G10
  -7857232.65644  -6122510.92044                  21843065.5484   21843064.8484
 -14747212.33644 -11491326.28244                  20973602.0694   20973602.2074
  -3053292.22544  -2379185.87144                  20619411.3354   20619411.1804
   8933050.10344   6960818.12244                  21861433.3594   21861433.5134
  -1805710.01944  -1407044.39044                  24745013.6644   24745015.9784
 -15630988.24444 -12179977.33244                  22133092.5944   22133093.6194
  -2300887.09444  -1792896.75044                  23741785.7294   23741785.5844
 96 12  3  0 55  0.0000000  0  7G27G19G31G18G 7G 2G10
 -14793998.38644 -11527782.93744                  20964699.1874   20964699.2154
  -3039802.29744  -2368674.23244                  20621978.4064   20621978.2454
  -7821157.92944  -6094400.72744                  21849930.2334   21849929.1314
   9023917.70844   7031624.03844                  21878724.7864   21878724.8234
  -1912456.50744  -1490223.39944                  24724700.4494   24724702.3854
 -15681781.83744 -12219556.74444                  22123426.8404   22123427.7724
  -2276883.38344  -1774192.57744                  23746353.3114   23746356.1894
 96 12  3  0 55 30.0000000  0  7G31G27G19G18G 7G 2G10
  -7784495.10544  -6065832.27744                  21856906.9584   21856905.9964
 -14840613.09744 -11564106.08144                  20955828.6564   20955828.7874
  -3026065.36944  -2357970.12544                  20624592.5244   20624592.4564
   9115124.74544   7102694.44444                  21896080.7944   21896080.5384
  -2019245.35744  -1573435.44844                  24704379.1304   24704380.3214
 -15732319.83144 -12258936.98544                  22113809.8254   22113810.8464
  -2252435.98544  -1755142.65544                  23751005.7394   23751007.5174
 96 12  3  0 56  0.0000000  0  7G27G19G31G18G 7G 2G10
 -14887050.33044 -11600290.92844                  20946991.8434   20946991.9494
  -3012089.43944  -2347079.78444                  20627252.0904   20627251.9664
  -7747248.30544  -6036808.77944                  21863994.7744   21863994.1714
   9206667.74544   7174026.64244                  21913500.8194   21913500.8644
  -2126063.16544  -1656670.07744                  24684052.3634   24684054.8534
 -15782595.31244 -12298112.66944                  22104242.8394   22104243.7774
  -2227545.52644  -1735747.46544                  23755742.2454   23755742.1644
 96 12  3  0 56 30.0000000  0  7G31G27G19G18G 7G 2G10
  -7709411.22144  -6007325.32744                  21871194.8774   21871194.0284
 -14933296.31644 -11636326.75344                  20938191.4734   20938191.5984
  -2997867.83644  -2335998.01044                  20629958.2994   20629958.2184
   9298545.04544   7245619.33444                  21930984.3954   21930984.4254
  -2232893.49844  -1739914.46044                  24663723.2324   24663726.5814
 -15832590.62544 -12337070.03144                  22094729.0024   22094730.0224
  -2202202.53144  -1715999.64444                  23760564.9144   23760567.5844
 96 12  3  0 57  0.0000000  0  7G27G19G31G18G 7G 2G10
 -14979340.81444 -11672205.57544                  20929429.5974   20929429.7264
  -2983386.13444  -2324713.56144                  20632713.9754   20632713.9204
  -7670970.05244  -5977371.15344                  21878510.0914   21878509.1914
   9390743.08144   7317461.94644                  21948529.0624   21948528.7734
  -2339730.24644  -1823163.89544                  24643392.6054   24643394.7294
 -15882297.73044 -12375802.81844                  22085269.8124   22085270.7774
  -2176395.66844  -1695890.42944                  23765475.6414   23765479.6904
 96 12  3  0 57 30.0000000  0  7G31G27G19G18G 7G 2G10
  -7631942.81244  -5946960.30144                  21885936.7354   21885936.1354
 -15025202.52144 -11707941.96244                  20920702.4524   20920702.5024
  -2968641.06844  -2313223.89444                  20635519.9814   20635519.7704
   9483243.00644   7389539.79844                  21966131.3244   21966131.0294
  -2446594.36244  -1906434.62944                  24623057.0444   24623058.9314
 -15931727.91744 -12414319.81844                  22075863.4194   22075864.1074
  -2150139.15044  -1675430.75144                  23770472.2064   23770474.2784
 96 12  3  0 58  0.0000000  0  7G27G19G31G18G 7G 2G10
 -15070863.23144 -11743521.72544                  20912013.3874   20912013.6974
  -2953613.05844  -2301513.75144                  20638379.6724   20638379.6024
  -7592320.33744  -5916085.63144                  21893476.6114   21893475.9364
   9576065.80144   7461869.23544                  21983794.9704   21983794.6794
  -2553481.84044  -1989723.57844                  24602716.8714   24602717.8054
 -15980867.14344 -12452610.09344                  22066512.5404   22066513.5524
  -2123432.74844  -1654620.57944                  23775554.6644   23775557.4144
 96 12  3  0 58 30.0000000  0  7G31G27G19G18G 7G 2G10
  -7552111.37644  -5884753.96144                  21901128.0224   21901127.3794
 -15116337.33644 -11778956.08044                  20903359.9674   20903360.1454
  -2938309.16944  -2289588.63744                  20641291.8604   20641291.7974
   9669196.55844   7534438.65144                  22001516.9794   22001517.2704
  -2660406.61444  -2073041.58744                  24582369.8534   24582374.3024
 -16029726.28044 -12490682.11044                  22057214.9994   22057215.9794
  -2096277.66844  -1633460.80244                  23780721.9404   23780723.3794
 96 12  3  0 59  0.0000000  0  7G27G19G31G18G 7G 2G10
 -15161622.84744 -11814243.48044                  20894742.2964   20894742.4374
  -2922725.22144  -2277445.29744                  20644257.4974   20644257.1474
  -7511326.76644  -5852973.73544                  21908889.0274   21908888.4084
   9762652.40944   7607261.38644                  22019300.8254   22019301.3874
  -2767373.12044  -2156392.10144                  24562014.8564   24562016.5524
 -16078299.99744 -12528531.72044                  22047971.8314   22047972.7384
  -2068663.45044  -1611943.22244                  23785976.6464   23785979.5534
 96 12  3  0 59 30.0000000  0  7G31G27G19G18G 7G 2G10
  -7469962.69644  -5820741.97944                  21916760.5204   21916759.3664
 -15206706.72944 -11849373.76544                  20886163.1364   20886163.2734
  -2906875.47344  -2265094.84044                  20647273.4894   20647273.2584
   9856459.86844   7680358.09844                  22037152.2864   22037152.0834
  -2874355.50644  -2239754.98444                  24541656.9274   24541660.1244
 -16126582.80044 -12566154.64144                  22038783.8374   22038784.7674
  -2040583.49444  -1590062.74444                  23791319.8084   23791322.3654
 96 12  3  1  0  0.0000000  0  7G27G19G31G18G 7G 2G10
 -15251611.30844 -11884364.33344                  20877618.1314   20877618.3954
  -2890795.57344  -2252565.04544                  20650333.4184   20650333.1854
  -7428024.10744  -5788062.54744                  21924741.3704   21924740.6884
   9950590.58944   7753706.70144                  22055064.9474   22055064.4334
  -2981361.54644  -2323136.30344                  24521294.5884   24521295.4794
 -16174608.91344 -12603577.54044                  22029644.7724   22029645.4424
  -2012042.16444                                                  23796751.1804
 96 12  3  1  0 30.0000000  0  7G31G27G19G18G 7G 2G10
  -7385502.32344  -5754928.67144                  21932833.0014   21932831.9034
 -15296328.20844 -11919208.66044                  20869108.8704   20869108.8614
  -2874488.34944  -2239858.11744                  20653436.5644   20653436.4644
  10045039.74244   7827303.42944                  22073037.7644   22073037.3364
  -3088383.38344  -2406529.91344                  24500928.9304   24500930.4364
 -16222380.33144 -12640801.97444                  22020554.1834   22020555.0734
  -1983016.81444  -1545205.58344                  23802274.5924   23802274.1794
 96 12  3  1  1  0.0000000  0  7G27G19G31G18G 7G 2G10
 -15340872.48144 -11953918.47144                  20860632.3104   20860632.2824
  -2857960.79644  -2226979.50144                  20656581.5844   20656581.4354
  -7342417.00744  -5721355.68544                  21941031.8474   21941031.0774
  10139790.09744   7901134.86644                  22091068.0234   22091067.8644
  -3195433.88344  -2489945.84844                  24480557.8884   24480559.7064
 -16269925.12944 -12677849.81844                  22011506.6754   22011507.4624
  -1953542.64844  -1522238.70644                  23807883.6134   23807882.2024
 96 12  3  1  1 30.0000000  0  7G27G19G31G18G 7G 2G10
 -15385199.43544 -11988458.94344                  20852197.1554   20852197.1914
  -2841154.10444  -2213883.37344                  20659779.7214   20659779.7694
  -7298708.74044  -5687297.29044                  21949348.8274   21949348.2734
  10234873.84444   7975226.08944                  22109161.9154   22109162.0884
  -3302457.09044  -2573340.51344                  24460192.0064   24460195.1004
 -16317200.33444 -12714687.59644                  22002510.5414   22002511.4894
  -1923584.49244  -1498894.71644                  23813584.2734   23813585.8234
 96 12  3  1  2  0.0000000  0  8G27G19G31G18G16G 7G 2G10
 -15429345.02044 -12022858.08544                  20843796.5584   20843796.4414
  -2824067.99744  -2200569.51844                  20663031.2734   20663031.3504
  -7254415.54144  -5652783.08844                  21957777.3844   21957776.8884
  10330235.48744   8049533.85144                  22127308.8264   22127308.7004
        -0.61654        -0.30854                  25234042.2094   25234045.1654
  -3409495.13544  -2656746.69744                  24439822.9874   24439825.8394
 -16364227.59244 -12751332.16344                  21993561.5164   21993562.4424
  -1893177.96544  -1475201.30344                  23819370.6294   23819372.3774
 96 12  3  1  2 30.0000000  0  8G27G19G31G18G16G 7G 2G10
 -15473309.05844 -12057115.76144                  20835430.4624   20835430.3574
  -2806704.19044  -2187039.27244                  20666335.5104   20666335.4704
  -7209571.74644  -5617839.87244                  21966310.6534   21966310.2544
  10425861.90544   8124047.93144                  22145505.9644   22145505.9224
     89296.66344     69581.96244                                  25251035.0744
  -3516563.39444  -2740176.39944                  24419448.3044   24419449.9174
 -16411015.36744 -12787790.12444                  21984658.1314   21984658.7394
  -1862361.61944  -1451188.66944                  23825234.5574   23825235.5944
 96 12  3  1  3  0.0000000  0  8G27G19G31G18G16G 7G 2G10
 -15517125.19444 -12091258.19544                  20827092.5134   20827092.5674
  -2789077.16644  -2173303.92844                  20669689.5814   20669689.5594
  -7164205.61644  -5582489.63044                  21974943.6754   21974942.8364
  10521743.14044   8198760.56444                  22163751.4154   22163751.1054
    178354.47044                                                  25267982.4154
  -3623675.88644  -2823640.57944                  24399065.4344   24399068.2134
 -16457588.79944 -12824081.05944                  21975795.4694   21975796.0454
  -1831185.20744  -1426895.34444                  23831166.9544   23831168.3204
 96 12  3  1  3 30.0000000  0  8G27G19G31G18G16G 7G 2G10
 -15560744.40044 -12125247.18444                  20818791.8564   20818792.0324
  -2771153.48144  -2159337.41544                  20673100.4344   20673100.1994
  -7118267.92344  -5546694.01444                  21983685.6784   21983684.5504
  10617927.36244   8273709.30744                  22182054.8784   22182054.3454
    267228.82144    208230.24844                  25284894.9654   25284893.5434
  -3730782.20344  -2907099.91544                  24378683.7984   24378686.6854
 -16503886.62444 -12860157.23244                  21966985.0914   21966985.7884
  -1799600.52144  -1402283.68244                  23837177.2564   23837181.4504
 96 12  3  1  4  0.0000000  0  8G27G19G31G18G16G 7G 2G10
 -15604196.47744 -12159105.93144                  20810523.1774   20810523.4984
  -2752978.64044  -2145175.19844                  20676559.1504   20676558.9734
  -7071792.43244  -5510479.33644                  21992529.7074   21992528.9134
  10714393.90544   8348878.02844                  22200411.8014   22200411.2774
    355902.23644                                                  25301768.6484
  -3837902.56844  -2990570.19144                  24358299.1754   24358302.4884
 -16549940.01644 -12896042.94844                  21958221.4164   21958222.2854
  -1767638.67844  -1377378.33844                  23843259.6814   23843261.3024
 96 12  3  1  4 30.0000000  0  8G27G19G31G18G16G 7G 2G10
 -15647454.94644 -12192813.81644                  20802291.4554   20802291.6334
  -2734555.31744  -2130819.35544                  20680064.8734   20680064.8154
  -7024755.33544  -5473827.04344                  22001480.3084   22001479.7564
  10811182.16744   8424297.43744                  22218829.9014   22218829.4684
    444408.91344    346292.63344                  25318610.5224   25318620.2034
  -3945004.35544  -3074025.99444                  24337918.1884   24337919.0304
 -16595735.32744 -12931727.56744                  21949506.7334   21949507.5134
  -1735276.42044  -1352161.01644                  23849417.8024   23849420.2404
 96 12  3  1  5  0.0000000  0  8G27G19G31G18G16G 7G 2G10
 -15690487.05844 -12226345.31844                  20794102.7094   20794102.6104
  -2715843.72844  -2116238.88844                  20683625.6544   20683625.3624
  -6977111.37944  -5436701.87444                  22010546.5004   22010546.1894
  10908325.51944   8499993.54144                  22237315.5634   22237315.4224
    532794.75444                                                  25335429.1444
  -4052040.45144  -3157430.62644                  24317549.2544   24317551.6244
 -16641225.60644 -12967174.50144                  21940850.2134   21940850.9024
  -1702459.25844  -1326589.27144                                  23855662.5794
 96 12  3  1  5 30.0000000  0  8G27G19G31G18G16G 7G 2G10
 -15733320.88144 -12259722.31144                  20785951.7374   20785951.5134
  -2696894.95444  -2101473.60844                  20687231.4804   20687231.1554
  -6928901.38844  -5399135.64744                  22019720.7224   22019720.2764
  11005761.88444   8575917.97444                  22255857.1394   22255856.9994
    621014.01644    483907.06444                                  25352216.7784
  -4159054.19544  -3240817.85044                  24297184.4204   24297186.4344
 -16686453.51144 -13002416.98244                  21932243.6824   21932244.1454
  -1669210.11444  -1300680.84044                  23861990.2334   23861993.0314
 96 12  3  1  6  0.0000000  0  8G27G19G31G18G16G 7G 2G10
 -15775942.77544 -12292934.16744                  20777841.1044   20777840.9004
  -2677695.76544  -2086513.19644                  20690884.8634   20690884.6114
  -6880125.46544  -5361128.42844                  22029002.3804   22029001.8034
  11103492.15844   8652071.42544                  22274454.7304   22274455.0564
    709067.28944                                                  25368973.4974
  -4266030.69644  -3324176.05444                  24276827.5444   24276830.7004
 -16731425.26544 -13037459.87044                  21923685.8294   21923686.4124
  -1635509.56344                                                  23868402.5114
 96 12  3  1  6 30.0000000  0  8G27G19G31G18G16G 7G 2G10
 -15818338.42244 -12325969.72144                  20769773.4234   20769773.2874
  -2658222.63444  -2071339.32244                  20694590.5774   20694590.4514
  -6830785.25844  -5322681.50344                  22038391.8544   22038390.7404
  11201506.45144   8728446.19244                  22293106.1964   22293106.4854
    796946.22944                                                  25385696.3414
  -4372971.28944  -3407506.29644                  24256477.5624   24256478.2254
 -16776135.81644 -13072299.22344                  21915177.3664   21915177.9604
  -1601356.73944  -1247808.02644                  23874901.9344   23874907.2544
 96 12  3  1  7  0.0000000  0  8G27G19G31G18G16G 7G 2G10
 -15860523.77844 -12358841.41444                  20761745.8114   20761745.7954
  -2638476.14644  -2055952.44144                  20698348.2134   20698348.0254
  -6780889.48544  -5283801.67244                  22047886.6974   22047886.0714
  11299777.14944   8805020.74744                  22311806.3744   22311806.3764
    884622.62844                                                  25402380.4604
  -4479898.38944  -3490826.02044                  24236130.4214   24236132.6824
 -16820597.34344 -13106944.53844                  21906716.6934   21906717.3924
  -1566778.27344  -1220863.79644                  23881482.0114   23881483.2214
 96 12  3  1  7 30.0000000  0  8G27G19G31G18G16G 7G 2G10
 -15902532.21044 -12391575.24244                  20753751.8204   20753751.9104
  -2618491.80244  -2040380.21744                  20702151.0384   20702150.8124
  -6730487.23344  -5244527.17544                  22057477.7934   22057476.7404
  11398274.20344   8881771.68844                  22330549.6264   22330549.5584
    972049.34044    757441.06644                                  25419016.8574
  -4586842.53744  -3574159.03844                  24215780.0734   24215781.9824
 -16864853.42844 -13141429.76744                  21898295.0744   21898295.9944
  -1531826.75344  -1193628.82644                  23888133.4764   23888136.6834
 96 12  3  1  8  0.0000000  0  8G27G19G31G18G16G 7G 2G10
 -15944356.62744 -12424165.68444                  20745793.0084   20745792.9584
  -2598240.75244  -2024600.17244                  20706004.6864   20706004.3624
  -6679570.11944  -5204851.49644                  22067166.8154   22067166.1824
  11497011.02444   8958709.45644                  22349338.7924   22349338.4484
   1059227.55844                                                  25435606.2564
  -4693796.04944  -3657499.33344                  24195427.9704   24195429.3574
 -16908880.18444 -13175736.30844                  21889917.1724   21889917.9724
  -1496500.13044  -1166101.61144                                  23894855.6354
 96 12  3  1  8 30.0000000  0  8G27G19G31G18G16G 7G 2G10
 -15985960.65644 -12456584.39144                  20737875.7694   20737875.9454
  -2577688.05444  -2008585.07744                  20709915.8254   20709915.5414
  -6628081.15444  -5164730.21944                  22076964.8444   22076963.8754
  11596028.34444   9035865.80044                  22368181.3744   22368180.9944
   1146187.63644                                                  25452153.6634
  -4800729.17044  -3740823.74844                  24175079.4014   24175080.1174
 -16952623.99444 -13209822.37144                  21881592.9524   21881593.6314
  -1460770.25044                                                  23901654.6264
 96 12  3  1  9  0.0000000  0  8G27G19G31G18G16G 7G 2G10
 -16027331.61944 -12488821.48944                  20730003.2654   20730003.3404
  -2556835.97744  -1992336.69844                  20713883.7904   20713883.4404
  -6576010.55544  -5124155.71444                  22086873.6664   22086873.1304
  11695346.07844   9113256.22344                  22387080.9694   22387080.5644
   1232940.88744                                                  25468662.0224
  -4907619.91844  -3824115.15244                  24154738.4414   24154739.7474
 -16996066.96044 -13243674.01544                  21873325.9714   21873326.9514
  -1424620.55944  -1110091.51644                  23908533.7664   23908532.7724
 96 12  3  1  9 30.0000000  0  8G27G19G31G18G16G 7G 2G10
 -16068507.49544 -12520906.56944                  20722167.6244   20722167.9064
  -2535732.00644  -1975892.03944                  20717899.6904   20717899.3204
  -6523408.29344  -5083166.93344                  22096883.5474   22096882.9794
  11794932.18244   9190855.77044                  22406031.4584   22406031.7204
   1319443.55944                                                  25485122.9674
  -5014502.68844  -3907400.32444                  24134398.6344   24134401.6824
 -17039239.85644 -13277315.21444                  21865110.5224   21865111.1094
  -1388083.05144  -1081620.73244                  23915486.8874   23915486.8444
 96 12  3  1 10  0.0000000  0  8G27G19G31G18G16G 7G 2G10
 -16109512.74844 -12552858.69844                  20714364.5844   20714364.6364
  -2514403.96044  -1959272.77544                  20721958.2764   20721957.9744
  -6470274.11544  -5041763.67044                  22106994.3824   22106993.8984
  11894755.07044   9268639.83144                  22425026.9194   22425027.3104
   1405685.38244                                                  25501535.0614
  -5121408.60944  -3990703.56544                  24114054.6954   24114056.2094
 -17082157.44044 -13310757.47044                  21856943.5604   21856944.1054
  -1351175.99744  -1052862.01144                  23922509.9184   23922517.2634
 96 12  3  1 10 30.0000000  0  8G27G19G31G18G16G 7G 2G10
 -16150308.18044 -12584647.32844                  20706601.5054   20706601.4614
  -2492827.13344  -1942459.65544                  20726064.1564   20726063.8844
  -6416584.06244  -4999927.25344                  22117211.4124   22117210.7504
  11994840.98244   9346628.84044                  22444072.5834   22444072.7724
   1491716.52344                                                  25517906.7764
  -5228293.94344  -4073990.77444                  24093715.0044   24093716.1084
 -17124795.15044 -13343981.64544                  21848829.7474   21848830.3964
  -1313877.73444  -1023798.43944                  23929607.3614   23929605.3984
 96 12  3  1 11  0.0000000  0  8G27G19G31G18G16G 7G 2G10
 -16190885.98144 -12616266.37844                  20698879.9834   20698879.9664
  -2470990.92644  -1925444.42344                  20730219.5264   20730219.3004
  -6362364.73444  -4957678.41244                  22127529.0074   22127528.0244
  12095187.17344   9424820.67244                  22463167.8604   22463168.3184
   1577546.14044                                                  25534239.9664
  -5335146.32544  -4157252.27244                  24073382.0474   24073384.1564
 -17167153.05744 -13376987.79144                  21840769.2214   21840770.0834
  -1276192.47144   -994433.30644                  23936778.3274   23936780.2244
 96 12  3  1 11 30.0000000  0  8G27G19G31G18G16G 7G 2G10
 -16231242.77744 -12647713.21844                  20691200.2934   20691200.1264
  -2448877.49344  -1908213.16944                  20734427.5734   20734427.3294
  -6307596.69044  -4915002.00544                  22137951.0914   22137950.6224
  12195789.92344   9503212.41344                  22482312.1114   22482312.0494
   1663191.85644                                                  25550537.6574
  -5441953.44844  -4240478.53444                  24053057.3264   24053059.1044
 -17209227.33044 -13409772.92544                  21832762.7224   21832763.6554
  -1238118.27144   -964765.08844                  23944023.9994   23944026.3794
 96 12  3  1 12  0.0000000  0  8G27G19G31G18G16G 7G 2G10
 -16271347.95344 -12678963.99344                  20683568.4504   20683568.2594
  -2426453.24044  -1890739.72244                  20738694.6614   20738694.3754
  -6252256.29544  -4871879.61144                  22148482.2494   22148481.5664
  12296655.27244   9581808.78044                  22501506.2794   22501505.8224
   1748680.86544                                                  25566806.0434
  -5548681.74544  -4323643.39044                  24032747.7844   24032748.6934
 -17251010.08344 -13442330.90044                  21824811.8134   21824812.7444
  -1199628.94544   -934773.45544                                  23951348.4544
 96 12  3  1 12 30.0000000  0  8G27G19G31G18G16G 7G 2G10
 -16311209.97744 -12710025.29844                  20675982.9744   20675982.7934
  -2403726.93744  -1873030.91044                  20743019.3324   20743019.0204
  -6196375.73044  -4828336.30044                  22159115.9154   22159115.3384
  12397774.69244   9660603.12144                  22520748.5544   22520748.4584
   1833980.80444                                                  25583038.7384
  -5655335.18344  -4406749.90144                  24012452.1984   24012453.7234
 -17292522.30844 -13474678.07644                  21816912.3334   21816913.0134
  -1160737.74344   -904468.61144                  23958749.0794   23958748.1364
 96 12  3  1 13  0.0000000  0  8G27G19G31G18G16G 7G 2G10
 -16350844.00744 -12740908.94444                  20668440.7144   20668440.7654
  -2380702.66544  -1855089.91644                  20747400.7114   20747400.3894
  -6139945.67244  -4784364.82144                  22169853.9364   22169853.4874
  12499156.69644   9739602.06944                  22540040.8734   22540040.7424
   1919072.91244                                                  25599230.4324
  -5761913.26544  -4489797.70244                  23992171.0924   23992172.5714
 -17333775.55444 -13506823.44844                  21809061.9844   21809062.7624
  -1121435.55644   -873843.53944                  23966228.1414   23966230.9834
 96 12  3  1 13 30.0000000  0  8G27G19G31G18G16G 7G 2G10
 -16390257.45944 -12771620.71244                  20660940.5944   20660940.5384
  -2357379.20344  -1836915.78644                  20751839.0034   20751838.8724
  -6082957.05744  -4739958.09844                  22180698.4754   22180698.1484
  12600801.43344   9818805.75744                  22559383.0474   22559383.1704
   2003945.90944                                                  25615380.6694
  -5868420.18544  -4572790.05844                  23971903.4074   23971905.4314
 -17374784.64844 -13538778.57544                  21801258.1194   21801258.8574
  -1081719.34144   -842895.84244                  23973785.5674   23973787.1614
 96 12  3  1 14  0.0000000  0  7G31G18G27G19G 7G 2G10
  -6025441.70744  -4695140.93444                  22191643.0824   22191642.4944
  12702709.51344   9898214.64144                  22578775.4244   22578775.6704
 -16429460.16844 -12802168.26444                  20653480.4664   20653480.4874
  -2333780.09844  -1818526.86944                  20756329.8014   20756329.6224
  -5974883.74644  -4655748.61844                  23951644.2044   23951645.2654
 -17415566.82444 -13570556.88044                  21793497.7074   21793498.2244
  -1041602.91944   -811636.28344                  23981419.7164   23981419.1504
 96 12  3  1 14 30.0000000  0  7G31G27G19G18G 7G 2G10
  -5967415.49444  -4649925.69844                  22202685.0994   22202684.7004
 -16468469.71844 -12832565.30044                  20646057.4004   20646057.4154
  -2309927.77344  -1799940.63744                  20760868.7774   20760868.6164
  12804881.67244   9977829.30644                  22598218.4634   22598218.6984
  -6081318.81444  -4738684.98144                  23931390.0354   23931391.0124
 -17456136.14444 -13602169.32344                  21785777.5824   21785778.1694
  -1001110.61744   -780083.84744                  23989125.3824   23989125.8374
 96 12  3  1 15  0.0000000  0  7G31G18G27G19G 7G 2G10
  -5908893.49644  -4604324.13444                  22213821.4524   22213820.8154
  12907297.06944  10057633.49944                  22617707.4384   22617707.4124
 -16507286.48644 -12862812.12144                  20638670.8274   20638670.7954
  -2285830.76944  -1781163.75344                  20765454.2714   20765453.8794
  -6187738.21844  -4821609.14644                  23911138.9074   23911140.7274
 -17496496.33344 -13633618.80944                  21778097.2644   21778097.9014
   -960261.87344   -748253.67044                  23996898.2504   23996899.9804
 96 12  3  1 15 30.0000000  0  7G31G18G27G19G 7G 2G10
  -5849853.71644  -4558319.10344                  22225056.2974   22225055.3404
  13009971.23344  10137639.32644                  22637245.6304   22637245.7004
 -16545856.10544 -12892866.35744                  20631331.2044   20631331.0684
  -2261443.84344  -1762160.95244                  20770094.9924   20770094.8764
  -6294112.16544  -4904497.86244                  23890896.5514   23890897.5754
 -17536596.42944 -13664865.62344                  21770466.5394   21770467.1044
   -919033.30444   -716127.49344                  24004743.8984   24004746.0904
 96 12  3  1 16  0.0000000  0  7G31G18G27G19G 7G 2G10
  -5790304.16744  -4511916.84644                  22236388.2774   22236387.5714
  13112876.89644  10217825.54544                  22656827.8544   22656828.1214
 -16584185.50944 -12922733.41144                  20624037.3344   20624037.3674
  -2236792.35644  -1742952.00044                  20774785.9024   20774785.6304
  -6400447.65444  -4987356.63544                  23870661.5984   23870663.6994
 -17576445.53244 -13695916.86044                  21762883.5314   21762884.2424
   -877447.92044   -683723.32244                  24012657.3404   24012659.7534
 96 12  3  1 16 30.0000000  0  7G31G18G27G19G 7G 2G10
  -5730258.43844  -4465127.95644                  22247814.9774   22247813.9494
  13215960.67744  10298150.55644                  22676443.8634   22676443.9464
 -16622299.50444 -12952432.61644                  20616784.4234   20616784.3634
  -2211887.46144  -1723545.58544                  20779525.1934   20779524.9344
  -6506758.91744  -5070196.51744                  23850431.1404   23850431.5694
 -17616059.23244 -13726784.67044                  21755345.1384   21755345.6954
   -835537.46644   -651065.84144                  24020632.8444   24020636.9314
 96 12  3  1 17  0.0000000  0  7G31G18G27G19G 7G 2G10
  -5669655.13344  -4417904.59444                  22259347.3194   22259346.6994
  13319262.95944  10378645.83144                  22696101.6534   22696101.8734
 -16660147.05344 -12981924.20144                  20609582.2764   20609582.3464
  -2186663.10444  -1703890.23944                  20784325.3334   20784325.0534
  -6612987.31344  -5152971.84044                  23830216.6974   23830218.5804
 -17655371.02544 -13757417.22444                  21747864.2654   21747864.7444
   -793242.06444   -618108.39944                  24028680.9834   24028683.7594
 96 12  3  1 17 30.0000000  0  7G31G27G19G18G 7G 2G10
  -5608487.62844  -4370241.59744                  22270987.2954   22270986.4254
 -16697736.81144 -13011214.91044                  20602429.1534   20602429.0224
  -2161122.23044  -1683988.25744                  20789185.6044   20789185.3404
  13422793.19344  10459318.72544                  22715803.0734   22715802.9974
  -6719118.41244  -5235671.34644                  23810020.3464   23810020.6644
 -17694397.38044 -13787827.35944                  21740437.8924   21740438.4404
   -750550.70844   -584842.41644                  24036805.0544   24036809.9374
 96 12  3  1 18  0.0000000  0  7G31G18G27G19G 7G 2G10
  -5546780.49744  -4322158.11144                  22282729.6194   22282728.6344
  13526536.66044  10540157.77244                  22735544.8554   22735544.4274
 -16735103.25544 -13040331.60844                  20595318.5814   20595318.4544
  -2135295.94344  -1663863.87444                  20794100.1294   20794099.8254
  -6825171.78444  -5318310.27544                  23789838.9164   23789841.2474
 -17733181.67844 -13818048.87944                  21733057.4204   21733058.0204
   -707478.01144   -551279.26544                  24045001.6304   24045004.2824
 96 12  3  1 18 30.0000000  0  7G31G18G27G19G 7G 2G10
  -5484561.90144  -4273676.07844                  22294569.3524   22294568.1534
  13630496.80344  10621165.66144                  22755327.8484   22755327.7354
 -16772243.30544 -13069271.89344                  20588251.0394   20588250.8324
  -2109186.49144  -1643518.84544                  20799068.6904   20799068.2144
  -6931148.26844  -5400889.33144                  23769672.1224   23769674.1294
 -17771734.46944 -13848090.00244                  21725721.2274   21725721.8004
   -664029.95544   -517423.64444                  24053269.5434   24053270.9654
 96 12  3  1 19  0.0000000  0  7G31G18G27G19G 7G 2G10
  -5421867.24744  -4224823.09844                  22306499.7264   22306499.2284
  13734672.26744  10702341.33844                  22775151.6904   22775152.0634
 -16809159.91144 -13098038.06744                  20581226.0724   20581226.0024
  -2082824.91744  -1622977.35744                  20804085.1104   20804084.6834
  -7037052.85944  -5483412.34944                  23749519.1584   23749521.3804
 -17810087.66044 -13877975.59344                  21718422.9104   21718423.2814
   -620228.76944   -483292.86144                  24061604.8064   24061605.2074
 96 12  3  1 19 30.0000000  0  7G31G18G27G19G 7G 2G10
  -5358713.61944  -4175612.47344                  22318517.3064   22318516.7364
  13839060.64844  10783682.92344                  22795016.1164   22795016.1594
 -16845849.69544 -13126627.49444                  20574244.2834   20574244.0964
  -2056220.01244  -1602246.26144                  20809147.7814   20809147.4714
  -7142880.89444  -5565875.72144                  23729380.9584   23729382.9304
 -17848237.39044 -13907702.64344                  21711163.1084   21711163.6364
   -576080.24944   -448891.42544                  24070005.9934   24070008.2384
 96 12  3  1 20  0.0000000  0  7G31G27G19G18G 7G 2G10
  -5295104.71444  -4126047.08844                  22330621.7264   22330620.9834
 -16882306.09844 -13155035.07044                  20567306.7914   20567306.6064
  -2029368.10444  -1581322.69544                  20814257.3894   20814257.0524
  13943655.51644  10865185.40944                  22814920.0244   22814919.9374
  -7248638.09944  -5648283.90644                  23709256.2554   23709255.8664
 -17886153.97444 -13937248.02444                  21703947.8464   21703948.3804
   -531600.56244   -414231.96044                  24078470.0094   24078471.5764
 96 12  3  1 20 30.0000000  0  7G31G18G27G19G 7G 2G10
  -5231043.13244  -4076128.97044                  22342812.2234   22342811.6464
  14048455.87044  10946848.00744                  22834862.8774   22834862.4884
 -16918528.27044 -13183260.12644                  20560414.0134   20560413.8514
  -2002267.83544  -1560205.60244                  20819414.5454   20819414.2864
  -7354308.25144  -5730624.26944                  23689147.7694   23689148.5664
 -17923808.16644 -13966588.94044                  21696782.4214   21696783.0564
   -486795.88244   -379319.22444                  24086995.8474   24086996.6444
 96 12  3  1 21  0.0000000  0  7G31G18G27G19G 7G 2G10
  -5166512.97244  -4025845.72244                  22355091.9154   22355090.2404
  14153459.31444  11028668.85744                  22854844.1534   22854844.5094
 -16954536.20744 -13211318.24744                  20553561.8914   20553561.7584
  -1974901.73444  -1538881.36644                  20824622.1654   20824621.7974
  -7459894.47244  -5812899.22644                  23669055.5804   23669057.2194
 -17961188.76044 -13995716.66144                  21689669.1194   21689669.7564
   -441663.82844   -344151.39444                  24095584.4334   24095585.8274
 96 12  3  1 21 30.0000000  0  7G31G18G27G19G 7G 2G10
  -5101478.33444  -3975169.37144                  22367467.4384   22367466.4044
  14258689.44044  11110666.35144                  22874868.6084   22874868.9854
 -16990310.63944 -13239194.41344                  20546754.2164   20546753.9254
  -1947237.48744  -1517324.80944                  20829886.4164   20829886.0834
  -7565385.73944  -5895100.21844                  23648981.0514   23648982.8904
 -17998261.71644 -14024604.67144                  21682614.1814   21682614.8904
   -396187.25844   -308715.10244                  24104238.2874   24104239.3554
 96 12  3  1 22  0.0000000  0  7G31G18G27G19G 7G 2G10
  -5035922.34844  -3924086.78044                  22379942.3254   22379941.6994
  14364152.54244  11192845.38144                  22894937.6374   22894938.2574
 -17025838.90644 -13266878.76544                  20539993.3844   20539993.0554
  -1919273.13744  -1495534.40344                  20835207.8274   20835207.5554
  -7670782.32244  -5977227.43144                  23628924.6754   23628925.6944
 -18035036.83344 -14053260.59644                  21675616.2984   21675616.9324
   -350368.24344   -273011.99644                  24112957.4784   24112960.2184
 96 12  3  1 22 30.0000000  0  7G31G27G19G18G 7G 2G10
  -4969825.34744  -3872582.61744                  22392520.0494   22392519.5684
 -17061114.20644 -13294366.00344                  20533280.7524   20533280.4444
  -1891002.99244  -1473505.71844                  20840587.4904   20840587.1644
  14469856.18844  11275211.85244                  22915052.7694   22915053.3094
  -7776071.16644  -6059270.69344                  23608889.1424   23608890.1804
 -18071530.35644 -14081697.09844                  21668671.8244   21668672.2514
   -304184.93044   -237024.99944                  24121745.8064   24121747.1554
 96 12  3  1 23  0.0000000  0  7G31G18G27G19G 7G 2G10
  -4903164.61944  -3820639.18844                  22405205.4074   22405204.6164
  14575807.32044  11357771.16444                  22935214.6834   22935215.0894
 -17096105.26444 -13321631.75544                  20526622.0684   20526621.9094
  -1862406.57244  -1451222.79544                  20846029.3454   20846028.8584
  -7881246.79744  -6141225.74144                  23588875.3594   23588876.3484
 -18107741.14944 -14109913.29044                  21661781.0594   21661781.6204
   -257633.35444   -200751.05844                  24130604.0404   24130607.0034
 96 12  3  1 23 30.0000000  0  7G31G27G19G18G 7G 2G10
  -4835968.47244  -3768278.54844                  22417992.4484   22417991.9014
 -17130815.50344 -13348678.68544                  20520016.9354   20520016.7164
  -1833518.62444  -1428712.70544                  20851526.3454   20851526.0494
  14681979.83544  11440502.97944                  22955418.6884   22955418.9384
  -7986328.58444  -6223107.66044                  23568879.1684   23568879.5454
 -18143697.03544 -14137930.84744                  21654938.9354   21654939.5714
   -210739.55644   -164210.45644                  24139527.7014   24139530.4104
 96 12  3  1 24  0.0000000  0  7G31G18G27G19G 7G 2G10
  -4768288.52544  -3715540.92044                  22430871.5894   22430871.1764
  14788323.98844  11523368.54644                  22975655.1274   22975655.5764
 -17165290.49344 -13375542.30244                  20513456.5494   20513456.4724
  -1804368.46144  -1405998.28844                  20857073.4514   20857073.2934
  -8091347.86944  -6304940.88644                  23548894.2074   23548895.0704
 -18179445.37544 -14165786.67744                  21648136.2804   21648136.8664
   -163534.93244   -127427.63644                  24148510.4904   24148513.5984
 96 12  3  1 24 30.0000000  0  7G31G27G19G18G 7G 2G10
  -4700141.37744  -3662439.24444                  22443839.6214   22443838.8454
 -17199523.81444 -13402217.60544                  20506942.0704   20506941.9624
  -1774937.54544  -1383065.10244                  20862673.9164   20862673.5024
  14894838.54044  11606366.88444                  22995924.1794   22995923.7524
  -8196299.48544  -6386721.37344                  23528922.2514   23528925.2404
 -18214984.06744 -14193479.14544                  21641373.4784   21641373.8084
   -116026.23944    -90407.87444                  24157551.1564   24157554.1714
 96 12  3  1 25  0.0000000  0  7G31G18G27G19G 7G 2G10
  -4631539.75244  -3608983.42844                  22456893.9984   22456893.4194
  15001528.85244  11689502.17444                  23016226.6744   23016226.3234
 -17233490.70744 -13428685.30244                  20500478.4374   20500478.5304
  -1745205.49444  -1359897.26944                  20868331.9874   20868331.5254
  -8301160.33344  -6468431.11944                  23508967.5554   23508969.5014
 -18250295.36944 -14220994.42744                  21634653.9194   21634654.3164
    -68223.44244    -53158.96144                  24166647.8384   24166648.2924
 96 12  3  1 25 30.0000000  0  7G31G27G19G18G 7G 2G10
  -4562489.01644  -3555177.65544                  22470033.9284   22470033.5144
 -17267191.84344 -13454945.91644                  20494065.4014   20494065.3004
  -1715165.44444  -1336489.43944                  20874048.3284   20874047.8874
  15108399.40944  11772777.91944                  23036563.6204   23036563.1924
  -8405903.66144  -6550049.30644                  23489035.5134   23489036.6714
 -18285383.40544 -14248335.73644                  21627976.8884   21627977.4534
    -20109.25044    -15667.39044                  24175803.5234   24175804.3774
 96 12  3  1 26  0.0000000  0  7G31G18G27G19G 7G 2G10
  -4492988.72444  -3501021.57344                  22483259.2574   22483259.2614
  15215451.55644  11856195.16444                  23056934.8204   23056934.8234
 -17300624.62044 -13480997.42044                  20487703.3564   20487703.2404
  -1684810.55644  -1312836.27744                  20879824.6314   20879824.4704
  -8510506.09944  -6631557.68444                  23469130.6814   23469131.7054
 -18320239.60444 -14275496.39544                  21621343.9774   21621344.6374
     28326.27944     22074.55244                  24185020.6074   24185021.4784
 96 12  3  1 26 30.0000000  0  7G31G27G19G18G 7G 2G10
  -4423032.61144  -3446510.31144                  22496571.6234   22496570.3414
 -17333786.47044 -13506837.81344                  20481392.8124   20481392.6794
  -1654158.75444  -1288951.75044                  20885657.3754   20885657.1594
  15322680.98544  11939750.54944                  23077339.8514   23077339.9074
  -8614966.39644  -6712955.29644                  23449252.7894   23449253.9314
 -18354860.37844 -14302473.60544                  21614755.9084   21614756.5534
     77084.53744     60068.01244                  24194298.7254   24194300.6234
 96 12  3  1 27  0.0000000  0  7G31G18G27G19G 7G 2G10
  -4352595.80144  -3391624.48144                  22509975.1854   22509974.7144
  15430095.18044  12023449.91144                  23097779.9104   23097780.3354
 -17366670.89244 -13532462.02944                  20475135.0954   20475134.9614
  -1623211.50744  -1264837.00944                  20891546.6014   20891546.2444
  -8719264.57844  -6794226.55944                  23429405.4734   23429406.1094
 -18389223.39844 -14329249.96244                  21608216.8654   21608217.3564
    126186.40544     98329.17544                  24203642.9634   24203644.3864
 96 12  3  1 27 30.0000000  0  7G31G27G19G18G 7G 2G10
  -4281672.76244  -3336359.76944                  22523471.7224   22523470.7614
 -17399289.37444 -13557879.01844                  20468928.0374   20468927.8164
  -1591978.66644  -1240499.72744                  20897489.9754   20897489.4984
  15537685.61044  12107286.59144                  23118253.6984   23118253.8084
  -8823428.34144  -6875393.05644                  23409583.5654   23409584.5134
 -18423330.06044 -14355826.56244                  21601726.4324   21601726.8674
    175635.56144    136860.98844                  24213052.5924   24213056.7954
 96 12  3  1 28  0.0000000  0  7G31G27G19G18G 7G 2G10
  -4210251.23144  -3280706.62644                  22537062.6814   22537061.9854
 -17431621.29244 -13583072.71244                  20462775.5284   20462775.2934
  -1560461.38744  -1215940.81044                  20903487.4454   20903486.9344
  15645458.79544  12191265.68744                  23138762.3244   23138762.3164
  -8927471.62544  -6956465.69044                  23389784.5154   23389786.3634
 -18457157.46744 -14382185.56344                  21595289.2154   21595289.6064
    225435.53344    175666.17344                  24222529.0124   24222530.2214
 96 12  3  1 28 30.0000000  0  6G31G18G 7G 2G27G19
  -4138351.42944  -3224680.80144                  22550744.7274   22550744.0234
  15753393.14244  12275370.35644                  23159301.7134   23159301.9074
  -9031420.00244  -7037464.34844                  23370003.7544   23370004.6744
 -18490731.50844 -14408347.13344                  21588900.3194   21588900.8334
 -17463683.66644 -13608056.37044                  20456674.2144   20456673.9534
  -1528682.39444  -1191177.95944                  20909534.9064   20909534.4254
 96 12  3  1 29  0.0000000  0  6G31G18G 7G 2G27G19
  -4065986.46744  -3168292.51744                  22564515.2824   22564514.3634
  15861495.09944  12359605.63844                  23179872.7774   23179873.0114
  -9135260.26444  -7118378.75644                  23350243.5274   23350245.2134
 -18524054.12044 -14434312.78644                  21582559.2894   21582559.8344
 -17495471.10444 -13632825.79744                  20450625.2454   20450624.9874
  -1496627.74544  -1166200.31044                  20915634.6064   20915634.2994
 96 12  3  1 29 30.0000000  0  6G31G27G19G18G 7G 2
  -3993182.98344  -3111562.51644                  22578369.1364   22578368.2704
 -17526989.16544 -13657385.31644                  20444627.5514   20444627.3394
  -1464304.65244  -1141013.48244                  20921785.4214   20921784.9994
  15969758.79244  12443966.94644                  23200474.5264   23200475.0044
  -9239001.58844  -7199216.07144                  23330502.5604   23330504.4484
 -18557145.80944 -14460098.49744                  21576262.0894   21576262.4534
 96 12  3  1 30  0.0000000  0  7G31G27G19G18G 7G 2G15
  -3919963.69044  -3054508.50944                  22592302.2494   22592301.3554
 -17558262.56244 -13681754.18844                  20438676.3834   20438676.0944
  -1431723.76444  -1115625.77544                  20927985.4384   20927985.1994
  16078177.53044  12528449.06744                  23221105.9744   23221106.5874
  -9342631.98444  -7279966.96044                  23310782.2734   23310783.4774
 -18590030.30044 -14485722.75544                  21570004.3514   21570004.7974
        -0.92154        -0.57754                  25223436.0784   25223437.8794
 96 12  3  1 30 30.0000000  0  7G31G27G19G18G 7G 2G15
  -3846303.84844  -2997111.22544                  22606319.4384   22606318.8544
 -17589267.49644 -13705913.86844                  20432776.3084   20432776.1474
  -1398832.47344  -1089996.19844                  20934244.5004   20934244.1014
  16186788.29444  12613080.81944                  23241774.0984   23241774.1174
  -9446098.18844  -7360589.87944                  23291092.8764   23291095.0584
 -18622683.18844 -14511166.54244                  21563790.7284   21563791.1814
    -71409.39544    -55643.49244                  25209847.3124   25209849.6564
 96 12  3  1 31  0.0000000  0  7G 2G27G19G31G18G 7G15
 -18655089.96544 -14536418.55444                  21557623.8944   21557624.3664
 -17619993.05344 -13729855.85244                  20426929.4224   20426929.2134
  -1365617.15744  -1064114.13244                  20940565.0674   20940564.6904
  -3772202.02344  -2939369.53544                  22620420.4524   22620419.4474
  16295590.87844  12697862.03744                  23262478.6174   23262478.0064
  -9549406.18544  -7441089.52444                  23271433.6554   23271435.5004
   -142742.34044   -111227.62144                  25196272.7564   25196274.7274
 96 12  3  1 31 30.0000000  0  7G 2G27G19G31G18G 7G15
 -18687276.18544 -14561498.70244                  21551499.0904   21551499.5724
 -17650461.41144 -13753597.42244                  20421131.4784   20421131.3914
  -1332101.36444  -1037997.93044                  20946942.9414   20946942.5244
  -3697665.31844  -2881288.97744                  22634604.2754   22634603.4234
  16404559.17844  12782772.39144                  23283214.7254   23283214.9314
  -9652583.05744  -7521487.00444                  23251799.7224   23251800.9534
   -214020.06944   -166768.76744                  25182709.7034   25182710.1034
 96 12  3  1 32  0.0000000  0  7G 2G27G19G31G18G 7G15
 -18719226.93044 -14586395.36444                  21545418.9734   21545419.3634
 -17680671.68644 -13777137.88744                  20415382.6674   20415382.4694
  -1298265.27944  -1011632.14644                  20953381.8724   20953381.4704
  -3622673.72944  -2822853.96044                  22648874.6084   22648872.9524
  16513691.55444  12867810.59544                  23303981.5894   23303982.1524
  -9755620.16344  -7601775.56444                  23232192.4164   23232192.6774
   -285221.81544   -222250.64944                  25169160.2394   25169159.4724
 96 12  3  1 32 30.0000000  0  7G 2G27G19G31G18G 7G15
 -18750924.64944 -14611094.86644                  21539387.2264   21539387.5484
 -17710609.38244 -13800465.95644                  20409685.7814   20409685.4974
  -1264105.44744   -985014.09744                  20959882.2814   20959881.7394
  -3547211.47844  -2764052.20244                  22663234.5274   22663233.9264
  16622983.39744  12952973.06744                  23324778.8014   23324779.9214
  -9858519.58544  -7681956.83544                  23212611.5494   23212611.9734
   -356336.00344   -277664.30844                  25155628.0464   25155628.5264
 96 12  3  1 33  0.0000000  0  7G 2G27G19G31G18G 7G15
 -18782363.05144 -14635592.29944                  21533404.7024   21533405.0614
 -17740286.02944 -13823590.60944                  20404038.6024   20404038.2204
  -1229637.28444   -958155.78844                  20966441.1854   20966440.7534
  -3471282.51744  -2704886.76344                  22677683.3184   22677682.2064
  16732418.76444  13038247.37244                  23345603.7594   23345604.6374
  -9961288.27144  -7762036.24344                  23193055.1354   23193056.4884
   -427364.52444   -333011.18844                  25142111.6524   25142114.0634
 96 12  3  1 33 30.0000000  0  7G 2G27G19G31G18G 7G15
 -18813546.84744 -14659891.33744                  21527470.5274   21527471.0224
 -17769701.11044 -13846511.44744                  20398441.0404   20398440.5744
  -1194856.13944   -931053.59444                  20973059.8154   20973059.6044
  -3394881.26244  -2645353.31544                  22692222.0314   22692220.9594
  16842010.03444  13123643.15844                  23366458.6294   23366459.2274
 -10063894.32944  -7841988.92144                  23173529.5474   23173529.9914
   -498290.25344   -388277.97644                  25128614.6784   25128614.7384
 96 12  3  1 34  0.0000000  0  7G 2G31G27G19G18G 7G15
 -18844473.30544 -14683989.85644                  21521585.3604   21521585.9834
  -3318040.41844  -2585477.32344                  22706844.1984   22706843.2264
 -17798855.61644 -13869229.24044                  20392893.1004   20392892.7664
  -1159776.65444   -903718.92944                  20979735.5104   20979734.9774
  16951731.61044  13209140.48044                  23387338.0994   23387337.8964
 -10166340.80744  -7921817.26044                  23154034.3114   23154036.1254
   -569117.66044   -443468.15044                  25115136.4624   25115137.3564
 96 12  3  1 34 30.0000000  0  7G27G19G31G18G 7G 2G15
 -17827719.97044 -13891720.93644                  20387400.2874   20387400.0094
  -1124404.16344   -876155.94844                  20986466.7374   20986466.3314
  -3240767.06544  -2525264.31344                  22721548.8504   22721547.6234
  17061592.15944  13294746.08444                  23408243.9544   23408243.8504
 -10268608.57244  -8001506.35344                  23134573.7344   23134574.9034
 -18875134.36944 -14707881.57544                  21515750.7064   21515751.2854
   -639842.85044   -498578.64744                  25101677.7104   25101680.4674
 96 12  3  1 35  0.0000000  0  7G27G19G31G18G 7G 2G15
 -17856292.64444 -13913985.35044                  20381963.0734   20381962.9624
  -1088756.30944   -848378.39944                  20993250.0554   20993249.7514
  -3163086.67744  -2464734.13444                  22736330.8454   22736329.9914
  17171579.08044  13380450.16344                  23429173.7174   23429173.3814
 -10370707.22944  -8081063.66244                  23115145.2684   23115146.0744
 -18905560.28644 -14731590.06544                  21509960.7794   21509961.2944
   -710478.49544   -553619.41344                  25088236.2394   25088237.8994
 96 12  3  1 35 30.0000000  0  7G27G19G31G18G 7G 2G15
 -17884556.91444 -13936009.44744                  20376584.6114   20376584.3794
  -1052831.93144   -820385.37644                  21000086.0294   21000085.7304
  -3085006.12144  -2403892.13144                  22751189.1934   22751188.5934
  17281693.23044  13466253.39244                  23450127.6264   23450127.2924
 -10472639.45144  -8160491.29144                  23095748.3464   23095748.7674
 -18935769.99144 -14755130.07744                  21504211.8664   21504212.3284
   -781028.16944   -608593.15044                  25074811.9954   25074811.8524
 96 12  3  1 36  0.0000000  0  7G27G19G31G18G 7G 2G15
 -17912530.14144 -13957806.75644                  20371261.4844   20371261.2654
  -1016638.65444   -792182.82044                  21006973.5264   21006973.1674
  -3006539.30644  -2342749.15644                  22766121.0614   22766120.1824
  17391922.06644  13552145.97744                  23471103.3074   23471104.1374
 -10574428.64744  -8239807.47744                  23076378.3954   23076379.3494
 -18965768.75544 -14778505.71944                  21498503.4274   21498503.8684
   -851507.36344   -663511.98544                  25061400.5764   25061399.1854
 96 12  3  1 36 30.0000000  0  7G27G19G31G18G 7G 2G15
 -17940213.99244 -13979378.58144                  20365993.5214   20365993.1914
   -980154.91344   -763753.93244                  21013916.4774   21013915.9984
  -2927657.96944  -2281283.17844                  22781131.5724   22781130.9624
  17502294.44444  13638150.42044                  23492106.5114   23492106.8934
 -10676066.45844  -8319005.71444                  23057037.2844   23057038.8004
 -18995553.65244 -14801714.70944                  21492835.5584   21492836.0514
   -921898.44044   -718362.12444                  25048005.1234   25048003.1364
 96 12  3  1 37  0.0000000  0  7G27G19G31G18G 7G 2G15
 -17967630.71544 -14000742.25544                  20360776.2854   20360775.9114
   -943370.39344   -735090.66744                  21020916.1064   21020915.7374
  -2848358.76844  -2219491.59044                  22796221.7024   22796221.0984
  17612804.37244  13724262.04944                  23513135.8654   23513136.0184
 -10777562.65544  -8398093.60344                  23037722.9514   23037723.6634
 -19025132.98644 -14824763.52044                  21487206.8984   21487207.2114
   -992198.95544   -773141.75644                  25034626.7954   25034628.5284
 96 12  3  1 37 30.0000000  0  7G27G19G31G18G 7G 2G15
 -17994781.97944 -14021899.07944                  20355609.5424   20355609.2174
   -906256.10044   -706170.43544                  21027978.4634   21027978.1294
  -2768633.97044  -2157368.36244                  22811392.8214   22811391.5194
  17723463.00944  13810489.54944                  23534193.7594   23534194.2284
 -10878892.87044  -8477052.15244                  23018440.2834   23018441.2734
 -19054477.90044 -14847629.66444                  21481622.7074   21481623.0134
  -1062391.37344   -827837.06044                  25021269.5254   25021270.9284
 96 12  3  1 38  0.0000000  0  7G27G19G31G18G 7G 2G15
 -18021676.04844 -14042855.48944                  20350491.6884   20350491.5234
   -868820.45744   -676999.80044                  21035102.3784   21035101.8354
  -2688472.41844  -2094904.80544                  22826647.0704   22826646.6764
  17834277.09444  13896838.17144                  23555280.9814   23555281.4854
 -10980051.87644  -8555877.29744                  22999190.6634   22999191.0434
 -19083578.13344 -14870305.15244                  21476085.0354   21476085.4194
  -1132469.25344   -882443.19444                  25007934.4734   25007937.4064
 96 12  3  1 38 30.0000000  0  7G27G19G31G18G 7G 2G15
 -18048270.61744 -14063578.51944                  20345430.8244   20345430.7474
   -831059.35844   -647575.56844                  21042288.3154   21042287.7424
  -2607869.61944  -2032097.42944                  22841985.1944   22841984.2724
  17945245.52744  13983307.07444                  23576397.2434   23576396.7524
 -11081024.32644  -8634557.09044                  22979976.4284   22979976.6324
 -19112432.07444 -14892788.73044                  21470594.1664   21470594.6884
  -1202419.92944   -936950.16744                  24994623.6994   24994626.3774
 96 12  3  1 39  0.0000000  0  7G27G19G31G18G 7G 2G15
 -18074540.96944 -14084048.91444                  20340431.7884   20340431.5694
   -792988.52444   -617909.98544                  21049533.0354   21049532.4644
  -2526849.96544  -1968965.23144                  22857402.6424   22857401.6414
  18056345.69744  14069878.61944                  23597539.2294   23597539.6344
 -11181802.38144  -8713085.39744                  22960798.7494   22960799.4164
 -19141038.04544 -14915079.08244                  21465150.5864   21465151.0754
  -1272245.36144   -991359.55044                  24981336.4334   24981334.6294
 96 12  3  1 39 30.0000000  0  7G27G19G31G18G 7G 2G15
 -18100471.70844 -14104254.67444                  20335497.2574   20335497.0074
   -754617.12044   -588010.18744                  21056834.5254   21056834.1464
  -2445415.47244  -1905509.77444                  22872899.1504   22872899.3904
  18167562.79544  14156541.27744                  23618703.4484   23618702.8204
 -11282387.83644  -8791463.63144                  22941657.7424   22941659.0194
 -19169388.92944 -14937170.66644                  21459755.8084   21459756.2634
  -1341941.44744  -1045668.14944                  24968073.0684   24968073.3424
 96 12  3  1 40  0.0000000  0  7G27G19G31G18G 7G 2G15
 -18126058.08444 -14124192.10444                  20330628.4344   20330628.0904
   -715965.19744   -557891.79944                  21064189.6464   21064189.4714
  -2363576.06344  -1841738.80644                  22888472.5594   22888471.6604
  18278869.24844  14243273.56744                  23639884.5864   23639885.0124
 -11382797.49144  -8869704.88944                  22922550.1734   22922551.2994
 -19197510.61444 -14959083.65444                  21454404.4394   21454404.8574
  -1411512.89644  -1099879.63744                  24954833.9464   24954834.5494
 96 12  3  1 40 30.0000000  0  7G27G19G31G18G 7G 2G15
 -18151298.32244 -14143859.81444                  20325825.3194   20325824.9914
   -677034.11944   -527555.89144                  21071598.2084   21071597.7624
  -2281353.35644  -1777669.16144                  22904119.0534   22904118.4054
  18390233.43544  14330050.85044                  23661076.3014   23661076.3404
 -11483031.95244  -8947809.62044                  22903476.2964   22903476.9714
 -19225424.07244 -14980834.38344                  21449092.6764   21449093.0274
  -1480960.64544  -1153994.73244                  24941618.7044   24941620.0834
 96 12  3  1 41  0.0000000  0  7G27G19G31G18G 7G 2G15
 -18176219.27944 -14163278.73344                  20321082.9884   20321082.6264
   -637808.14444   -496990.19844                  21079062.7464   21079062.2594
  -2198726.17244  -1713284.34044                  22919842.2714   22919841.4674
  18501670.20844  14416884.68344                  23682281.6224   23682281.7554
 -11583081.55644  -9025770.30844                  22884437.4404   22884437.8804
 -19253114.45244 -15002411.28344                  21443823.4964   21443823.8164
  -1550267.50744  -1208000.03344                  24928430.0124   24928430.0594
 96 12  3  1 41 30.0000000  0  7G27G19G31G18G 7G 2G15
 -18200849.69444 -14182471.25644                  20316396.0204   20316395.7304
   -598281.56144   -466190.26244                  21086584.0684   21086583.7434
  -2115686.18644  -1648577.85544                  22935644.3134   22935643.1174
  18613192.25744  14503784.98444                  23703503.3044   23703503.7954
 -11682952.46544  -9103591.75344                  22865432.7114   22865432.8124
 -19280603.66844 -15023831.43444                  21438592.2514   21438592.7344
  -1619439.14944  -1261899.99844                  24915267.2354   24915267.9864
 96 12  3  1 42  0.0000000  0  7G27G19G31G18G 7G 2G15
 -18225186.84644 -14201435.26344                  20311764.8714   20311764.5134
   -558454.17344   -435155.92844                  21094162.9374   21094162.7934
  -2032239.56044  -1583554.50244                  22951523.7704   22951523.0414
  18724829.94744  14590775.38844                  23724746.9924   23724746.5084
 -11782629.99644  -9181262.50544                  22846464.4254   22846464.6164
 -19307893.99144 -15045096.60544                  21433399.0304   21433399.4004
  -1688473.78444  -1315693.19944                  24902130.3054   24902130.4584
 96 12  3  1 42 30.0000000  0  7G27G19G31G18G 7G 2G15
 -18249246.68844 -14220183.18444                  20307186.3534   20307186.0804
   -518331.38744   -403891.41744                  21101798.3694   21101797.8184
  -1948398.39844  -1518223.71744                  22967478.2024   22967477.3324
  18836602.73244  14677871.04744                  23746017.3104   23746017.8164
 -11882117.68044  -9258785.34244                  22827532.4704   22827533.0984
 -19334968.26944 -15066193.42944                  21428246.8714   21428247.4434
  -1757375.99244  -1369383.19244                  24889018.5704   24889019.9184
 96 12  3  1 43  0.0000000  0  7G27G19G31G18G 7G 2G15
 -18273041.00044 -14238724.19944                  20302658.5224   20302658.2024
   -477904.47844   -372389.93744                  21109491.5274   21109490.7544
  -1864171.97344  -1452592.73044                  22983506.0364   22983505.3974
  18948519.41344  14765078.82744                  23767314.9834   23767314.2344
 -11981421.83744  -9336165.16644                  22808635.4294   22808637.1444
 -19361809.63144 -15087108.76444                  21423139.1894   21423139.5894
  -1826147.40344  -1422971.27544                  24875932.2914   24875931.7614
 96 12  3  1 43 30.0000000  0  7G27G19G31G18G 7G 2G15
 -18296526.82744 -14257024.83744                  20298189.1804   20298188.9244
   -437163.61344   -340643.81444                  21117243.8914   21117243.2994
  -1779561.82444  -1386662.75044                  22999606.8624   22999605.9964
  19060581.23944  14852399.72744                  23788639.6574   23788640.2194
 -12080528.43044  -9413391.04644                  22789776.1154   22789777.1744
 -19388398.66844 -15107827.48144                  21418079.5064   21418079.9134
  -1894772.11344  -1476445.06444                  24862873.4204   24862873.5774
 96 12  3  1 44  0.0000000  0  7G27G19G31G18G 7G 2G15
 -18319700.48544 -14275082.22544                  20293779.4714   20293779.2264
   -396120.32044   -308662.02544                  21125054.0274   21125053.7594
  -1694585.00344  -1320447.02544                  23015777.3974   23015776.3534
  19172760.38044  14939812.03144                  23809986.2244   23809986.6794
 -12179430.93344  -9490457.90244                  22770955.5884   22770956.9564
 -19414727.77344 -15128343.65144                  21413069.1664   21413069.6664
  -1963250.33644  -1529804.67444                  24849842.2224   24849840.8234
 96 12  3  1 44 30.0000000  0  7G27G19G31G18G 7G 2G15
 -18342585.87544 -14292914.98844                  20289424.5654   20289424.2154
   -354780.28944   -276449.01044                  21132920.9024   21132920.5934
  -1609254.34544  -1253955.60244                  23032015.1444   23032014.6154
  19285012.15044  15027280.92744                  23831346.3664   23831348.1814
 -12278141.56344  -9567375.24344                  22752171.7174   22752172.8284
 -19440812.51444 -15148669.40944                  21408105.4874   21408105.8694
  -2031591.91044  -1583057.83144                  24836837.5634   24836837.8694
 96 12  3  1 45  0.0000000  0  7G27G19G31G18G 7G 2G15
 -18365163.27844 -14310507.76644                  20285128.2544   20285127.8464
   -313138.25044   -244000.66944                  21140845.3734   21140845.0154
  -1523557.94044  -1187179.17644                  23048322.7344   23048321.8904
  19397323.21644  15114796.02844                  23852718.1724   23852719.7964
 -12376652.03544  -9644136.61644                  22733425.7514   22733426.7614
 -19466660.10544 -15168810.37444                  21403186.8284   21403187.1814
  -2099787.03644  -1636196.87944                  24823859.8734   24823861.5804
 96 12  3  1 45 30.0000000  0  7G27G19G31G18G 7G 2G15
 -18387426.18244 -14327855.47944                  20280891.7184   20280891.3174
   -271212.29244   -211331.09244                  21148823.4724   21148823.0754
  -1437501.47344  -1120122.17644                  23064698.6844   23064698.1034
  19509694.44144  15202358.02144                  23874102.1034   23874102.4554
 -12474955.04044  -9720736.32344                  22714719.3284   22714719.7114
 -19492284.95244 -15188777.77144                  21398310.4484   21398310.8954
  -2167837.23544  -1689222.98344                  24810909.8764   24810909.3854
 96 12  3  1 46  0.0000000  0  7G27G19G31G18G 7G 2G15
 -18409372.43544 -14344956.45144                  20276715.4744   20276715.0814
   -228984.58644   -178426.38844                  21156858.9394   21156858.5134
  -1351087.31244  -1052786.45544                  23081142.7954   23081141.6364
  19622143.72344  15289980.83144                  23895501.0274   23895501.6094
 -12573031.13444  -9797159.22344                  22696056.1744   22696056.7494
 -19517685.19444 -15208570.15244                  21393477.0474   21393477.3634
  -2235729.30444  -1742125.89244                  24797990.1764   24797990.1054
 96 12  3  1 46 30.0000000  0  7G27G19G31G18G 7G 2G15
 -18430987.37544 -14361799.25644                  20272602.2284   20272601.8974
   -186450.06644   -145282.60944                  21164953.1534   21164952.6584
  -1264312.52944   -985169.73944                  23097655.3844   23097654.8814
  19734673.72944  15377666.54844                  23916915.0564   23916914.5904
 -12670902.52544  -9873422.61744                  22677431.7474   22677432.2434
 -19542859.34544 -15228186.36144                  21388686.4504   21388686.7864
  -2303456.98144  -1794900.68844                  24785102.2124   24785098.9514
 96 12  3  1 47  0.0000000  0  7G27G19G31G18G 7G 2G15
 -18452264.79244 -14378379.05544                  20268553.2464   20268552.9894
   -143616.96344   -111906.16744                  21173104.0914   21173103.6254
  -1177189.83644   -917281.92844                  23114234.3814   23114234.4544
  19847279.46344  15465411.26444                  23938342.9554   23938342.4504
 -12768587.91744  -9949541.08244                  22658842.8344   22658844.1664
 -19567825.81344 -15247640.73944                  21383935.5334   21383935.9994
  -2371024.60444  -1847550.72744                  24772244.9484   24772244.4274
 96 12  3  1 47 30.0000000  0  7G27G19G31G18G 7G 2G15
 -18473197.26244 -14394690.06344                  20264569.9354   20264569.6974
   -100473.96344    -78288.24744                  21181313.8294   21181313.4134
  -1089718.99644   -849122.83844                  23130879.3854   23130879.0174
  19959967.38144  15553220.01444                  23959786.2834   23959786.0484
 -12866076.10744 -10025505.87444                  22640291.5524   22640292.0964
 -19592582.84044 -15266931.91844                  21379224.4374   21379224.8034
  -2438419.89244  -1900066.54844                  24759419.8524   24759420.0114
 96 12  3  1 48  0.0000000  0  7G27G19G31G18G 7G 2G15
 -18493795.03544 -14410740.26844                  20260650.3414   20260649.9344
    -57020.93144    -44428.73944                  21189582.6724   21189582.2184
  -1001891.15744   -780685.56144                  23147592.5334   23147591.9894
  20072720.23144  15641079.36644                  23981242.4054   23981242.2774
 -12963374.20144 -10101322.55244                  22621776.3074   22621777.0614
 -19617134.74044 -15286063.25644                  21374552.3434   21374552.7554
  -2505642.62644  -1952447.86944                  24746627.8494   24746627.2264
 96 12  3  1 48 30.0000000  0  7G27G19G31G18G 7G 2G15
 -18514053.55044 -14426526.11944                  20256795.2884   20256794.8864
    -13264.03544    -10332.46244                  21197909.4444   21197908.7534
   -913681.02844   -711950.39344                  23164378.4414   23164378.5494
  20185541.76544  15728992.24444                  24002711.9964   24002711.5794
 -13060478.99544 -10176988.59944                  22603297.8724   22603298.1274
 -19641481.47144 -15305034.72644                  21369919.3824   21369919.7954
  -2572683.28444  -2004687.31644                  24733869.9514   24733870.7444
 96 12  3  1 49  0.0000000  0  7G27G19G31G18G 7G 2G15
 -18533989.04444 -14442060.26644                  20253001.6864   20253001.3564
     30800.65844     24003.65544                  21206294.6894   21206294.1024
   -825092.05744   -642920.03544                  23181236.5204   23181236.1324
  20298443.43644  15816967.55744                  24024196.7634   24024196.2354
 -13157361.02444 -10252481.06744                  22584861.5014   22584862.2184
 -19665625.48544 -15323848.22944                  21365324.8144   21365325.2224
  -2639539.25544  -2056782.89044                  24721147.3804   24721146.7944
 96 12  3  1 49 30.0000000  0  7G27G19G31G18G 7G 2G15
 -18553588.35244 -14457332.45044                  20249272.1314   20249271.6164
     75189.84044     58592.62344                  21214741.7414   21214741.2944
   -736099.20444   -573574.94744                  23198171.2794   23198170.9784
  20411454.04644  15905027.75144                  24045702.2454   24045701.3204
 -13253970.31044 -10327761.01544                  22566477.3084   22566477.9604
 -19689536.54144 -15342480.20844                  21360774.7524   21360775.1394
  -2706184.52444  -2108714.25144                  24708465.1784   24708467.0624
 96 12  3  1 50  0.0000000  0  7G27G19G31G18G 7G 2G15
 -18572875.54444 -14472361.42844                  20245601.8854   20245601.4504
    119893.23044     93426.43444                  21223248.3724   21223247.9774
   -646719.08244   -503928.10344                  23215179.7824   23215179.3664
  20524553.66644  15993157.30844                  24067224.2244   24067224.5934
 -13350316.66144 -10402836.08244                  22548143.3564   22548144.0574
 -19713228.77944 -15360941.68244                  21356266.2074   21356266.5194
  -2772634.69044  -2160493.58144                  24695820.3724   24695821.7624
 96 12  3  1 50 30.0000000  0  7G27G19G31G18G 7G 2G15
 -18591839.90044 -14487138.84544                  20241993.0794   20241992.6224
    164910.31944    128504.68344                  21231815.0774   21231814.4894
   -556974.85844   -433997.52044                  23232257.4384   23232256.7144
  20637735.01144  16081350.56044                  24088761.4004   24088760.9694
 -13446403.60044 -10477709.00744                  22529858.9044   22529859.1814
 -19736711.95944 -15379240.25244                  21351797.5924   21351797.8734
  -2838894.04744  -2212124.21644                  24683211.5444   24683212.6074
 96 12  3  1 51  0.0000000  0  7G27G19G31G18G 7G 2G15
 -18610501.35144 -14501680.23244                  20238441.9164   20238441.4094
    210228.17244    163817.29244                  21240438.7214   21240438.1464
   -466900.53644   -363809.74744                  23249398.0644   23249398.4724
  20750956.55344  16169575.11544                  24110306.3474   24110307.7914
 -13542247.07944 -10552392.21444                  22511620.3944   22511620.0014
 -19759992.41644 -15397380.85244                  21347367.3724   21347367.8094
  -2904981.65544  -2263621.04744                  24670635.7434   24670636.8994
 96 12  3  1 51 30.0000000  0  7G27G19G31G18G 7G 2G15
 -18628837.69444 -14515968.28744                  20234952.6654   20234952.2734
    255848.75444    199365.79044                  21249119.8824   21249119.5224
   -376496.76844   -293365.25444                  23266601.5374   23266602.1204
  20864209.16044  16257823.90744                  24131857.6544   24131858.7534
 -13637857.08944 -10626893.49944                  22493426.1014   22493426.5004
 -19783058.94844 -15415354.75844                  21342977.8054   21342978.2874
  -2970890.13844  -2314978.30044                  24658093.4164   24658092.1624
 96 12  3  1 52  0.0000000  0  7G27G19G31G18G 7G 2G15
 -18646826.99244 -14529985.91844                  20231529.3584   20231528.9564
    301772.62844    235150.62444                  21257858.9704   21257858.5414
   -285772.18744   -222670.76644                  23283865.6324   23283864.9544
  20977485.01744  16346090.77444                  24153413.4934   24153413.4664
 -13733246.38844 -10701222.81144                  22475273.9114   22475274.7294
 -19805906.33444 -15433157.90044                  21338630.0894   21338630.5594
  -3036615.43744  -2366192.77144                  24645586.7444   24645587.7354
 96 12  3  1 52 30.0000000  0  7G27G19G31G18G 7G 2G15
 -18664457.58144 -14543724.03444                  20228174.2814   20228174.0934
    348001.35444    271173.00544                  21266656.2034   21266655.7524
   -194727.56844   -151726.91944                  23301190.8904   23301190.2194
  21090791.52944  16434381.56044                  24174975.6684   24174974.9004
 -13828408.21444 -10775374.86444                  22457165.5234   22457166.0244
 -19828524.89244 -15450782.73744                  21334325.9814   21334326.3064
  -3102143.06144  -2417253.22844                  24633117.3304   24633118.2714
 96 12  3  1 53  0.0000000  0  7G27G19G31G18G 7G 2G15
 -18681743.92044 -14557193.90444                  20224884.8404   20224884.5094
    394526.30044    307426.20444                  21275509.3684   21275508.9014
   -103369.16844    -80538.55144                  23318575.9744   23318575.1094
  21204123.11844  16522691.85744                  24196542.3584   24196542.2294
 -13923344.59944 -10849351.25444                  22439100.0464   22439100.5054
 -19850913.67944 -15468228.53544                  21330065.5174   21330066.0404
  -3167472.94844  -2468159.58644                  24620685.0144   24620684.9914
 96 12  3  1 53 30.0000000  0  7G27G19G31G18G 7G 2G15
 -18698667.22444 -14570380.88944                  20221664.4894   20221664.0844
    441357.23444    343917.83544                  21284420.8204   21284420.4034
    -11688.42044     -9099.01544                  23336022.2074   23336021.0024
  21317503.83244  16611040.45344                  24218117.8944   24218115.6894
 -14018042.57844 -10923141.86844                  22421079.4734   22421080.3404
 -19873082.71344 -15485503.09344                  21325846.9344   21325847.5004
  -3232589.02744  -2518899.38444                  24608293.9434   24608294.3044
 96 12  3  1 54  0.0000000  0  7G27G19G31G18G 7G 2G15
 -18715249.64444 -14583302.25244                  20218508.9724   20218508.5534
    488487.73644    380642.89944                  21293389.5434   21293389.2764
     80307.41344     62586.06744                  23353528.2084   23353527.8294
  21430934.75244  16699428.16344                  24239702.7354   24239702.8734
 -14112492.30744 -10996739.03744                  22403106.0604   22403107.4604
 -19895047.63244 -15502618.60244                  21321667.2194   21321667.6184
  -3297489.09344  -2569470.81544                  24595944.1004   24595943.5574
 96 12  3  1 54 30.0000000  0  7G27G19G31G18G 7G 2G15
 -18731502.77844 -14595967.02844                  20215416.0574   20215415.6164
    535935.90144    417615.49044                  21302418.8934   21302418.4804
    172629.28644    134525.17344                  23371096.5504   23371096.0754
  21544419.14644  16787857.55544                  24261297.1794   24261297.7964
 -14206674.72044 -11070127.91444                  22385183.4234   22385184.7184
 -19916799.82044 -15519568.35044                  21317527.7104   21317528.1264
  -3362163.26944  -2619866.24644                  24583637.5294   24583634.3744
 96 12  3  1 55  0.0000000  0  7G27G19G31G18G 7G 2G15
 -18747430.91844 -14608378.56244                  20212385.1174   20212384.6814
    583687.68944    454824.66944                  21311505.8464   21311505.3024
    265264.90244    206708.76844                  23388724.6884   23388724.2854
  21657946.19544  16876320.16644                  24282900.6274   24282901.5564
 -14300598.28344 -11143315.08444                  22367310.3374   22367311.6764
 -19938346.77744 -15536358.17644                  21313427.5714   21313427.8654
  -3426622.03444  -2670093.84244                  24571371.1894   24571369.2574
 96 12  3  1 55 30.0000000  0  7G27G19G31G18G 7G 2G15
 -18763032.01644 -14620535.25744                  20209416.3104   20209415.8954
    631746.37144    492272.98744                  21320650.9994   21320650.5254
    358208.50044    279132.33544                  23406411.1114   23406410.5634
  21771522.90444  16964821.49644                  24304513.6734   24304515.9554
 -14394256.61544 -11216295.58844                  22349487.9274   22349489.0554
 -19959694.66544 -15552992.88144                  21309365.3014   21309365.6814
  -3490861.32444  -2720150.38144                  24559146.1424   24559147.2414
 96 12  3  1 56  0.0000000  0  7G27G19G31G18G 7G 2G15
 -18778291.40644 -14632425.68844                  20206512.6274   20206512.1194
    680137.93544    529980.69544                  21329859.2884   21329858.8804
    451478.15644    351809.98744                  23424159.7934   23424159.3004
  21885159.99844  17053369.85644                  24326138.6234   24326140.2314
 -14487632.51244 -11289056.00844                  22331719.2524   22331719.8434
 -19980814.19244 -15569449.64144                  21305346.4184   21305346.5724
  -3554863.62444  -2770022.30544                  24546966.6374   24546967.3754
 96 12  3  1 56 30.0000000  0  7G27G19G31G18G 7G 2G15
 -18793196.76144 -14644040.24844                  20203676.1714   20203675.7574
    728862.18744    567947.63644                  21339131.5544   21339131.0334
    545064.08544    424734.08844                  23441968.3674   23441967.9874
  21998844.31344  17141955.02344                  24347772.3034   24347774.2034
 -14580742.55244 -11361609.26644                  22314001.1034   22314001.1914
 -20001718.41844 -15585738.63444                  21301368.4224   21301368.7084
  -3618637.60044  -2819716.25144                  24534831.2614   24534831.8974
 96 12  3  1 57  0.0000000  0  7G27G19G31G18G 7G 2G15
 -18807745.61244 -14655377.01144                  20200907.5014   20200907.1734
    777902.51844    606160.87344                  21348463.6674   21348463.2254
    638955.82544    497896.47144                  23459835.8114   23459835.3894
  22112570.91844  17230573.12744                  24369413.4904   24369412.7194
 -14673600.79844 -11433966.31844                  22296330.7974   22296331.3584
 -20022425.18444 -15601873.76144                  21297427.9984   21297428.3744
  -3682184.23244  -2869233.11644                  24522738.9634   24522739.2504
 96 12  3  1 57 30.0000000  0  7G27G19G31G18G 7G 2G15
 -18821946.48244 -14666442.62044                  20198205.1404   20198204.8084
    827250.13744    644613.55744                  21357854.0414   21357853.6934
    733152.50444    571296.48244                  23477760.7434   23477759.2184
  22226314.07244  17319204.15444                  24391057.9284   24391058.9274
 -14766211.73744 -11506130.66144                  22278707.3984   22278707.5344
 -20042962.49944 -15617876.85144                  21293519.7704   21293520.1594
  -3745510.72844  -2918578.41444                  24510688.6454   24510687.3544
 96 12  3  1 58  0.0000000  0  8G27G19G31G18G26G 7G 2G15
 -18835761.65844 -14677207.68944                  20195576.2714   20195575.8274
    876928.24044    683323.76144                  21367307.4494   21367306.9984
    827684.30644    644957.61944                  23495749.6504   23495748.1464
  22340096.44144  17407865.70644                  24412710.0454   24412710.5464
        -0.60854                                                  24203978.6374
 -14858544.21044 -11578078.01544                  22261137.0764   22261137.6424
 -20063291.15544 -15633717.34944                  21289651.2904   21289651.6884
  -3808585.17444  -2967727.29044                  24498685.2694   24498684.0684
 96 12  3  1 58 30.0000000  0  8G27G19G31G18G26G 7G 2G15
 -18849197.48644 -14687677.16044                  20193019.4684   20193019.0894
    926912.02644    722272.15744                  21376819.0794   21376818.6514
    922532.28644    718865.13944                  23513798.7574   23513797.5744
  22453900.97744  17496544.55644                  24434366.1934   24434365.8694
    -83950.88744                                                  24188003.8724
 -14950598.10144 -11649808.29344                  22243619.7084   22243620.3534
 -20083419.76644 -15649401.97044                  21285820.9804   21285821.3784
  -3871413.43844  -3016684.36244                  24486729.3014   24486729.8434
 96 12  3  1 59  0.0000000  0  8G27G19G31G18G26G 7G 2G15
 -18862254.63944 -14697851.56344                  20190534.8044   20190534.4614
    977191.44944    761450.91844                  21386386.9504   21386386.2244
   1017699.02644    793021.04344                  23531908.5894   23531907.3044
  22567721.70344  17585236.01744                  24456025.6834   24456026.0824
   -167619.67044                                                  24172082.3904
 -15042368.45244 -11721317.63044                  22226156.5354   22226157.0044
 -20103331.24744 -15664917.39544                  21282032.0254   21282032.1944
  -3933993.08444  -3065447.70344                  24474821.1784   24474822.5634
 96 12  3  1 59 30.0000000  0  8G27G19G31G18G26G 7G 2G15
 -18874923.85244 -14707723.67444                  20188123.8824   20188123.4974
   1027777.40444    800868.53544                  21396013.1894   21396012.7074
   1113175.82244    867418.53944                  23550077.1604   23550075.3964
  22681563.27044  17673943.69744                  24477689.4144   24477689.0954
   -250996.65244                                                  24156216.1444
 -15133842.12844 -11792595.78644                  22208749.9124   22208750.1094
 -20123016.40344 -15680256.46644                  21278285.9064   21278286.4364
  -3996323.82544  -3114017.07744                  24462960.1604   24462960.5544
 96 12  3  2  0  0.0000000  0  8G27G19G31G18G26G 7G 2G15
 -18887207.51344 -14717295.35644                  20185786.4734   20185786.0074
   1078676.12044    840529.86644                  21405699.0084   21405698.4424
   1208947.61144    942045.88844                  23568301.8074   23568298.8694
  22795435.90244  17762675.60144                  24499359.0434   24499358.3604
   -334061.43044   -260307.69244                                  24140409.3754
 -15225022.31144 -11863645.24744                  22191398.8364   22191399.0144
 -20142456.28444 -15695404.41644                  21274586.6834   21274587.1284
  -4058404.88744  -3162391.89244                  24451146.6644   24451147.1554
 96 12  3  2  0 30.0000000  0  8G27G19G31G18G26G 7G 2G15
 -18899129.91044 -14726585.53244                  20183517.6944   20183517.2944
   1129871.49644    880422.35944                  21415441.1984   21415440.7964
   1304998.16444   1016890.49044                  23586579.2524   23586578.0584
  22909305.99344  17851405.49144                  24521027.8824   24521026.0394
   -416821.87644   -324796.30344                                  24124660.5664
 -15315932.62744 -11934484.41744                  22174098.8474   22174098.9684
 -20161680.04444 -15710383.96044                  21270928.5824   21270928.8844
  -4120254.01544  -3210586.01044                  24439376.7324   24439376.5754
 96 12  3  2  1  0.0000000  0  8G27G19G31G18G26G 7G 2G15
 -18910684.00544 -14735588.72044                  20181319.0844   20181318.6324
   1181385.90344    920563.44444                  21425243.9144   21425243.4494
   1401344.16844   1091965.28244                  23604913.4684   23604911.6934
  23023190.13044  17940146.36744                  24542699.1794   24542697.8894
   -499258.38544                                                  24108972.9324
 -15406561.64444 -12005104.39244                  22156852.3614   22156853.0934
 -20180678.41744 -15725187.87744                  21267313.2994   21267313.6294
  -4181850.39044  -3258583.13744                  24427654.8214   24427656.9464
 96 12  3  2  1 30.0000000  0  8G27G19G31G18G26G 7G 2G15
 -18921887.63144 -14744318.81544                  20179187.1154   20179186.5604
   1233212.31144    960947.64844                  21435105.9814   21435105.6954
   1497966.72444   1167255.59444                  23623299.8234   23623298.6574
  23137081.77044  18028893.08544                  24564371.9284   24564370.2914
   -581390.63544   -453031.66344                  24093344.4004   24093347.4534
 -15496911.88044 -12075507.13944                  22139659.3624   22139659.7934
 -20199472.89844 -15739832.91544                  21263736.9284   21263737.1334
  -4243198.29744  -3306386.69244                  24415980.9444   24415979.4664
 96 12  3  2  2  0.0000000  0  8G27G19G31G18G26G 7G 2G15
 -18932786.21544 -14752811.21744                  20177113.1454   20177112.5714
   1285305.29144   1001539.57644                  21445018.8734   21445018.7604
   1594838.76944   1242740.30444                  23641734.0624   23641732.2474
  23250936.71744  18117611.19544                  24586037.4394   24586036.8484
   -663270.69944   -516834.29844                                  24077762.4584
 -15587019.95944 -12145721.19344                  22122512.4984   22122512.8254
 -20218100.12544 -15754347.62444                  21260192.0274   21260192.3514
  -4304320.34044  -3354014.23944                  24404350.2704   24404350.0724
 96 12  3  2  2 30.0000000  0  8G27G19G31G18G26G 7G 2G15
 -18943358.40344 -14761049.28644                  20175101.1334   20175100.7004
   1337690.16344   1042358.94744                  21454987.5844   21454987.4764
   1691993.52244   1318445.30244                  23660221.9514   23660222.3654
  23364777.21244  18206318.06944                  24607700.7804   24607700.2114
   -744875.83344   -580422.70444                  24062233.5504   24062231.3254
 -15676853.30444 -12215721.16544                  22105417.5774   22105418.1184
 -20236536.19944 -15768713.38544                  21256683.7754   21256684.1024
  -4365180.83444  -3401437.96644                  24392769.1584   24392770.1034
 96 12  3  2  3  0.0000000  0  8G27G19G31G18G26G 7G 2G15
 -18953590.22744 -14769022.13444                  20173154.2164   20173153.7334
   1390388.10144   1083422.26444                  21465015.8094   21465015.4264
   1789430.94844   1394370.58444                  23678763.7774   23678761.4354
  23478639.03944  18295041.53044                  24629367.8514   24629366.8374
   -826187.73344   -643782.59744                                  24046760.3744
 -15766388.72344 -12285488.98644                  22088379.4814   22088379.9344
 -20254764.02844 -15782916.87644                  21253215.2204   21253215.5364
  -4425760.99744  -3448643.27344                  24381241.0244   24381242.5774
 96 12  3  2  3 30.0000000  0  8G27G19G31G18G26G 7G 2G15
 -18963491.28144 -14776737.24044                  20171270.0664   20171269.5474
   1443376.39144   1124711.82944                  21475099.0484   21475098.8124
   1887116.55644   1470489.24344                  23697352.4674   23697351.6824
  23592502.70344  18383766.45444                  24651035.4574   24651034.7184
   -907228.20644   -706931.02944                  24031338.9754   24031339.3174
 -15855652.04244 -12355044.78044                  22071393.3954   22071393.9394
 -20272799.19244 -15796970.23944                  21249783.1884   21249783.6254
  -4486084.46044  -3495648.52944                  24369761.4144   24369763.3394
 96 12  3  2  4  0.0000000  0  8G27G19G31G18G26G 7G 2G15
 -18973051.24144 -14784186.55844                  20169450.9804   20169450.5404
   1496674.57744   1166242.87344                  21485241.3184   21485241.0084
   1985049.52344   1546800.66044                  23715988.5814   23715986.3334
  23706368.28844  18472492.85044                  24672703.4884   24672703.9334
   -987977.74544   -769852.73544                  24015972.8344   24015973.4634
 -15944636.89844 -12424383.59444                  22054460.2384   22054460.6814
 -20290626.30444 -15810861.48444                  21246390.8194   21246391.0284
  -4546143.26444  -3542447.56144                  24358332.1894   24358331.6444
 96 12  3  2  4 30.0000000  0  8G27G19G31G18G26G 7G 2G15
 -18982243.21044 -14791349.13144                  20167701.8464   20167701.3464
   1550304.50544   1208032.41644                  21495446.6534   21495446.3154
   2083225.19944   1623301.19244                  23734671.0944   23734670.5494
  23820246.64744  18561229.21944                  24694374.0604   24694373.1304
  -1068404.61444   -832522.97844                  24000667.8964   24000666.9184
 -16033331.64244 -12493496.33944                  22037582.3384   22037582.5484
 -20308240.61144 -15824586.90744                  21243038.8374   21243039.1274
  -4605927.53744  -3589032.68544                  24346955.5844   24346956.0344
 96 12  3  2  5  0.0000000  0  8G27G19G31G18G26G 7G 2G15
 -18991056.12744 -14798216.33844                  20166024.7414   20166024.3504
   1604255.14444   1250071.86244                  21505713.4344   21505712.9734
   2181626.22844   1699977.32444                  23753395.9384   23753393.0194
  23934126.65644  18649966.85544                  24716044.4144   24716043.3104
  -1148508.93844   -894941.92944                  23985424.3224   23985424.4824
 -16121737.68144 -12562384.12344                  22020758.9984   22020759.2934
 -20325658.09344 -15838158.95944                  21239724.4244   21239724.7614
  -4665438.54344  -3635404.84544                  24335631.0414   24335631.0984
 96 12  3  2  5 30.0000000  0  8G27G19G31G18G26G 7G 2G15
 -18999481.59744 -14804781.63544                  20164421.2634   20164420.8964
   1658518.16844   1292354.72544                  21516039.4314   21516038.7794
   2280264.90144   1776838.62344                  23772166.3474   23772164.4314
  24047988.06644  18738690.02044                  24737711.4954   24737710.4004
  -1228304.44144   -957120.21144                  23970239.7634   23970239.5764
 -16209851.96344 -12631044.56844                  22003991.3784   22003991.9104
 -20342882.56644 -15851580.61544                  21236446.7674   21236447.0854
  -4724673.25944  -3681561.76544                  24324359.0774   24324358.3284
 96 12  3  2  6  0.0000000  0  8G27G19G31G18G26G 7G 2G15
 -19007510.93744 -14811038.26144                  20162893.3474   20162892.9644
   1713101.56344   1334887.22744                  21526426.1614   21526425.5864
   2379156.45944   1853897.00244                  23790984.7034   23790982.8374
  24161820.78044  18827390.81644                  24759372.9034   24759373.8914
  -1307781.10644  -1019050.09244                  23955116.0094   23955113.0714
 -16297669.35944 -12699473.67144                  21987280.1954   21987280.6204
 -20359931.46644 -15864865.46244                  21233202.4874   21233202.5734
  -4783621.28644  -3727495.26144                  24313141.5054   24313141.8104
 96 12  3  2  6 30.0000000  0  8G27G19G31G18G26G 7G 2G15
 -19015120.09244 -14816967.47144                  20161445.5154   20161445.0634
   1768000.93044   1377665.94244                  21536873.0904   21536872.5824
   2478317.30944   1931165.20444                  23809854.4094   23809853.5084
  24275638.33244  18916079.80144                  24781031.8534   24781032.0994
  -1386922.82244  -1080718.95844                  23940055.8994   23940053.8834
 -16385177.00744 -12767661.41344                  21970627.9054   21970628.5154
 -20376807.27144 -15878015.42844                  21229991.0684   21229991.3724
  -4842268.62744  -3773194.44444                  24301981.9364   24301982.4244
 96 12  3  2  7  0.0000000  0  8G27G19G31G18G26G 7G 2G15
 -19022319.80544 -14822577.63944                  20160075.5224   20160074.9704
   1823209.99544   1420685.98144                  21547379.0344   21547378.8014
   2577750.60044   2008645.68244                  23828776.0334   23828775.4924
  24389440.28944  19004756.61744                  24802687.6534   24802685.5694
  -1465739.38344  -1142134.43744                  23925057.8864   23925057.7294
 -16472371.46344 -12835605.11444                  21954035.4764   21954036.3614
 -20393503.88444 -15891025.76444                  21226813.8514   21226814.1934
  -4900616.84144  -3818660.54844                  24290878.3764   24290877.8834
 96 12  3  2  7 30.0000000  0  8G27G19G31G18G26G 7G 2G15
 -19029111.16744 -14827869.61344                  20158783.1254   20158782.6464
   1878735.15744   1463952.33144                  21557945.1964   21557944.7814
   2677452.71144   2086335.63944                  23847748.8274   23847748.8254
  24503223.25444  19093418.65044                  24824339.5764   24824340.4644
  -1544222.06544  -1203289.78544                  23910122.9264   23910122.5384
 -16559254.21644 -12903305.93544                  21937502.1874   21937502.9674
 -20410010.80444 -15903888.28944                  21223672.6954   21223672.8074
  -4958664.08744  -3863892.12544                  24279832.2354   24279832.3814
 96 12  3  2  8  0.0000000  0  8G27G19G31G18G26G 7G 2G15
 -19035507.03344 -14832853.40644                  20157565.8494   20157565.4314
   1934579.63744   1507467.49844                  21568572.0194   21568571.6874
   2777406.03244   2164221.34644                  23866769.4734   23866767.6294
  24616987.86044  19182066.38344                  24845988.3104   24845989.8244
  -1622355.19044  -1264172.70344                  23895254.5974   23895254.8314
 -16645825.15944 -12970763.78444                  21921028.2624   21921028.8784
 -20426316.90044 -15916594.32944                  21220569.7254   21220570.0284
  -5016409.81444  -3908888.76744                  24268843.4794   24268842.6054
 96 12  3  2  8 30.0000000  0  8G27G19G31G18G26G 7G 2G15
 -19041523.54644 -14837541.59544                  20156420.9024   20156420.5894
   1990738.71244   1551227.80244                  21579258.6294   21579258.2234
   2877605.14344   2242298.58744                  23885836.5594   23885834.7344
  24730729.51244  19270696.24544                  24867632.7874   24867632.1564
  -1700153.83644  -1324795.02044                  23880449.9394   23880451.4404
 -16732071.14944 -13037968.42244                  21904616.3464   21904616.5224
 -20442401.64544 -15929127.88644                  21217508.8984   21217509.1514
  -5073853.20544  -3953649.81644                  24257912.2164   24257913.5034
 96 12  3  2  9  0.0000000  0  8G27G19G31G18G26G 7G 2G15
 -19047174.17044 -14841944.67844                  20155345.6994   20155345.2564
   2047208.32444   1595230.08844                  21590004.4734   21590004.1134
   2978051.73244   2320568.64444                  23904951.1934   23904950.7374
  24844436.27844  19359298.89044                  24889270.5214   24889272.9384
  -1777623.04544  -1385160.63144                  23865708.1424   23865708.0414
 -16817988.62144 -13104917.06944                  21888266.8224   21888266.6344
 -20458253.88544 -15941480.27444                  21214492.1924   21214492.5114
  -5130992.18444  -3998173.65744                  24247038.7994   24247040.2674
 96 12  3  2  9 30.0000000  0  8G27G19G31G18G26G 7G 2G15
 -19052457.00244 -14846061.17344                  20154340.6714   20154340.0824
   2103984.27444   1639471.07444                  21600808.6464   21600808.1654
   3078756.83044   2399040.15744                  23924114.6184   23924113.4504
  24958095.98744  19447864.89444                  24910899.2394   24910901.5994
  -1854761.61944  -1445268.61344                  23851029.1134   23851027.2994
 -16903566.48944 -13171601.08044                  21871981.8174   21871981.9704
 -20473876.96144 -15953654.09244                  21211519.2554   21211519.5834
  -5187821.54944  -4042456.24944                  24236224.8514   24236225.1104
 96 12  3  2 10  0.0000000  0  8G27G19G31G18G26G 7G 2G15
 -19057376.54044 -14849894.58444                  20153404.4184   20153403.8824
   2161050.50844   1683938.25244                  21611668.0044   21611667.6304
   3179724.67344   2477716.40444                  23943328.0824   23943326.8314
  25071708.50744  19536394.11344                  24932518.6534   24932518.6654
  -1931581.89244  -1505128.54544                  23836410.2804   23836410.3374
 -16988802.77644 -13238018.93644                  21855761.7224   21855762.1484
 -20489284.89544 -15965660.26644                  21208587.2324   21208587.5224
  -5244344.24344  -4086499.88444                  24225469.4264   24225471.3814
 96 12  3  2 10 30.0000000  0  8G27G19G31G18G26G 7G 2G15
 -19061917.38844 -14853432.90744                  20152540.2114   20152539.7494
   2218390.86644   1728619.04244                  21622579.4754   21622579.1504
   3280956.47644   2556598.33944                  23962591.9544   23962592.4924
  25185280.70744  19624891.92444                  24954130.5854   24954130.3864
  -2008075.95644  -1564734.28544                  23821854.0364   23821853.6924
 -17073697.97544 -13304171.01344                  21839606.6824   21839607.2544
 -20504492.23444 -15977510.13244                  21205693.3564   21205693.7094
  -5300556.46844  -4130301.58944                  24214772.4054   24214771.7484
 96 12  3  2 11  0.0000000  0  8G27G19G31G18G26G 7G 2G15
 -19066063.41444 -14856663.57744                  20151751.3054   20151750.7264
   2276004.36344   1773512.66244                  21633543.0484   21633542.6044
   3382444.25844   2635679.73344                  23981904.2974   23981903.0544
  25298825.29044  19713368.23544                  24975737.3534   24975738.8514
  -2084221.95844  -1624068.83844                  23807364.0644   23807363.6334
 -17158252.18044 -13370057.37644                  21823516.5674   21823517.0414
 -20519504.55044 -15989208.03144                  21202836.6374   21202836.8544
  -5356451.08644  -4173855.79944                  24204135.9054   24204135.4354
 96 12  3  2 11 30.0000000  0  8G27G19G31G18G26G 7G 2G15
 -19069796.34144 -14859572.35344                  20151041.0454   20151040.4864
   2333917.86244   1818640.05144                  21644563.7784   21644563.3234
   3484177.44344   2714952.34344                  24001263.5834   24001262.1624
  25412355.91644  19801833.68244                  24997341.5874   24997342.3214
  -2160006.97444  -1683122.07944                  23792942.6364   23792942.3034
 -17242474.06044 -13435684.78444                  21807489.6484   21807490.0524
 -20534332.57844 -16000762.33344                  21200015.0084   21200015.2844
  -5412017.67644  -4217154.36744                  24193561.5374   24193561.1454
 96 12  3  2 12  0.0000000  0  8G27G19G31G18G26G 7G 2G15
 -19073121.17144 -14862163.13244                  20150408.2484   20150407.8624
   2392125.22044   1863996.41944                  21655640.2004   21655639.8854
   3586116.80144   2794385.60544                  24020661.9354   24020661.6914
  25525868.09244  19890284.72844                  25018942.3544   25018943.4564
  -2235438.25944  -1741899.69344                  23778588.9134   23778589.3634
 -17326392.31344 -13501075.60344                  21791520.3694   21791520.8574
 -20548998.39744 -16012190.23744                  21197224.1604   21197224.4144
  -5467271.88544  -4260209.57144                  24183047.0514   24183048.5774
 96 12  3  2 12 30.0000000  0  8G27G19G31G18G26G 7G 2G15
 -19076045.18744 -14864441.58644                  20149851.7674   20149851.2974
   2450638.16744   1909590.90844                  21666774.6294   21666774.2974
   3688248.09644   2873968.43344                  24040096.9624   24040096.5074
  25639343.42644  19978707.08944                  25040536.1804   25040539.3764
  -2310513.10144  -1800399.54844                  23764302.8104   23764303.2464
 -17410019.51144 -13566239.62744                  21775606.7324   21775607.1764
 -20563513.88844 -16023501.00244                  21194462.0214   21194462.1494
  -5522219.19044  -4303025.62244                  24172590.9844   24172590.9294
 96 12  3  2 13  0.0000000  0  8G27G19G31G18G26G 7G 2G15
 -19078554.55844 -14866396.94144                  20149374.3864   20149373.8224
   2509502.15944   1955458.94344                  21677976.1034   21677976.0504
   3790580.93544   2953708.32444                  24059570.0944   24059569.1604
  25752783.17344  20067101.70244                  25062123.1914   25062124.1084
  -2385220.04144  -1858612.72644                  23750086.2964   23750085.9014
 -17493345.93044 -13631169.27744                  21759750.3104   21759750.6614
 -20577864.97144 -16034683.65744                  21191731.0024   21191731.2174
  -5576841.90844  -4345588.73544                  24162196.5924   24162199.1474
 96 12  3  2 13 30.0000000  0  8G27G19G31G18G26G 7G 2G15
 -19080659.35444 -14868037.04444                  20148973.8874   20148973.3074
   2568712.17644   2001596.60744                  21689243.5784   21689243.4934
   3893103.04444   3033595.68944                  24079079.1504   24079077.7834
  25866162.28444  20155449.07644                  25083698.9344   25083698.4624
  -2459567.57644  -1916545.85844                  23735938.4134   23735937.3714
 -17576380.46044 -13695871.48344                  21743949.3244   21743949.5744
 -20592064.31944 -16045748.07744                  21189028.8264   21189029.1014
  -5631151.30744  -4387907.70244                  24151862.0404   24151862.4474
 96 12  3  2 14  0.0000000  0  8G27G19G31G18G26G 7G 2G15
 -19082368.89544 -14869369.15744                  20148648.4844   20148647.9634
   2628254.58044   2047993.27144                  21700574.0624   21700573.7704
   3995822.49944   3113636.82144                  24098625.9384   24098623.7384
  25979476.32644  20243745.71544                  25105261.7784   25105262.3944
  -2533546.83444  -1974192.02444                  23721860.4824   23721859.8864
 -17659091.97444 -13760321.98644                  21728209.8904   21728209.9644
 -20606097.75744 -16056683.21944                  21186358.4444   21186358.5824
  -5685141.95844  -4429978.30244                  24141587.3494   24141586.8004
 96 12  3  2 14 30.0000000  0  8G27G19G31G18G26G 7G 2G15
 -19083700.82344 -14870407.02344                  20148395.0074   20148394.4864
   2688121.16244   2094642.54544                  21711966.3754   21711965.8144
   4098738.89144   3193831.41544                  24118210.4884   24118209.0984
  26092702.29144  20331973.75544                  25126807.5584   25126809.6294
  -2607161.80244  -2031554.32244                  23707851.9014   23707851.7924
 -17741486.41944 -13824525.42444                  21712530.7474   21712531.0174
 -20619957.97744 -16067483.38244                  21183720.9974   21183721.2774
  -5738810.69044  -4471798.05944                  24131374.7404   24131374.9164
 96 12  3  2 15  0.0000000  0  8G27G19G31G18G26G 7G 2G15
 -19084635.16844 -14871135.08644                  20148217.3004   20148216.7794
   2748318.21144   2141549.31644                  21723421.5304   21723420.8164
   4201864.05644   3274188.67344                  24137834.2194   24137833.1724
  26205862.16444  20420150.29744                  25148341.0894   25148339.4634
  -2680395.77644  -2088619.71444                  23693915.8104   23693915.6744
 -17823529.42944 -13888455.01944                  21696918.2394   21696918.5724
 -20633601.23344 -16078114.48244                  21181124.6804   21181124.8744
  -5792133.83244  -4513348.49944                  24121227.6904   24121226.6464
 96 12  3  2 15 30.0000000  0  8G27G19G31G18G26G 7G 2G15
 -19085179.17544 -14871558.99044                  20148113.8374   20148113.3394
   2808818.10544   2188692.07744                  21734934.3224   21734933.7874
   4305211.53144   3354719.17844                  24157500.6954   24157498.3734
  26318962.36944  20508280.33344                  25169863.3514   25169863.2924
  -2753252.43244  -2145391.09944                  23680051.6594   23680052.8214
 -17905209.42944 -13952101.74944                  21681375.0634   21681375.4854
 -20647018.11144 -16088569.18544                  21178571.5134   21178571.5854
  -5845109.64144  -4554628.32344                  24111146.1134   24111147.2774
 96 12  3  2 16  0.0000000  0  8G27G19G31G18G26G 7G 2G15
 -19085330.71944 -14871677.07944                  20148084.9474   20148084.4974
   2869615.88344   2236066.95444                  21746503.5234   21746503.7724
   4408787.78844   3435427.96144                  24177210.7674   24177209.6164
  26432001.48144  20596362.76844                  25191373.9034   25191373.6634
  -2825743.72344  -2201877.80944                  23666257.1814   23666257.4894
 -17986530.91144 -14015469.11344                  21665900.1574   21665900.2934
 -20660199.83844 -16098840.65244                  21176063.1904   21176063.3174
  -5897731.02544  -4595631.96144                  24101133.1104   24101132.8404
 96 12  3  2 16 30.0000000  0  8G27G19G31G18G26G 7G 2G15
 -19085092.28444 -14871491.28644                  20148130.3484   20148129.9164
   2930694.78844   2283660.89844                  21758126.4434   21758126.7744
   4512563.08844   3516291.83544                  24196958.3084   24196956.5714
  26544961.12744  20684383.28944                  25212869.4874   25212869.2734
  -2897900.84944  -2258104.12844                  23652525.9874   23652525.4564
 -18067525.47244 -14078581.73844                  21650487.4254   21650487.4834
 -20673182.24544 -16108956.80844                  21173592.6444   21173592.9464
  -5950016.22544  -4636373.64544                  24091183.5604   24091183.3174
 96 12  3  2 17  0.0000000  0  8G27G19G31G18G26G 7G 2G15
 -19084449.70644 -14870990.57644                  20148252.6634   20148252.1854
   2992053.81944   2331473.12144                  21769802.7854   21769802.4234
   4616537.50544   3597310.86644                  24216743.9434   24216743.0634
  26657865.16144  20772360.46844                  25234354.5784   25234352.7874
  -2969723.32544  -2314069.67744                  23638858.5694   23638859.1464
 -18148164.51144 -14141417.33044                  21635142.3514   21635141.9834
 -20685978.18744 -16118927.66344                  21171157.6284   21171157.8894
  -6001957.65844  -4676847.46744                  24081299.4404   24081302.1734
 96 12  3  2 17 30.0000000  0  8G27G19G31G18G26G 7G 2G15
 -19083393.25744 -14870167.37244                  20148453.6884   20148453.1634
   3053705.22844   2379513.16244                  21781534.6254   21781534.0784
   4720707.11544   3678481.99844                  24236566.7664   24236565.5294
  26770713.73944  20860294.44944                  25255829.0404   25255828.8004
  -3041201.27644  -2369766.75244                  23625256.8474   23625257.2364
 -18228439.25244 -14203969.05544                  21619866.6484   21619866.2274
 -20698615.33244 -16128774.78544                  21168752.8754   21168753.1784
  -6053544.31644  -4717044.83344                  24071482.9424   24071485.4864
 96 12  3  2 18  0.0000000  0  8G27G19G31G18G26G 7G 2G15
 -19081924.44044 -14869022.84144                  20148733.0764   20148732.7094
   3115663.10644   2427792.01444                  21793325.0684   21793324.6024
   4825040.86544   3759781.00744                  24256420.6824   24256420.9464
  26883494.99444  20948175.97544                  25277290.9944   25277293.1514
  -3112332.54044  -2425193.69844                  23611720.9254   23611721.1504
 -18308340.02744 -14266229.37744                  21604661.9974   21604661.8804
 -20711113.07744 -16138513.28544                  21166374.5584   21166374.9264
  -6104774.00144  -4756964.03344                  24061734.4954   24061733.5474
 96 12  3  2 18 30.0000000  0  8G27G19G31G18G26G 7G 2G15
 -19080041.32444 -14867555.47844                  20149091.3764   20149090.8924
   3177939.63844   2476319.16744                  21805175.9224   21805175.4324
   4929534.74544   3841204.79544                  24276305.3034   24276303.7104
  26996215.39844  21036010.03244                  25298740.5994   25298740.0264
  -3183095.31344  -2480333.51444                  23598255.5154   23598254.3204
 -18387843.05644 -14328179.77444                  21589532.6754   21589533.0584
 -20723468.87444 -16148141.17344                  21164023.4534   21164023.8124
  -6155640.39844  -4796600.16044                  24052054.9134   24052056.5084
 96 12  3  2 19  0.0000000  0  8G27G19G31G18G26G 7G 2G15
 -19077738.10844 -14865760.76944                  20149529.8904   20149529.3224
   3240543.15244   2525101.11744                  21817088.8144   21817088.6954
   5034219.84344   3922777.61344                  24296226.2424   24296224.0904
  27108877.49444  21123798.70144                  25320179.4084   25320179.5764
  -3253460.89544  -2535163.82244                  23584865.0114   23584865.3674
 -18466931.81344 -14389807.36644                  21574482.5434   21574483.1304
 -20735639.04544 -16157624.41644                  21161707.4124   21161707.8224
  -6206125.68644  -4835939.30844                  24042447.7964   24042449.1224
 96 12  3  2 19 30.0000000  0  8G27G19G31G18G26G 7G 2G15
 -19075032.20544 -14863652.27844                  20150044.6924   20150044.0484
   3303463.19644   2574129.70944                  21829062.0834   21829061.8654
   5139084.20344   4004490.09644                  24316181.5084   24316181.8594
  27221440.99344  21211510.51544                  25341599.3524   25341600.0144
  -3323436.06644  -2589689.92544                  23571549.3014   23571550.0324
 -18545647.24044 -14451144.05344                  21559503.5994   21559503.6704
 -20747630.69544 -16166968.55444                  21159425.5434   21159425.8064
  -6256251.60144  -4874998.44444                  24032909.2714   24032909.8494
 96 12  3  2 20  0.0000000  0  8G27G19G31G18G26G 7G 2G15
 -19071919.00444 -14861226.40944                  20150637.0704   20150636.6034
   3366700.20844   2623405.29444                  21841095.7244   21841095.2344
   5244152.78644   4086361.71244                  24336175.3854   24336173.7714
  27333915.75444  21299153.16944                  25363002.5544   25363003.4154
  -3393020.85544  -2643911.81644                  23558307.8674   23558307.7914
 -18624008.13144 -14512204.46744                  21544592.1994   21544592.0844
 -20759405.55444 -16176143.76244                  21157184.9414   21157185.2674
  -6306015.06244  -4913775.11844                  24023439.4844   24023440.5494
 96 12  3  2 20 30.0000000  0  8G27G19G31G18G26G 7G 2G15
 -19068386.84444 -14858474.07744                  20151309.1264   20151308.7554
   3430248.79144   2672923.64544                  21853188.9044   21853188.0554
   5349448.77344   4168410.56044                  24356212.5264   24356212.1114
  27446314.84244  21386736.88844                  25384391.2374   25384392.7994
  -3462202.66144  -2697819.70044                  23545143.0634   23545143.2014
 -18702025.09244 -14572996.89244                  21529745.9344   21529746.1324
 -20770940.75644 -16185132.22344                  21154989.8194   21154990.1024
  -6355407.95244  -4952263.03044                  24014039.6704   24014041.2904
 96 12  3  2 21  0.0000000  0  8G27G19G31G18G26G 7G 2G15
 -19064435.96344 -14855395.47044                  20152061.1234   20152060.5194
   3494113.32044   2722688.19744                  21865341.7774   21865341.3544
   5454967.29244   4250632.76544                  24376291.9284   24376290.7854
  27558649.94744  21474270.76544                  25405767.9814   25405769.4104
  -3530979.79944  -2751412.27544                  23532055.2384   23532054.4204
 -18779701.25644 -14633523.76144                  21514964.3974   21514964.8144
 -20782240.02244 -16193936.84044                  21152839.5134   21152839.8674
  -6404423.32744  -4990456.83444                  24004711.5514   24004712.1944
 96 12  3  2 21 30.0000000  0  8G27G19G31G18G26G 7G 2G15
 -19060086.54344 -14852006.31644                  20152888.9194   20152888.1714
   3558289.64144   2772695.70544                  21877554.0964   21877554.2794
   5560664.86744   4332994.52244                  24396405.3874   24396404.2944
  27670916.85644  21561751.49044                  25427131.4834   25427130.9734
  -3599364.51944  -2804699.05044                  23519041.9004   23519042.0954
 -18857044.85244 -14693791.48944                  21500246.4884   21500246.8764
 -20793341.38944 -16202587.25044                  21150727.0834   21150727.3814
  -6453072.80144  -5028365.45944                  23995454.8424   23995456.3494
 96 12  3  2 22  0.0000000  0  8G27G19G31G18G26G 7G 2G15
 -19055355.07244 -14848319.45944                  20153789.1444   20153788.6124
   3622755.04444   2822928.47544                  21889821.3454   21889821.1364
   5666515.06044   4415475.20144                  24416548.0914   24416548.4424
  27783117.71344  21649180.74544                  25448482.7534   25448483.3654
  -3667369.60644  -2857690.00944                  23506101.0084   23506100.6314
 -18934054.26444 -14753798.81244                  21485592.3244   21485592.6684
 -20804269.08844 -16211102.33244                  21148647.5634   21148647.8814
  -6501362.08244  -5065993.45144                  23986266.3214   23986266.3014
 96 12  3  2 22 30.0000000  0  8G27G19G31G18G26G 7G 2G15
 -19050234.51144 -14844329.41344                  20154763.4894   20154763.0504
   3687515.29744   2873390.99844                  21902144.9424   21902144.4564
   5772502.89244   4498063.13244                  24436716.9194   24436715.0554
  27895250.80144  21736557.15244                  25469821.0244   25469821.9694
  -3734975.33844  -2910369.80344                  23493236.1984   23493235.1104
 -19010700.29144 -14813522.97644                  21471007.1574   21471007.2344
 -20815053.73444 -16219505.94744                  21146595.3194   21146595.5954
  -6549278.69344  -5103331.01644                  23977148.0974   23977147.9364
 96 12  3  2 23  0.0000000  0  8G27G19G31G18G26G 7G 2G15
 -19044716.35544 -14840029.55244                  20155813.6074   20155813.0534
   3752563.06644   2924077.55544                  21914523.2234   21914522.8354
   5878612.21444   4580745.72444                  24456909.1494   24456907.0854
  28007302.20744  21823869.94144                  25491143.7904   25491143.8504
  -3802189.33044  -2962744.32344                  23480445.8014   23480445.2554
 -19086974.36244 -14872957.30544                  21456492.4704   21456492.6014
 -20825705.61544 -16227806.10744                  21144568.3474   21144568.6584
  -6596825.42744  -5140380.40444                  23968099.5764   23968099.9434
 96 12  3  2 23 30.0000000  0  8G27G19G31G18G26G 7G 2G15
 -19038762.40844 -14835390.11844                  20156946.7644   20156946.0564
   3817899.70044   2974989.19844                  21926956.2694   21926955.9124
   5984860.62644   4663536.69844                  24477127.5824   24477127.1104
  28119266.07344  21911114.50044                  25512449.3834   25512450.8094
  -3869005.06844  -3014808.51944                  23467731.2934   23467730.9334
 -19162864.95844 -14932092.82244                  21442050.8524   21442050.8934
 -20836219.41744 -16235998.67744                  21142567.7444   21142567.8464
  -6643989.34244  -5177131.46844                  23959123.6954   23959125.4184
 96 12  3  2 24  0.0000000  0  8G27G19G31G18G26G 7G 2G15
 -19032360.89544 -14830401.93244                  20158164.8824   20158164.1804
   3883511.28844   3026115.09244                  21939441.7404   21939441.2394
   6091259.77844   4746445.13844                  24497374.3914   24497374.4644
  28231114.77444  21998269.31644                  25533733.5564   25533732.3914
  -3935440.31844  -3066576.23944                  23455088.9694   23455087.6444
 -19238383.16744 -14990938.16844                  21427680.2654   21427680.5194
 -20846592.34344 -16244081.47144                  21140593.6624   21140594.0334
  -6690773.46544  -5213586.61744                  23950221.9494   23950223.1074
 96 12  3  2 24 30.0000000  0  8G27G19G31G18G26G 7G 2G15
 -19025504.16744 -14825059.03044                  20159469.4684   20159468.9814
   3949401.88744   3077458.40244                  21951980.2174   21951979.7504
   6197803.95744   4829466.55244                  24517648.9774   24517646.9854
  28342817.84544  22085310.72344                  25554990.4754   25554992.2624
  -4001497.05544  -3118049.02944                  23442518.6734   23442517.5774
 -19313530.23344 -15049494.31344                  21413380.5224   21413380.8504
 -20856810.11444 -16252043.36844                  21138649.3414   21138649.6914
  -6737178.33844  -5249746.23644                  23941392.1274   23941391.9194
 96 12  3  2 25  0.0000000  0  8G27G19G31G18G26G 7G 2G15
 -19018187.45544 -14819357.69944                  20160861.8794   20160861.3674
   4015572.14944   3129019.63444                  21964572.1664   21964571.8244
   6304494.26144   4912601.85544                  24537951.3964   24537950.0354
  28454378.48944  22172241.03844                  25576220.0484   25576223.5264
  -4067173.68244  -3169225.61344                  23430020.8664   23430021.0854
 -19388308.16544 -15107762.82144                  21399150.7484   21399150.7564
 -20866849.83644 -16259866.52244                  21136738.9474   21136739.2634
  -6783199.57844  -5285606.91244                  23932634.2304   23932632.4594
 96 12  3  2 25 30.0000000  0  8G27G19G31G18G26G 7G 2G15
 -19010416.93044 -14813302.75044                  20162340.5864   20162339.9654
   4082056.25244   3180825.41244                  21977223.6814   21977223.2374
   6411347.03444   4995863.77244                  24558285.0304   24558284.1584
  28565811.85844  22259072.21644                  25597425.1204   25597425.5974
  -4132447.85544  -3220088.59444                  23417599.6584   23417599.1464
 -19462711.94944 -15165739.78344                  21384992.0814   21384992.0574
 -20876703.14444 -16267544.41844                  21134863.9554   21134864.0564
  -6828817.89844  -5321153.63144                  23923952.0724   23923951.5844
 96 12  3  2 26  0.0000000  0  8G27G19G31G18G26G 7G 2G15
 -19002216.61144 -14806912.89744                  20163901.1314   20163900.5554
   4148861.15444   3232881.16544                  21989936.0424   21989935.5274
   6518351.94444   5079244.21044                  24578647.2824   24578646.3804
  28677125.49344  22345810.11344                  25618607.0914   25618608.6874
  -4197310.84344  -3270631.17144                  23405256.4894   23405256.6694
 -19536744.13244 -15223427.18744                  21370904.1424   21370904.1194
 -20886352.37444 -16275063.29644                  21133027.4914   21133027.6414
  -6874028.11944  -5356382.35544                  23915348.8654   23915350.8864
 96 12  3  2 26 30.0000000  0  8G27G19G31G18G26G 7G 2G15
 -18993600.36544 -14800198.94444                  20165540.5914   20165540.1064
   4215988.30044   3285188.01544                  22002709.9944   22002709.5324
   6625496.34144   5162733.34044                  24599036.2364   24599036.5724
  28788341.48444  22432471.88944                  25639770.9414   25639771.7844
  -4261740.83544  -3320836.35244                  23392996.0724   23392995.9644
 -19610388.24644 -15280812.19744                  21356890.0384   21356890.0564
 -20895804.40344 -16282428.50944                  21131228.9114   21131229.2674
  -6918825.41144  -5391289.32744                  23906824.8654   23906823.9204
 96 12  3  2 27  0.0000000  0  7G27G19G18G26G 7G 2G15
 -18984568.37144 -14793161.02944                  20167259.4034   20167258.9234
   4283439.15044   3337747.10744                  22015545.5514   22015544.9394
  28899480.37944  22519073.60344                  25660919.9454   25660920.3714
  -4325737.68144  -3370704.01144                  23380817.6994   23380817.9864
 -19683640.16444 -15337891.60244                  21342950.7294   21342950.6214
 -20905074.57344 -16289652.01544                  21129464.9034   21129465.1214
  -6963204.69644  -5425870.55044                  23898380.4214   23898378.9204
 96 12  3  2 27 30.0000000  0  7G27G19G18G26G 7G 2G15
 -18975146.74244 -14785819.50344                  20169052.3444   20169051.7144
   4351193.98644   3390543.07044                  22028439.1474   22028438.7624
  29010521.53544  22605599.18644                                  25682050.5434
  -4389325.17144  -3420252.69744                  23368717.3444   23368716.9194
 -19756514.92344 -15394677.11744                  21329083.2364   21329083.5444
 -20914177.94344 -16296745.54344                  21127732.6224   21127732.7624
  -7007186.22744  -5460141.83344                  23890010.4354   23890011.4024
 96 12  3  2 28  0.0000000  0  7G27G19G18G26G 7G 2G15
 -18965312.71844 -14778156.63544                  20170923.7074   20170923.1614
   4419243.79544   3443568.87744                  22041388.6044   22041388.1914
  29121473.80544  22692055.45544                                  25703163.7854
  -4452493.40444  -3469474.69044                  23356697.0184   23356696.5604
 -19828993.18244 -15451153.67544                  21315291.0984   21315291.4454
 -20923098.93044 -16303696.96044                  21126035.0704   21126035.2224
  -7050759.84244  -5494095.28544                  23881717.9204   23881718.2274
 96 12  3  2 28 30.0000000  0  7G27G19G18G26G 7G 2G15
 -18955058.19544 -14770166.10444                  20172875.0344   20172874.5274
   4487588.79744   3496824.70644                  22054393.8484   22054393.5454
  29232333.09544  22778439.35444                  25724259.5434   25724261.0694
  -4515242.80844  -3518370.32044                  23344756.0504   23344755.7414
 -19901069.31144 -15507316.88244                  21301575.3274   21301575.6254
 -20931852.69544 -16310518.07144                  21124369.1764   21124369.4844
  -7093926.01644  -5527731.25344                  23873503.7514   23873506.4844
 96 12  3  2 29  0.0000000  0  7G27G19G18G26G 7G 2G15
 -18944370.73944 -14761838.22044                  20174908.6464   20174908.2584
   4556227.37244   3550309.30344                  22067455.0844   22067455.2264
  29343083.90244  22864738.67844                                  25745334.7424
  -4577584.99344  -3566948.63244                  23332892.7514   23332892.3744
 -19972753.33544 -15563174.55544                  21287934.3154   21287934.4634
 -20940429.28344 -16317201.12244                  21122737.1424   21122737.3944
  -7136683.27444  -5561048.57444                  23865368.2554   23865366.4604
 96 12  3  2 29 30.0000000  0  7G27G19G18G26G 7G 2G15
 -18933246.94444 -14753170.33044                  20177025.5944   20177025.1074
   4625164.07944   3604026.19844                  22080573.6394   22080573.1414
  29453721.55044  22950949.82244                                  25766388.1184
  -4639507.07944  -3615199.60544                  23321109.3704   23321109.4984
 -20044049.03844 -15618729.63544                  21274367.2214   21274367.3734
 -20948819.40544 -16323738.87644                  21121140.5774   21121140.7854
  -7179026.47144  -5594043.24744                  23857310.8504   23857311.2514
 96 12  3  2 30  0.0000000  0  7G27G19G18G26G 7G 2G15
 -18921680.98644 -14744157.90244                  20179226.5064   20179225.8844
   4694407.60744   3657982.17544                  22093750.6354   22093749.7434
  29564241.13744  23037068.90044                                  25787419.6174
  -4701003.07744  -3663118.56444                  23309407.1224   23309406.4994
 -20114958.18444 -15673983.50244                  21260873.6284   21260873.6924
 -20957035.26444 -16330140.84044                  21119577.1374   21119577.4404
  -7220950.17344  -5626711.03244                  23849332.3584   23849332.0444
 96 12  3  2 30 30.0000000  0  7G19G27G18G26G 7G 2G15
   4763942.63844   3712165.29644                  22106982.7254   22106982.1274
 -18909683.70744 -14734809.37844                  20181509.6214   20181509.0294
  29674624.18144                                                  25808424.9624
  -4762086.58344  -3710716.10844                  23297783.3544   23297783.3874
 -20185478.16144 -15728934.12344                  21247453.9594   21247453.8034
 -20965095.55644 -16336421.58544                  21118043.2014   21118043.4624
  -7262462.37344  -5659058.20144                  23841432.4394   23841431.9114
 96 12  3  2 31  0.0000000  0  7G27G19G18G26G 7G 2G15
 -18897243.82044 -14725115.96544                  20183876.7684   20183876.2274
   4833768.10144   3766574.73344                  22120269.8654   22120269.7034
  29784866.93244                                                  25829403.5934
  -4822747.69644  -3757984.50644                  23286239.7574   23286239.1124
 -20255600.00744 -15783574.50944                  21234110.3364   21234110.3394
 -20972985.81144 -16342569.83244                  21116541.8024   21116542.0044
  -7303554.24744  -5691077.81544                  23833612.9014   23833612.7194
 96 12  3  2 31 30.0000000  0  7G19G27G18G26G 7G 2G15
   4903901.00844   3821223.73744                  22133615.8254   22133615.3894
 -18884359.69744 -14715076.39244                  20186328.5914   20186328.1314
  29894980.84044                                                  25850357.5144
  -4882973.02344  -3804913.33044                  23274779.2864   23274778.8324
 -20325309.98944 -15837893.96544                  21220844.9824   21220845.3164
 -20980701.99844 -16348582.44244                  21115073.5434   21115073.8274
  -7344212.23144  -5722759.34844                  23825876.3324   23825876.5334
 96 12  3  2 32  0.0000000  0  7G19G27G18G26G 7G 2G15
   4974324.91844   3876099.49644                  22147016.9654   22147016.4764
 -18871036.29944 -14704694.52844                  20188863.9304   20188863.3494
  30004956.63144                                                  25871285.0244
  -4942764.37144  -3851503.98844                  23263401.5934   23263400.4284
 -20394599.31144 -15891885.63544                  21207659.6814   21207660.1044
 -20988247.20344 -16354461.81844                  21113637.7404   21113637.8304
  -7384434.59844  -5754101.42744                  23818222.6064   23818221.7104
 96 12  3  2 32 30.0000000  0  7G19G27G18G26G 7G 2G15
   5045013.60344   3931181.56644                  22160468.3754   22160468.1674
 -18857289.66744 -14693982.87244                  20191479.7154   20191479.1224
  30114770.86544                                                  25892182.5234
  -5002135.05144  -3897766.84744                  23252103.7934   23252102.9814
 -20463490.31244 -15945566.92744                  21194550.1394   21194550.6074
 -20995636.43444 -16360219.65544                  21112231.6204   21112231.7754
  -7424238.96544  -5785117.81244                  23810647.8104   23810647.3534
 96 12  3  2 33  0.0000000  0  7G19G27G18G26G 7G 2G15
   5116006.48644   3986500.67844                  22173977.4354   22173977.5824
 -18843096.86344 -14682923.54944                  20194180.6434   20194180.1324
  30224437.48944                                                  25913051.1504
  -5061059.67744  -3943682.13644                  23240890.5704   23240890.2724
 -20531979.98244 -15998935.49444                  21181516.9934   21181517.3854
 -21002850.82344 -16365841.25544                  21110858.7894   21110858.9984
  -7463604.33644  -5815792.10344                  23803156.8484   23803156.2144
 96 12  3  2 33 30.0000000  0  7G19G27G18G26G 7G 2G15
   5187306.26744   4042058.93444                  22187545.6514   22187545.3434
 -18828463.22544 -14671520.72044                  20196965.3664   20196964.7594
  30333958.37844                                                  25933891.5764
  -5119536.72944  -3989248.67144                  23229762.7154   23229762.2854
 -20600059.97244 -16051984.83144                  21168561.8554   21168562.1034
 -21009898.36244 -16371332.84244                  21109517.6934   21109517.9674
  -7502527.77244  -5846122.02944                  23795749.7874   23795749.0874
 96 12  3  2 34  0.0000000  0  7G27G19G18G26G 7G 2G15
 -18813385.37244 -14659771.75144                  20199834.6454   20199833.9694
   5258901.30344   4097847.25744                  22201170.0634   22201169.8834
  30443337.28644                                                  25954706.1854
  -5177566.43044  -4034466.62244                  23218720.1894   23218719.4394
 -20667723.29044 -16104709.48644                  21155685.9624   21155686.2954
 -21016783.56044 -16376697.92644                  21108207.4924   21108207.5244
  -7541016.76844  -5876113.44044                  23788425.4234   23788426.0274
 96 12  3  2 34 30.0000000  0  6G19G26G 7G27G 2G15
   5330789.79744   4153864.24744                  22214850.1934   22214849.9224
  -5235164.19344  -4079347.99544                  23207759.6624   23207758.8414
 -20734978.42244 -16157116.07344                  21142887.6344   21142887.8984
 -18797862.17144 -14647675.75544                  20202788.5914   20202787.9434
 -21023522.01844 -16381948.66744                  21106925.2154   21106925.4074
  -7579084.20144  -5905776.34744                  23781181.5754   23781181.9774
 96 12  3  2 35  0.0000000  0  6G19G26G27G 7G 2G15
   5402959.35644   4210100.24844                  22228583.4064   22228583.6804
  -5292343.60144  -4123903.37644                  23196878.7534   23196878.5184
 -18781908.07244 -14635243.99844                  20205824.4204   20205823.7884
 -20801827.80544 -16209206.49444                  21130166.5394   21130166.8374
 -21030119.20144 -16387089.32744                  21105669.7064   21105669.9294
  -7616738.07544  -5935117.01444                  23774016.2254   23774015.8894
 96 12  3  2 35 30.0000000  0  6G19G26G 7G27G 2G15
   5475423.11744   4266565.49944                  22242372.6364   22242372.9594
  -5349082.01844  -4168115.12244                  23186081.7544   23186081.1074
 -20868248.62044 -16260962.96644                  21117527.1274   21117527.3714
 -18765509.30244 -14622465.74344                  20208945.1464   20208944.5484
 -21036543.71244 -16392095.43844                  21104447.3094   21104447.4274
  -7653950.96544  -5964114.05244                  23766935.0554   23766934.4624
 96 12  3  2 36  0.0000000  0  6G19G26G 7G27G 2G15
   5548211.90544   4323284.02244                  22256223.9184   22256223.7064
  -5405349.56244  -4211959.95244                  23175374.4544   23175374.6974
 -20934229.35144 -16312376.51644                  21104971.3774   21104971.7134
 -18748640.98644 -14609321.60744                  20212155.0704   20212154.4474
 -21042766.01944 -16396943.98344                  21103263.2344   21103263.3224
  -7690694.52144  -5992745.37044                  23759942.0624   23759942.3464
 96 12  3  2 36 30.0000000  0  6G19G26G 7G27G 2G15
   5621297.53344   4380233.83544                  22270132.0054   22270131.4124
  -5461173.23144  -4255458.90644                  23164751.4894   23164751.0264
 -20999815.01444 -16363482.22044                  21092490.8834   21092490.9804
 -18731334.41644 -14595835.97244                  20215448.3564   20215447.7794
 -21048816.32744 -16401658.51044                  21102111.8034   21102112.0724
  -7726989.84944  -6021027.42744                  23753035.2874   23753034.1244
 96 12  3  2 37  0.0000000  0  6G19G26G27G 7G 2G15
   5694677.02844   4437412.63644                  22284095.6724   22284095.2544
  -5516555.53144  -4298613.94744                  23154212.7464   23154212.3944
 -18713607.92744 -14582023.13044                  20218821.7184   20218821.0434
 -21065009.24244 -16414282.90744                  21080084.8904   21080084.9974
 -21054698.70944 -16406242.18344                  21100992.3204   21100992.5644
  -7762835.35844  -6048958.98144                  23746215.0834   23746215.2224
 96 12  3  2 37 30.0000000  0  6G19G26G 7G 2G27G15
   5768343.73344   4494815.24244                  22298113.5864   22298113.4674
  -5571496.94944  -4341425.44444                  23143757.7824   23143757.2594
 -21129813.25744 -16464779.53444                  21067753.0604   21067753.2544
 -21060420.43344 -16410700.66544                  21099903.5984   21099903.6624
 -18695459.75844 -14567881.70644                  20222275.0914   20222274.4134
  -7798228.94044  -6076538.38944                  23739480.0174   23739480.5794
 96 12  3  2 38  0.0000000  0  6G19G26G27G 7G 2G15
   5842304.35944   4552446.88044                  22312187.9874   22312187.9174
  -5625979.16644  -4383879.12244                  23133390.0474   23133388.8604
 -18676865.32444 -14553392.54444                  20225813.5774   20225813.0004
 -21194200.31444 -16514951.25944                  21055500.4834   21055500.7784
 -21065977.54944 -16415030.88344                  21098846.0294   21098846.1734
  -7833153.94944  -6103752.66244                  23732833.6064   23732833.4854
 96 12  3  2 38 30.0000000  0  6G19G26G 7G27G 2G15
   5916546.51444   4610297.89544                  22326315.9834   22326315.4584
  -5680016.47844  -4425986.11244                  23123106.9044   23123107.1364
 -21258166.53044 -16564795.05644                  21043328.2044   21043328.2324
 -18657825.86444 -14538556.60344                  20229436.5264   20229436.0764
 -21071378.65744 -16419239.53744                  21097818.3444   21097818.4474
  -7867614.24744  -6130604.83844                  23726275.6854   23726274.7354
 96 12  3  2 39  0.0000000  0  6G19G26G 7G27G 2G15
   5991055.41444   4668356.75344                  22340494.4044   22340493.6404
  -5733622.09044  -4467756.71144                  23112906.1024   23112905.6954
 -21321706.52944 -16614306.73544                  21031237.0354   21031237.0604
 -18638349.78944 -14523380.44744                  20233142.8414   20233142.1044
 -21076631.58744 -16423332.72944                  21096818.7844   21096818.8254
  -7901617.88744  -6157101.15644                  23719804.9224   23719805.6494
 96 12  3  2 39 30.0000000  0  6G19G26G 7G 2G27G15
   6065829.58344   4726622.32344                  22354723.1324   22354723.2284
  -5786784.54044  -4509181.99444                  23102789.6514   23102789.1394
 -21384819.49044 -16663485.65744                  21019227.1274   21019227.0344
 -21081730.06244 -16427305.56344                  21095848.3874   21095848.3974
 -18618420.60344 -14507851.22144                  20236935.2594   20236934.5284
  -7935158.92644  -6183237.00744                  23713422.6844   23713422.3774
 96 12  3  2 40  0.0000000  0  6G19G26G 7G27G 2G15
   6140877.13444   4785100.91444                  22369004.1444   22369004.0674
  -5839495.35744  -4550255.36144                  23092759.0124   23092759.0124
 -21447490.42944 -16712320.14444                  21007301.2744   21007301.0614
 -18598026.45844 -14491959.68644                  20240816.0484   20240815.5244
 -21086672.12244 -16431156.51644                  21094907.9844   21094908.1394
  -7968236.71644  -6209011.89944                  23707128.2844   23707127.8594
 96 12  3  2 40 30.0000000  0  6G19G26G 7G 2G27G15
   6216221.58344   4843810.85744                  22383342.0304   22383341.7724
  -5891734.77144  -4590961.39344                  23082818.4794   23082818.1214
 -21509708.37944 -16760801.65244                  20995461.6054   20995461.4404
 -21091445.14944 -16434875.75644                  21093999.7194   21094000.0764
 -18577161.49244 -14475701.27644                  20244786.5744   20244785.9284
  -8000839.63744  -6234416.76044                  23700924.0334   23700924.9584
 96 12  3  2 41  0.0000000  0  6G 2G19G26G15G27G 7
 -21096056.22244 -16438468.79744                  21093122.2794   21093122.5024
   6291858.04144   4902748.34344                  22397735.5774   22397735.4184
  -5943489.69644  -4631289.91844                  23072969.9784   23072969.5364
  -8032969.03444  -6259452.65744                  23694810.1714   23694811.3554
 -18555821.43244 -14459072.66444                  20248847.5114   20248846.8704
 -21571488.27644 -16808941.82344                  20983705.1074   20983705.0934
 96 12  3  2 41 30.0000000  0  6G 2G19G26G15G27G 7
 -21100514.31344 -16441942.63444                  21092273.9034   21092274.1074
   6367787.38544   4961914.03844                  22412184.3844   22412184.1414
  -5994760.66844  -4671241.32844                  23063213.2634   23063212.8164
  -8064635.22044  -6284127.54944                  23688784.1014   23688784.8464
 -18534018.67444 -14442083.51144                  20252996.3324   20252995.7594
 -21632849.41244 -16856755.68744                  20972028.3354   20972028.4644
 96 12  3  2 42  0.0000000  0  6G 2G19G26G15G27G 7
 -21104824.07244 -16445300.88644                  21091453.8804   21091453.9714
   6444016.88244   5021313.63344                  22426690.0894   22426689.6744
  -6045547.29744  -4710815.32944                  23053548.7664   23053548.4224
  -8095833.86444  -6308438.17444                  23682847.3474   23682846.8294
 -18511766.03344 -14424743.79744                  20257230.8844   20257230.3354
 -21693785.69844 -16904238.50144                  20960432.4514   20960432.4914
 96 12  3  2 42 30.0000000  0  6G 2G19G26G15G27G 7
 -21108995.25444 -16448551.15644                  21090660.1224   21090660.3604
   6520516.54444   5080923.74144                  22441247.3104   22441247.0324
  -6095872.73544  -4750029.95044                  23043972.2464   23043971.3524
  -8126572.69644  -6332390.50144                  23676997.5164   23676997.9564
 -18489077.24444 -14407064.22844                  20261548.4784   20261547.8684
 -21754330.48844 -16951416.25144                  20948911.1984   20948911.2994
 96 12  3  2 43  0.0000000  0  6G 2G19G26G15G27G 7
 -21113023.68044 -16451690.18844                  21089893.5294   21089893.6594
   6597267.44744   5140729.62044                  22455852.6174   22455852.2594
  -6145762.08344  -4788904.76244                  23034478.7154   23034477.8424
  -8156856.56444  -6355988.29244                  23671234.4054   23671234.9774
 -18465955.44344 -14389047.25044                  20265948.4944   20265947.7474
 -21814493.34044 -16998296.39244                  20937462.6734   20937462.8614
 96 12  3  2 43 30.0000000  0  6G 2G19G26G15G27G 7
 -21116861.24444 -16454680.49444                  21089163.1164   21089163.3324
   6674314.59044   5200766.33244                  22470514.5374   22470514.0994
  -6195180.16644  -4827412.36844                  23025074.7404   23025074.3294
  -8186642.26644  -6379197.91944                  23665566.8004   23665567.4014
 -18442370.20244 -14370669.14844                  20270436.4814   20270435.9664
 -21874203.88944 -17044824.08544                  20926100.1424   20926100.3644
 96 12  3  2 44  0.0000000  0  6G 2G19G26G15G27G 7
 -21120541.11444 -16457547.92344                  21088462.8594   21088463.0514
   6751625.66944   5261008.71644                  22485226.3734   22485226.1684
  -6244154.89344  -4865574.50144                  23015755.1274   23015754.0674
  -8215949.79244  -6402034.92944                  23659990.2044   23659989.7264
 -18418338.94244 -14351943.49844                  20275009.3994   20275008.9614
 -21933478.03544 -17091011.72444                  20914820.5574   20914820.8434
 96 12  3  2 44 30.0000000  0  6G 2G19G26G15G27G 7
 -21124041.74144 -16460275.68044                  21087796.6794   21087796.9304
   6829204.33744   5321459.59644                  22499989.0804   22499989.1084
  -6292672.19444  -4903380.19944                  23006522.4654   23006521.6944
  -8244764.78144  -6424488.14244                  23654506.7014   23654506.7864
 -18393838.71544 -14332852.42044                  20279671.8874   20279671.2644
 -21992312.09044 -17136856.43544                  20903624.8534   20903624.7974
 96 12  3  2 45  0.0000000  0  6G 2G19G26G15G27G 7
 -21127353.86844 -16462856.55844                  21087166.4044   21087166.4654
   6907080.96744   5382142.66244                  22514808.6034   22514808.5344
  -6340693.03344  -4940799.03744                  22997384.4644   22997384.0474
  -8273068.98144  -6446543.34244                  23649120.2374   23649119.9274
 -18368869.32144 -14313395.75844                  20284423.4144   20284422.7804
 -22050676.64644 -17182335.30144                  20892518.5234   20892518.5874
 96 12  3  2 45 30.0000000  0  6G 2G19G26G15G27G 7
 -21130499.98444 -16465308.07444                  21086567.7324   21086567.9554
   6985252.56944   5443055.57244                  22529684.1654   22529683.4394
  -6388203.81444  -4977820.42344                  22988343.4794   22988343.4184
  -8300863.25544  -6468201.19544                  23643830.9254   23643830.5504
 -18343433.31744 -14293575.50144                  20289263.4974   20289263.0674
 -22108570.22144 -17227447.16944                  20881501.6874   20881501.7904
 96 12  3  2 46  0.0000000  0  6G 2G19G26G15G27G 7
 -21133506.52844 -16467650.83744                  21085995.6494   21085995.7914
   7063697.75144   5504181.66444                  22544611.8134   22544611.4424
  -6435223.48544  -5014459.13344                  22979395.8534   22979395.7574
  -8328166.61744  -6489476.53144                  23638635.7754   23638635.6754
 -18317545.17244 -14273402.92444                  20294189.7924   20294189.2934
 -22166038.43244 -17272227.58544                  20870565.7774   20870565.7644
 96 12  3  2 46 30.0000000  0  6G 2G19G26G15G27G 7
 -21136367.78944 -16469880.38944                  21085451.1274   21085451.4804
   7142403.95744   5565511.16344                  22559589.2094   22559589.6044
  -6481753.84044  -5050716.55544                  22970541.3514   22970540.8244
  -8354988.27744  -6510376.51144                  23633531.7494   23633530.5624
 -18291214.29244 -14252885.36444                  20299200.6134   20299199.9824
 -22223085.92544 -17316680.16944                  20859710.0114   20859709.7304
 96 12  3  2 47  0.0000000  0  6G 2G19G26G15G27G 7
 -21139085.66644 -16471998.21544                  21084934.0094   21084934.2204
   7221399.07944   5627065.77244                  22574621.7324   22574621.0614
  -6527784.79444  -5086584.84044                  22961781.9374   22961781.6094
  -8381320.11244  -6530894.82344                  23628520.6674   23628520.9544
 -18264427.85444 -14232012.82744                  20304298.0324   20304297.1984
 -22279680.88844 -17360780.13144                  20848940.2784   20848940.3334
 96 12  3  2 47 30.0000000  0  6G 2G19G26G15G27G 7
 -21141650.75544 -16473996.98344                  21084445.9354   21084446.1754
   7300693.32044   5688853.47144                  22589710.7114   22589710.7694
  -6573330.43144  -5122074.94644                  22953114.9574   22953114.4354
  -8407155.15244  -6551026.00244                  23623604.4144   23623604.7834
 -18237160.59644 -14210765.62244                  20309486.6394   20309486.1484
 -22335817.11344 -17404522.63844                  20838257.9364   20838258.2664
 96 12  3  2 48  0.0000000  0  6G 2G19G26G15G27G 7
 -21144054.47744 -16475870.01144                  21083988.3104   21083988.4444
   7380275.19044   5750865.29944                  22604854.4834   22604854.0084
  -6618414.47844  -5157205.38244                  22944535.8684   22944535.0624
  -8432502.26744  -6570776.97844                  23618781.0944   23618780.9804
 -18209425.74244 -14189154.05344                  20314764.4594   20314763.9324
 -22391499.45544 -17447911.47244                  20827661.9604   20827662.2994
 96 12  3  2 48 30.0000000  0  6G 2G19G26G15G27G 7
 -21146305.92744 -16477624.38744                  21083559.8674   21083560.2144
   7460114.26244   5813077.53744                  22620047.2334   22620046.8344
  -6663054.69144  -5191989.96344                  22936041.0054   22936040.5724
  -8457378.90644  -6590161.36744                  23614047.3774   23614046.8804
 -18181251.50944 -14167200.11544                  20320125.9574   20320125.3104
 -22446732.01644 -17490949.82544                  20817151.6044   20817151.6544
 96 12  3  2 49  0.0000000  0  6G 2G19G26G15G27G 7
 -21148401.16644 -16479257.04044                  21083161.1364   21083161.4834
   7540227.56444   5875503.46144                  22635292.1874   22635291.4364
  -6707242.92244  -5226422.34444                  22927632.2224   22927631.9874
  -8481760.77844  -6609160.22144                  23609407.6664   23609409.2124
 -18152627.52344 -14144895.72344                  20325572.8434   20325572.1994
 -22501505.49244 -17533630.44844                  20806728.6114   20806728.5254
 96 12  3  2 49 30.0000000  0  6G 2G19G26G15G27G 7
 -21150318.05344 -16480750.71744                  21082796.5504   21082796.9524
   7620596.19044   5938128.34444                  22650586.0024   22650586.0094
  -6750971.73644  -5260496.75144                  22919310.8904   22919310.3354
  -8505638.99644  -6627766.62744                  23604863.8254   23604864.4164
 -18123556.77944 -14122243.20544                  20331104.7744   20331104.1824
 -22555826.80144 -17575958.73144                  20796391.5464   20796391.6524
 96 12  3  2 50  0.0000000  0  6G 2G19G26G15G27G 7
 -21152040.55744 -16482092.92544                  21082468.7904   21082468.9974
   7701222.27344   6000953.84244                  22665928.7444   22665929.0134
  -6794214.67344  -5294192.53844                  22911082.1584   22911081.8164
  -8529003.89644  -6645973.03644                  23600417.3934   23600416.8794
 -18094044.73844 -14099246.81844                  20336720.7984   20336720.2374
 -22609690.42344 -17617930.37844                  20786141.6114   20786141.7724
 96 12  3  2 50 30.0000000  0  6G 2G19G26G15G27G 7
 -21153582.11544 -16483294.13844                  21082175.4394   21082175.5214
   7782126.52044   6063996.08644                  22681324.4914   22681323.6594
  -6836938.99744  -5327484.22144                  22902951.9564   22902951.5594
  -8551842.58744  -6663769.41044                  23596071.5374   23596070.7854
 -18064071.12344 -14075890.76144                  20342424.6174   20342424.0204
 -22663099.65244 -17659547.95444                  20775978.0674   20775978.3114
 96 12  3  2 51  0.0000000  0  6G 2G19G26G15G27G 7
 -21154977.59644 -16484381.52344                  21081909.9074   21081910.2524
   7863314.47944   6127259.40744                  22696774.1084   22696774.0154
  -6879158.58144  -5360382.59644                  22894917.7784   22894917.1534
  -8574169.58944  -6681167.05244                  23591822.6734   23591821.7724
 -18033638.30444 -14052176.88544                  20348215.7174   20348215.0764
 -22716074.44944 -17700827.01144                  20765897.1324   20765897.2394
 96 12  3  2 51 30.0000000  0  6G 2G19G26G15G27G 7
 -21156217.11144 -16485347.37844                  21081673.9874   21081674.2764
   7944801.45644   6190755.73044                  22712280.4514   22712279.6714
  -6920859.08344  -5392876.50144                  22886982.4064   22886982.2484
  -8595981.75344  -6698163.50344                  23587672.1244   23587671.4584
 -18002737.32744 -14028098.21344                  20354095.9794   20354095.3704
 -22768599.66644 -17741755.74344                  20755901.9914   20755901.9704
 96 12  3  2 52  0.0000000  0  6G 2G19G26G15G27G 7
 -21157316.67644 -16486204.18144                  21081464.7734   21081465.0674
   8026599.98844   6254494.81244                  22727845.9384   22727845.1624
  -6962034.25744  -5424961.05444                  22879147.2214   22879146.8214
  -8617271.71344  -6714753.09244                  23583620.6044   23583620.9014
 -17971355.09944 -14003644.53844                  20360067.8274   20360067.2474
 -22820670.93044 -17782330.74844                  20745993.2164   20745993.3254
 96 12  3  2 52 30.0000000  0  6G 2G19G26G15G27G 7
 -21158301.79744 -16486971.80644                  21081277.3444   21081277.4884
   8108680.52544   6318453.65344                  22743465.2804   22743465.2164
  -7002715.27744  -5456660.54944                  22871405.7374   22871405.2454
  -8638059.58044  -6730951.42944                  23579664.7244   23579664.4294
 -17939509.54144 -13978829.82644                  20366127.7404   20366127.3094
 -22872304.10444 -17822564.38444                  20736167.8874   20736167.9344
 96 12  3  2 53  0.0000000  0  6G 2G19G26G15G27G 7
 -21159155.25844 -16487636.83944                  21081114.9264   21081115.1484
   8191017.94844   6382612.65744                  22759133.5234   22759133.8354
  -7042918.14244  -5487987.47344                  22863755.3134   22863754.8474
  -8658347.80144  -6746760.42944                  23575804.2274   23575804.4964
 -17907217.81244 -13953667.44744                  20372272.8034   20372272.3114
 -22923491.26744 -17862450.47944                  20726427.2244   20726427.4214
 96 12  3  2 53 30.0000000  0  6G 2G19G26G15G27G 7
 -21159871.52944 -16488194.97044                  21080978.5824   21080978.8504
   8273575.25544   6446943.00644                  22774844.0634   22774844.8924
  -7082651.53344  -5518948.56644                  22856194.2614   22856193.7984
  -8678137.52444  -6762180.97044                  23572038.4404   23572038.8234
 -17874485.64244 -13928161.87044                  20378501.6034   20378500.9454
 -22974236.21844 -17901991.99544                  20716770.9114   20716771.0774
 96 12  3  2 54  0.0000000  0  6G 2G19G26G15G27G 7
 -21160453.23444 -16488648.24444                  21080867.9284   21080868.2244
   8356344.31844   6511438.35844                  22790594.6814   22790594.9924
  -7121911.90844  -5549541.07244                  22848723.3994   22848723.2854
  -8697421.06444  -6777207.09044                  23568368.8994   23568367.8424
 -17841298.74844 -13902301.96544                  20384816.8814   20384816.1314
 -23024538.15944 -17941188.30944                  20707198.7204   20707198.8554
 96 12  3  2 54 30.0000000  0  6G 2G19G26G15G27G 7
 -21160870.97244 -16488973.75444                  21080788.4984   21080788.7134
   8439340.93944   6576111.02044                  22806388.2494   22806388.2654
  -7160678.14344  -5579748.53044                  22841346.3824   22841346.4524
  -8716180.21744  -6791824.59144                  23564798.8984   23564799.8134
 -17807640.76444 -13876074.97444                  20391221.4924   20391220.9654
 -23074366.29044 -17980015.41844                  20697716.6284   20697716.6454
 96 12  3  2 55  0.0000000  0  6G 2G19G26G15G27G 7
 -21161131.59744 -16489176.83944                  21080738.9344   21080739.2344
   8522575.54044   6640969.12844                  22822227.4234   22822226.9624
  -7198946.07044  -5609567.69644                  22834064.4034   22834064.0874
  -8734414.05144  -6806032.77544                  23561328.9884   23561329.6264
 -17773507.29044 -13849477.47144                  20397717.1114   20397716.6154
 -23123718.89444 -18018471.98544                  20688325.0694   20688325.0684
 96 12  3  2 55 30.0000000  0  6G 2G19G26G15G27G 7
 -21161225.93644 -16489250.34844                  21080720.8674   21080721.1134
   8606077.74444   6706035.75044                  22838117.4904   22838117.1024
  -7236690.54544  -5638978.98344                  22826881.8924   22826881.5104
  -8752109.87544  -6819821.72644                  23557961.6314   23557961.5114
 -17738874.84944 -13822491.16244                  20404307.4524   20404306.7194
 -23172586.12544 -18056550.34044                  20679025.9204   20679025.9064
 96 12  3  2 56  0.0000000  0  6G 2G19G26G15G27G 7
 -21161166.73344 -16489204.21644                  21080732.1274   21080732.3414
   8689860.60144   6771321.07444                  22854060.7314   22854060.7444
  -7273905.94544  -5667977.99944                  22819799.8824   22819799.7904
  -8769280.82044  -6833201.67744                  23554694.1204   23554693.6394
 -17703765.26244 -13795133.05544                  20410988.5584   20410988.0264
 -23220975.53144 -18094256.36444                  20669817.9154   20669817.9094
 96 12  3  2 56 30.0000000  0  6G 2G19G26G15G27G 7
 -21160938.77644 -16489026.58544                  21080775.5114   21080775.7084
   8773943.22344   6836839.97344                  22870061.0094   22870061.4294
  -7310576.58144  -5696552.52544                  22812821.7494   22812821.3654
  -8785915.11844  -6846163.45844                  23551529.2344   23551527.4544
 -17668181.70744 -13767405.61744                  20417759.7974   20417759.3684
 -23268885.05844 -18131588.45944                  20660701.0584   20660701.1364
 96 12  3  2 57  0.0000000  0  6G 2G19G26G15G27G 7
 -21160573.15944 -16488741.69044                  21080845.0854   21080845.4154
   8858310.95144   6902581.04044                  22886115.4454   22886115.1154
  -7346730.61944  -5724724.50744                  22805941.8194   22805941.3314
  -8802031.08344  -6858721.33644                  23548462.3244   23548461.2914
 -17632144.63944 -13739324.79344                  20424617.6024   20424617.0334
 -23316360.17744 -18168582.05344                  20651666.7394   20651666.6914
 96 12  3  2 57 30.0000000  0  6G 2G19G26G15G27G 7
 -21160085.19844 -16488361.46044                  21080937.9564   21080938.2144
   8942943.65544   6968528.58344                  22902220.6144   22902220.6524
  -7382383.74944  -5752506.16744                  22799157.3414   22799157.3664
  -8817641.19644  -6870885.05844                  23545491.3794   23545490.5144
 -17595676.66644 -13710908.20044                  20431557.2714   20431556.7504
 -23363423.51544 -18205254.77744                  20642710.8824   20642710.8474
 96 12  3  2 58  0.0000000  0  6G 2G19G26G15G27G 7
 -21159477.65544 -16487888.05244                  21081053.4824   21081053.7434
   9027843.51944   7034684.29844                  22918376.7774   22918376.7744
  -7417543.04244  -5779903.02044                  22792466.7304   22792466.2284
  -8832736.38244  -6882647.53644                  23542618.8844   23542619.2994
 -17558773.89644 -13682152.80544                  20438579.5104   20438579.0494
 -23410074.37344 -18241606.08744                  20633833.4694   20633833.6004
 96 12  3  2 58 30.0000000  0  6G 2G19G26G15G27G 7
 -21158747.68344 -16487319.24244                  21081192.4534   21081192.7774
   9112996.62244   7101037.33844                  22934581.0024   22934580.5924
  -7452230.61944  -5806932.30244                  22785866.0904   22785865.6434
  -8847315.98744  -6894008.26244                  23539845.0454   23539845.7604
 -17521429.73644 -13653053.46844                  20445685.9984   20445685.4554
 -23456319.10244 -18277640.93444                  20625033.3494   20625033.5384
 96 12  3  2 59  0.0000000  0  6G 2G19G26G15G27G 7
 -21157889.37644 -16486650.43144                  21081355.8064   21081355.9474
   9198404.15444   7167588.64244                  22950833.1744   22950832.6944
  -7486454.17144  -5833600.00944                  22779353.7104   22779352.9874
  -8861373.08544  -6904961.84144                  23537169.7194   23537169.0114
 -17483627.30844 -13623597.04144                  20452879.6404   20452879.1004
 -23502126.91444 -18313335.32744                  20616316.4664   20616316.6624
 96 12  3  2 59 30.0000000  0  6G 2G19G26G15G27G 7
 -21156886.44244 -16485868.92244                  21081546.5634   21081546.9004
   9284058.69444   7234332.41644                  22967132.6524   22967132.7524
  -7520213.32244  -5859905.84444                  22772929.2284   22772928.9094
  -8874902.72444  -6915504.40344                  23534594.8934   23534595.2604
 -17445360.37844 -13593778.66544                  20460161.5394   20460160.9394
 -23547467.44544 -18348665.60644                  20607688.4334   20607688.3844
 96 12  3  3  0  0.0000000  0  6G 2G19G26G15G27G 7
 -21155749.12344 -16484982.69844                  21081762.9774   21081763.2424
   9369947.69944   7301258.88844                  22983477.2264   22983477.5814
  -7553515.00144  -5885855.20844                  22766592.0594   22766591.7444
  -8887908.03444  -6925638.41644                  23532119.8124   23532119.4934
 -17406624.87144 -13563595.16244                  20467532.5094   20467532.0244
 -23592331.68744 -18383624.74944                  20599151.1094   20599151.1764
 96 12  3  3  0 30.0000000  0  6G 2G19G26G15G27G 7
 -21154460.05144 -16483978.22544                  21082008.3854   21082008.5114
   9456069.40144   7368366.67644                  22999865.6314   22999865.6994
  -7586341.89344  -5911434.59944                  22760345.3844   22760345.4044
  -8900378.42744  -6935355.63244                  23529746.9604   23529746.3024
 -17367404.73744 -13533034.02944                  20474995.9624   20474995.3894
 -23636692.68044 -18418191.74644                  20590709.5284   20590709.6384
 96 12  3  3  1  0.0000000  0  6G 2G19G26G15G27G 7
 -21152998.32844 -16482839.21944                  21082286.4044   21082286.4944
   9542439.25244   7435667.84044                  23016301.0084   23016300.6564
  -7618662.39044  -5936619.40944                  22754194.9764   22754194.5424
  -8912295.30244  -6944641.46044                  23527479.8804   23527478.5964
 -17327688.00444 -13502085.93444                  20482553.8244   20482553.3204
 -23680527.01044 -18452348.36144                  20582368.0764   20582368.1914
 96 12  3  3  1 30.0000000  0  6G 2G19G26G15G27G 7
 -21151346.25744 -16481551.89144                  21082600.8394   21082601.1544
   9629053.82144   7503159.68644                  23032782.8814   23032783.4184
  -7650435.18244  -5961377.43044                  22748148.7414   22748148.4344
  -8923646.45744  -6953486.51144                  23525319.8744   23525319.3724
 -17287482.39644 -13470756.90044                  20490204.6434   20490204.1004
 -23723844.88944 -18486102.54944                  20574124.7884   20574125.0484
 96 12  3  3  2  0.0000000  0  6G 2G19G26G15G27G 7
 -21149511.67344 -16480122.34744                  21082950.0064   21082950.0794
   9715912.47844   7570841.73244                  23049311.5234   23049312.0444
  -7681640.17144  -5985693.00944                  22742210.7624   22742210.3204
  -8934433.43144  -6961891.93344                  23523266.9904   23523266.6144
 -17246797.18544 -13439054.15044                  20497946.8774   20497946.2944
 -23766659.53444 -18519464.60744                  20565977.5534   20565977.9314
 96 12  3  3  2 30.0000000  0  6G 2G19G26G15G27G 7
 -21147490.08744 -16478547.08844                  21083334.7634   21083334.7054
   9803001.70544   7638703.43944                  23065884.3644   23065884.5484
  -7712280.99744  -6009568.98044                  22736380.0034   22736379.6874
  -8944667.24744  -6969866.31944                  23521318.9264   23521319.1364
 -17205657.53944 -13406997.29544                  20505775.4964   20505774.8124
 -23808990.89644 -18552450.08144                  20557922.2504   20557922.4774
 96 12  3  3  3  0.0000000  0  6G 2G19G26G15G27G 7
 -21145274.09644 -16476820.34444                  21083756.4534   21083756.6124
   9890345.52544   7706763.53544                  23082505.6104   23082505.1334
  -7742343.63644  -6032994.41744                  22730659.1464   22730658.6864
  -8954333.33844  -6977398.31844                  23519479.5904   23519479.9264
 -17164062.23744 -13374585.38344                  20513690.7734   20513690.2094
 -23850841.12944 -18585060.64544                  20549958.3494   20549958.2454
 96 12  3  3  3 30.0000000  0  6G 2G19G26G15G27G 7
 -21142890.77444 -16474963.21144                  21084210.0474   21084210.1044
   9977935.13644   7775015.14844                  23099173.3634   23099173.8904
  -7771844.39444  -6055982.02444                  22725045.2964   22725044.8344
  -8963442.40844  -6984496.29344                  23517746.5684   23517745.3094
 -17122008.53144 -13341816.27144                  20521693.3614   20521692.9074
 -23892224.35944 -18617307.30944                  20542083.3604   20542083.0794
 96 12  3  3  4  0.0000000  0  6G 2G19G26G15G27G 7
 -21140372.19444 -16473000.68044                  21084689.1354   21084689.3324
  10065771.48644   7843459.03444                  23115887.8714   23115888.2134
  -7800824.16344  -6078563.66544                  22719530.6414   22719530.9774
  -8972011.02644  -6991173.11144                  23516115.8264   23516116.3364
 -17079496.19344 -13308689.78444                  20529783.2304   20529782.7364
 -23933150.30344 -18649197.64744                  20534295.4554   20534295.4634
 96 12  3  3  4 30.0000000  0  6G 2G19G26G15G27G 7
 -21137716.30544 -16470931.15544                  21085194.5934   21085194.8194
  10153862.27344   7912101.18144                  23132650.8384   23132651.5834
  -7829298.40944  -6100751.39044                  22714112.3804   22714111.7854
  -8980038.37944  -6997428.18644                  23514588.1914   23514587.8204
 -17036522.04844 -13275203.44644                  20537960.9254   20537960.4244
 -23973620.63844 -18680732.96744                  20526594.2004   20526594.4424
 96 12  3  3  5  0.0000000  0  6G 2G19G26G15G27G 7
 -21134937.49944 -16468765.85144                  21085723.4864   21085723.7394
  10242224.93444   7980955.17044                  23149466.1454   23149466.6774
  -7857266.50944  -6122544.71144                  22708790.3134   22708789.5934
  -8987522.62544  -7003260.05744                  23513163.7434   23513164.2424
 -16993065.99644 -13241341.60044                  20546230.3594   20546229.7524
 -24013633.02544 -18711911.44844                  20518980.0434   20518980.4034
 96 12  3  3  5 30.0000000  0  6G 2G19G26G15G27G 7
 -21132055.25044 -16466519.94044                  21086271.9294   21086272.1534
  10330833.83744   8050001.04644                  23166328.0564   23166328.2664
  -7884736.13444  -6143949.62644                  22703562.7924   22703562.2144
  -8994478.71344  -7008680.38244                  23511840.1624   23511839.3524
 -16949143.47144 -13207116.26844                  20554588.4904   20554587.9384
 -24053198.12944 -18742741.39744                  20511451.0124   20511451.1734
 96 12  3  3  6  0.0000000  0  6G 2G19G26G15G27G 7
 -21129044.36244 -16464173.79244                  21086844.7614   21086844.8324
  10419708.18544   8119253.75144                  23183240.0194   23183239.4704
  -7911688.65344  -6164951.59444                  22698433.9884   22698433.5454
  -9000891.53044  -7013677.36844                  23510619.7374   23510618.9584
 -16904756.28644 -13172528.86344                  20563035.0954   20563034.4834
 -24092302.35244 -18773212.21644                  20504009.6414   20504009.6684
 96 12  3  3  6 30.0000000  0  6G 2G19G26G15G27G 7
 -21125894.79844 -16461719.58544                  21087444.1354   21087444.2844
  10508842.20844   8188708.81244                  23200201.5004   23200201.1754
  -7938110.61744  -6185540.15344                  22693406.2474   22693405.9724
  -9006757.53744  -7018248.27944                  23509503.8754   23509504.0994
 -16859895.72844 -13137572.59344                  20571571.8324   20571571.4034
 -24130940.16944 -18803319.60044                  20496657.3644   20496657.2054
 96 12  3  3  7  0.0000000  0  6G 2G19G26G15G27G 7
 -21122624.12844 -16459171.01144                  21088066.6014   21088066.7784
  10598198.58544   8258337.13344                  23217205.2294   23217206.1134
  -7964012.67544  -6205723.58444                  22688477.1934   22688476.7604
  -9012094.31444  -7022406.79944                  23508488.0284   23508488.4654
 -16814586.18144 -13102266.46244                  20580193.8904   20580193.4094
 -24169131.36744 -18833078.96944                  20489389.8454   20489389.8034
 96 12  3  3  7 30.0000000  0  6G 2G19G26G15G27G 7
 -21119221.01444 -16456519.23344                  21088714.1024   21088714.3604
  10687753.92244   8328120.49044                  23234247.2924   23234247.0014
  -7989396.34244  -6225503.08244                  22683646.8064   22683646.4974
  -9016901.56844  -7026152.71544                  23507572.9494   23507573.9094
 -16768848.49044 -13066626.71344                  20588897.6194   20588896.9274
 -24206879.13844 -18862492.81144                  20482206.5464   20482206.5924
 96 12  3  3  8  0.0000000  0  6G 2G19G26G15G27G 7
 -21115672.07944 -16453753.82944                  21089389.4684   21089389.5974
  10777508.87744   8398059.39144                  23251327.5464   23251327.0804
  -8014269.08144  -6244884.43944                  22678913.8164   22678913.7814
  -9021175.01344  -7029482.67744                  23506759.9954   23506759.0484
 -16722672.91944 -13030645.76244                  20597684.5974   20597683.8634
 -24244177.98444 -18891556.84444                  20475108.7824   20475108.8474
 96 12  3  3  8 30.0000000  0  6G 2G19G26G15G27G 7
 -21111979.90544 -16450876.81044                  21090092.1044   21090092.2874
  10867452.44244   8468145.25644                  23268443.3384   23268443.4924
  -8038640.71344  -6263875.32644                  22674275.7794   22674275.3784
  -9024912.75044  -7032395.17544                  23506049.3184   23506048.0034
 -16676053.35844 -12994318.84644                  20606555.8314   20606555.2324
 -24281019.33844 -18920264.39044                  20468097.9314   20468097.9574
 96 12  3  3  9  0.0000000  0  6G 2G19G26G15G27G 7
 -21108134.25844 -16447880.20244                  21090823.8354   21090823.8974
  10957589.53544   8538381.92644                  23285595.5764   23285595.6094
  -8062514.26244  -6282478.09844                  22669732.8224   22669732.5144
  -9028105.99444  -7034883.42044                  23505441.8064   23505440.5374
 -16628997.83144 -12957652.21244                  20615510.0894   20615509.7324
 -24317390.64344 -18948605.66144                  20461176.9904   20461176.7684
 96 12  3  3  9 30.0000000  0  6G 2G19G26G15G27G 7
 -21104120.38244 -16444752.50744                  21091587.6844   21091587.8254
  11047957.60644   8608798.57244                  23302791.9924   23302793.0844
  -8085879.42044  -6300684.71744                  22665286.5624   22665286.5324
  -9030730.88244  -7036928.74844                  23504941.5504   23504940.5564
 -16581469.08844 -12920616.83744                  20624554.7374   20624554.3434
 -24353252.32044 -18976549.81544                  20454352.7734   20454352.5184
 96 12  3  3 10  0.0000000  0  6G 2G19G26G15G27G 7
 -21099948.61344 -16441501.78044                  21092381.6004   21092381.6744
  11138567.38844   8679403.57244                  23320034.3974   23320034.8944
  -8108743.03144  -6318500.54244                  22660935.8474   22660935.3534
  -9032788.52744  -7038532.11644                  23504549.3144   23504548.7554
 -16533455.08144 -12883203.33544                  20633691.6654   20633691.0434
 -24388599.22044 -19004092.84644                  20447626.3254   20447626.2884
 96 12  3  3 10 30.0000000  0  6G 2G19G26G15G27G 7
 -21095625.82244 -16438133.37144                  21093204.1154   21093204.2724
  11229428.99044   8750204.81144                  23337324.5654   23337325.2224
  -8131097.15244  -6335919.35244                  22656682.2004   22656681.5004
  -9034273.47844  -7039689.21044                  23504267.2024   23504266.9184
 -16484953.66444 -12845410.03544                  20642920.9654   20642920.3614
 -24423425.75744 -19031230.40144                  20440998.8764   20440999.1374
 96 12  3  3 11  0.0000000  0  6G 2G19G26G15G27G 7
 -21091160.07444 -16434653.56644                  21094053.9544   21094054.2114
  11320544.59344   8821203.95444                  23354663.4664   23354663.2714
  -8152922.19244  -6352925.89744                  22652529.1014   22652528.6764
  -9035183.13944  -7040398.04644                  23504094.9394   23504094.6884
 -16435958.82144 -12807232.24944                  20652244.3834   20652243.8304
 -24457734.48344 -19057964.47044                  20434470.2214   20434470.4894
 96 12  3  3 11 30.0000000  0  6G 2G19G26G15G27G 7
 -21086557.88744 -16431067.44444                  21094929.6794   21094930.0214
  11411915.59544   8892402.10944                  23372050.9754   23372050.2984
  -8174204.97944  -6369509.89744                  22648478.9624   22648478.5754
  -9035513.51844  -7040655.46744                  23504031.7834   23504031.6084
 -16386463.00044 -12768664.09144                  20661663.2354   20661662.6514
 -24491529.65944 -19084298.36744                  20428039.2554   20428039.1984
 96 12  3  3 12  0.0000000  0  6G 2G19G26G15G27G 7
 -21081828.40544 -16427382.13444                  21095829.7354   21095830.0574
  11503513.33144   8963776.94944                  23389481.5704   23389482.1614
  -8194948.95444  -6385674.03744                  22644531.3114   22644531.2784
  -9035281.32144  -7040474.52844                  23504075.8984   23504075.4334
 -16336499.70244 -12729731.66444                  20671170.9904   20671170.5284
 -24524851.25844 -19110263.24144                  20421698.5004   20421698.5234
 96 12  3  3 12 30.0000000  0  6G 2G27G19G26G 7G15
 -21076956.39344 -16423585.76044                  21096756.7594   21096756.9214
 -16286064.14844 -12690431.24244                  20680768.5034   20680768.0464
  11595340.07144   9035330.22044                  23406955.7434   23406956.6594
  -8215144.65144  -6401410.94944                  22640688.3544   22640687.9474
 -24557697.33744 -19135857.58144                  20415447.9084   20415447.8054
  -9034477.41144  -7039848.11344                  23504228.7784   23504228.5334
 96 12  3  3 13  0.0000000  0  7G 2G27G19G 4G26G 7G15
 -21071899.41144 -16419645.25144                  21097719.0474   21097719.2384
 -16235137.40644 -12650748.07544                  20690459.4114   20690458.9494
  11687420.34944   9107081.05944                  23424477.7814   23424478.5194
        -0.45854         0.26454                  25202504.8944   25202502.9744
  -8234756.18144  -6416692.66044                  22636956.4104   22636956.4484
 -24590050.60344 -19161067.91044                  20409291.3814   20409291.4124
  -9033070.67044  -7038751.94044                  23504496.2794   23504496.7114
 96 12  3  3 13 30.0000000  0  7G 2G19G27G 4G26G 7G15
 -21066668.72944 -16415569.39444                  21098714.6024   21098714.7064
  11779727.63344   9179008.80344                  23442043.2584   23442044.2424
 -16183768.60544 -12610720.44844                  20700234.5174   20700233.9454
    -97005.76944    -75588.26744                  25184044.7614   25184044.3844
  -8253821.50544  -6431548.76244                  22633328.6574   22633328.6754
 -24621950.67644 -19185925.10244                  20403220.8984   20403221.0104
  -9031092.12844  -7037210.17444                  23504873.1104   23504872.4974
 96 12  3  3 14  0.0000000  0  7G 2G27G19G 4G26G 7G15
 -21061296.25344 -16411383.04944                  21099736.8144   21099736.9704
 -16132001.84644 -12570382.72844                  20710085.6134   20710085.0234
  11872223.53244   9251083.50144                  23459644.3834   23459645.6104
   -194185.01344   -151312.35144                  25165552.0204   25165550.0634
  -8272384.12144  -6446013.14944                  22629796.2514   22629795.7594
 -24653441.29444 -19210463.23844                  20397228.4224   20397228.5714
  -9028582.12844  -7035254.30444                  23505350.9254   23505350.3464
 96 12  3  3 14 30.0000000  0  7G 2G27G19G 4G26G 7G15
 -21055765.17344 -16407073.11744                  21100789.3094   21100789.6044
 -16079809.50644 -12529713.38344                  20720017.4104   20720016.8524
  11964936.64844   9323327.44944                  23477287.1294   23477288.2844
   -291516.22944   -227154.87544                  25147030.6014   25147032.0944
  -8290422.52144  -6460069.06244                  22626363.5624   22626362.6944
 -24684480.89944 -19234649.93744                  20391321.8244   20391321.7634
  -9025517.41244  -7032866.19144                  23505933.8954   23505934.3384
 96 12  3  3 15  0.0000000  0  7G 2G27G19G 4G26G 7G15
 -21050081.92644 -16402644.61344                  21101870.8724   21101871.0894
 -16027196.79944 -12488716.47844                  20730029.2204   20730028.7514
  12057864.28144   9395738.56944                  23494970.8594   23494970.0884
   -389009.74544   -303123.81144                  25128477.7844   25128477.4304
  -8307933.73944  -6473714.18144                  22623031.2034   22623030.7894
 -24715054.58244 -19258473.57844                  20385503.9944   20385503.9394
  -9021901.31644  -7030048.41944                  23506621.7164   23506621.0354
 96 12  3  3 15 30.0000000  0  7G 2G27G19G 4G26G 7G15
 -21044246.16144 -16398097.26444                  21102981.3344   21102981.3124
 -15974141.62144 -12447374.79144                  20740125.5214   20740124.8444
  12151014.19344   9468322.88944                  23512696.8584   23512696.9604
   -486666.28944   -379219.82544                  25109894.0494   25109893.7254
  -8324922.53044  -6486952.21444                  22619798.2214   22619798.0314
 -24745138.35644 -19281915.47244                  20379779.0824   20379779.1304
  -9017728.95444  -7026797.23644                  23507415.7454   23507415.4374
 96 12  3  3 16  0.0000000  0  7G 2G27G19G 4G26G 7G15
 -21038269.51744 -16393440.14244                  21104118.7844   21104118.8714
 -15920620.79344 -12405670.26544                  20750310.2224   20750309.4934
  12244373.47644   9541070.36144                  23530462.6884   23530462.3174
   -584493.59244   -455448.90644                  25091278.3354   25091278.0514
  -8341385.21544  -6499780.28744                  22616665.5554   22616665.4074
 -24774726.89044 -19304971.46544                  20374148.6304   20374148.7354
  -9012998.83744                                                  23508315.8254
 96 12  3  3 16 30.0000000  0  7G 2G27G19G 4G26G 7G15
 -21032160.22744 -16388679.65544                  21105281.2834   21105281.5074
 -15866628.73844 -12363598.54844                  20760584.3554   20760583.8894
  12337934.29744   9613974.86444                  23548266.9644   23548267.5984
   -682487.41544   -531807.74544                  25072630.5804   25072630.1144
  -8357320.58044  -6512197.46244                  22613633.2734   22613632.6064
 -24803820.46144 -19327641.77644                  20368612.4034   20368612.5074
  -9007717.07044  -7018996.40044                  23509320.8964   23509320.7204
 96 12  3  3 17  0.0000000  0  7G 2G19G27G 4G26G 7G15
 -21025907.36144 -16383807.29144                  21106471.1214   21106471.2894
  12431709.49344   9687046.42444                  23566111.9084   23566112.2834
 -15812151.86544 -12321149.04644                  20770951.0014   20770950.6134
   -780632.16344   -608284.20744                  25053954.2574   25053952.9414
  -8372721.31144  -6524198.03044                  22610702.5354   22610702.2194
 -24832421.07844 -19349927.96344                  20363169.7944   20363169.9114
  -9001870.61144  -7014444.22244                  23510433.1254   23510433.4924
 96 12  3  3 17 30.0000000  0  7G 2G27G19G 4G26G 7G15
 -21019513.67944 -16378825.19944                  21107687.8724   21107688.1954
 -15757186.27544 -12278318.72444                  20781410.6424   20781410.2664
  12525688.73544   9760276.97044                  23583995.2664   23583994.2154
   -878927.71444   -684878.14244                  25035249.2364   25035251.0204
  -8387586.30744  -6535781.14144                  22607873.7974   22607873.7284
 -24860562.25444 -19371856.14744                  20357814.4714   20357814.5074
  -8995460.04644  -7009448.00244                  23511653.2024   23511653.5624
 96 12  3  3 18  0.0000000  0  7G 2G19G27G 4G26G 7G15
 -21012988.64944 -16373740.76144                  21108929.5624   21108929.8944
  12619885.13944   9833676.74244                  23601920.4944   23601921.1104
 -15701735.86544 -12235110.62144                  20791962.5104   20791962.0214
   -977359.13844   -761577.95744                  25016517.7124   25016517.3664
  -8401911.35644  -6546943.51744                  22605147.8024   22605147.8544
 -24888240.60444 -19393423.68644                  20352547.4224   20352547.4744
  -8988479.61544  -7004005.31444                  23512981.9194   23512983.8624
 96 12  3  3 18 30.0000000  0  7G 2G27G19G 4G26G 7G15
 -21006355.82944 -16368572.33044                  21110191.6884   21110191.9014
 -15645829.81944 -12191547.48344                  20802601.1094   20802600.5444
  12714307.41644   9907252.51844                  23619888.3744   23619888.2654
  -1075924.38144   -838382.07444                  24997761.6664   24997761.5384
  -8415723.30944  -6557706.07344                  22602519.5824   22602519.2504
 -24915453.31344 -19414628.38744                  20347368.9874   20347368.9914
  -8980937.82144  -6998128.85044                  23514417.2024   23514415.2074
 96 12  3  3 19  0.0000000  0  7G 2G19G27G 4G26G 7G15
 -20999629.37344 -16363330.93644                  21111471.6474   21111471.8344
  12808930.93144   9980985.08944                  23637894.4614   23637894.0694
 -15589491.17144 -12147647.25144                  20813321.8684   20813321.3924
  -1174633.23944   -915298.07244                  24978978.2844   24978978.4534
  -8429041.02444  -6568083.52444                  22599985.3504   22599985.1714
 -24942209.23544 -19435477.15144                  20342277.6284   20342277.6044
  -8972841.89444  -6991820.36144                  23515957.4014   23515957.0704
 96 12  3  3 19 30.0000000  0  7G 2G27G19G 4G26G 7G15
 -20992790.96344 -16358002.30744                  21112773.0594   21112773.1844
 -15532711.46944 -12103403.33744                  20824126.6654   20824126.1994
  12903757.54744  10054875.93744                  23655939.4664   23655939.1344
  -1273463.86944   -992308.98144                  24960171.0224   24960173.8084
  -8441861.25344  -6578073.32544                  22597545.7984   22597545.2734
 -24968476.07244 -19455944.80944                  20337279.1784   20337279.2944
  -8964175.86744  -6985067.63544                  23517606.2754   23517605.3494
 96 12  3  3 20  0.0000000  0  7G 2G27G19G 4G26G 7G15
 -20985813.52144 -16352565.34144                  21114100.8124   21114100.8344
 -15475485.12044 -12058811.38944                  20835016.8574   20835016.2964
  12998810.25244  10128942.95144                  23674027.6104   23674027.3724
  -1372396.02844  -1069398.96944                  24941345.1024   24941345.9944
  -8454168.52544  -6587663.41244                  22595203.7084   22595203.2474
 -24994208.34044 -19475995.92144                  20332382.5994   20332382.6514
  -8954919.23844  -6977854.62544                  23519368.0364   23519367.7244
 96 12  3  3 20 30.0000000  0  7G 2G27G19G 4G26G 7G15
 -20978694.98744 -16347018.43444                  21115455.3574   21115455.4304
 -15417833.95344 -12013888.41744                  20845987.5004   20845986.7814
  13094037.80144  10203146.21044                  23692148.7984   23692149.3194
  -1471463.46244  -1146594.41644                  24922493.9534   24922495.3164
  -8465975.86244  -6596863.94544                  22592956.8204   22592956.6824
 -25019448.50344 -19495663.57344                  20327579.6534   20327579.6934
  -8945093.66744  -6970198.30944                  23521237.8124   23521237.5184
 96 12  3  3 21  0.0000000  0  7G 2G27G19G 4G26G 7G15
 -20971408.74544 -16341340.84444                  21116841.8884   21116841.9334
 -15359739.03544 -11968619.66344                  20857042.4194   20857041.9104
  13189421.13544  10277470.85444                  23710299.3824   23710298.6514
  -1570675.88644  -1223902.81944                  24903614.3904   24903614.6454
  -8477265.82444  -6605661.32444                  22590808.4264   22590808.3184
 -25044212.88444 -19514960.48744                  20322867.1874   20322867.2064
  -8934698.19744  -6962097.90744                  23523215.9044   23523215.0844
 96 12  3  3 21 30.0000000  0  7G 2G19G27G 4G26G 7G15
 -20963939.70144 -16335520.80944                  21118263.1544   21118263.2954
  13284979.50744  10351931.89144                  23728483.6234   23728484.0304
 -15301196.94144 -11923002.45944                  20868182.5094   20868182.0414
  -1670039.75844  -1301329.21744                  24884706.0594   24884703.9094
  -8488031.79044  -6614050.39044                  22588759.7904   22588759.5064
 -25068512.62244 -19533895.34044                  20318242.9954   20318243.0344
  -8923732.50744  -6953553.20144                  23525302.3794   23525302.2044
 96 12  3  3 22  0.0000000  0  7G 2G27G19G 4G26G 7G15
 -20956287.73544 -16329558.23744                  21119719.4224   21119719.4804
 -15242200.30344 -11877031.06344                  20879409.4074   20879408.7944
  13380722.93644  10426537.14244                  23746703.2134   23746702.5954
  -1769559.52844  -1378877.09344                  24865768.0864   24865769.0554
  -8498244.27544  -6622008.17244                  22586816.4344   22586816.1824
 -25092367.66344 -19552483.67744                  20313703.5184   20313703.4454
  -8912196.32744  -6944563.96644                  23527497.7554   23527498.9394
 96 12  3  3 22 30.0000000  0  7G 2G19G27G 4G26G 7G15
 -20948446.14944 -16323447.91044                  21121211.6034   21121211.8374
  13476669.77544  10501300.88644                  23764961.4864   23764960.9514
 -15182726.29944 -11830687.69844                  20890727.0124   20890726.4834
  -1869222.73344  -1456536.72744                  24846802.7614   24846804.1984
  -8507890.45544  -6629524.68044                  22584980.7884   22584980.4364
 -25115774.57144 -19570722.81944                  20309249.3174   20309249.3604
  -8900078.10344  -6935121.18944                  23529803.8734   23529803.5624
 96 12  3  3 23  0.0000000  0  7G 2G27G19G 4G26G 7G15
 -20940421.58844 -16317195.00644                  21122738.5124   21122738.8374
 -15122776.36144 -11783973.47144                  20902135.0174   20902134.5184
  13572852.05944  10576248.09244                  23783264.6034   23783264.1524
  -1969013.16144  -1534295.49844                  24827813.3344   24827813.9654
  -8516963.20244  -6636594.35644                  22583254.4414   22583254.1164
 -25138704.67644 -19588590.42744                  20304885.8174   20304885.7844
  -8887373.60944  -6925221.58644                  23532221.6264   23532222.1014
 96 12  3  3 23 30.0000000  0  7G 2G19G27G 4G26G 7G15
 -20932234.68144 -16310815.60044                  21124296.5114   21124296.7794
  13669268.66544  10651377.88844                  23801612.1374   23801612.6874
 -15062370.25744 -11736903.79144                  20913629.6114   20913629.2974
  -2068924.86144  -1612148.76044                  24808801.1364   24808801.0064
  -8525464.24144  -6643218.55444                  22581636.8944   22581636.4004
 -25161150.09244 -19606080.35444                  20300614.6634   20300614.5434
  -8874090.76244  -6914871.31644                  23534748.8974   23534749.2124
 96 12  3  3 24  0.0000000  0  7G 2G19G27G 4G26G 7G15
 -20923927.51644 -16304342.48444                  21125877.3264   21125877.3524
  13765891.02044  10726668.02344                  23819998.2754   23820000.4204
 -15001524.97044 -11689491.89244                  20925208.2224   20925207.7104
  -2168962.70944  -1690100.30144                  24789764.6944   24789765.3754
  -8533411.02844  -6649410.86644                  22580124.4774   22580124.1524
 -25183115.35044 -19623196.13344                  20296434.8574   20296434.6134
  -8860250.46244  -6904086.66944                  23537382.5454   23537383.0284
 96 12  3  3 24 30.0000000  0  7G 2G27G19G 4G26G 7G15
 -20915477.43144 -16297758.00244                  21127485.4304   21127485.4084
 -14940224.33844 -11641725.18244                  20936873.4814   20936872.7194
  13862737.78044  10802132.98344                  23838427.3134   23838428.8124
  -2269088.40044  -1768120.29144                  24770710.8544   24770710.0604
  -8540801.09444  -6655169.36644                  22578717.9754   22578717.9534
 -25204567.06144 -19639911.74244                  20292352.7024   20292352.4954
  -8845830.33744  -6892850.20544                  23540126.5744   23540126.8084
 96 12  3  3 25  0.0000000  0  7G 2G27G19G 4G26G 7G15
 -20906906.46644 -16291079.32744                  21129116.4334   21129116.3734
 -14878491.52844 -11593621.71044                  20948620.9644   20948620.5594
  13959780.72244  10877750.85344                  23856894.2124   23856895.3244
  -2369304.62444  -1846210.84644                  24751640.6454   24751642.2734
  -8547651.34244  -6660507.22744                  22577414.5444   22577414.0304
 -25225522.05444 -19656240.30044                  20288364.9914   20288364.8134
  -8830848.03144  -6881175.68444                  23542978.1524   23542977.7804
 96 12  3  3 25 30.0000000  0  7G 2G19G27G 4G26G 7G15
 -20898213.32344 -16284305.44844                  21130770.3164   21130770.5704
  14057010.19844  10953514.04044                  23875396.8594   23875395.0734
 -14816323.02244 -11545178.73444                  20960451.0754   20960450.6694
  -2469607.21144  -1924368.67744                  24732553.4694   24732553.0864
  -8553972.06044  -6665432.47244                  22576211.6374   22576211.3294
 -25245994.55644 -19672192.89044                  20284469.1804   20284469.1964
  -8815301.89544  -6869061.77444                  23545936.4964   23545936.6284
 96 12  3  3 26  0.0000000  0  7G 2G19G27G 4G26G 7G15
 -20889391.37844 -16277431.20544                  21132449.2014   21132449.3504
  14154437.65344  11029431.51644                  23893936.7824   23893935.8034
 -14753710.94444 -11496390.11544                  20972365.7694   20972365.3194
  -2569987.71244  -2002587.22244                  24713451.6514   24713450.7024
  -8559776.91544  -6669955.74344                  22575107.2194   22575106.9024
 -25265985.89244 -19687770.54844                  20280664.9214   20280665.1274
  -8799186.94644  -6856504.67044                  23549002.8784   23549004.4214
 96 12  3  3 26 30.0000000  0  7G27G19G 4G26G 7G 2G15
 -14690668.63244 -11447266.24944                  20984362.4614   20984361.9874
  14252043.57044  11105488.03944                  23912510.3414   23912508.9494
  -2670453.41144  -2080872.16444                  24694333.6674   24694334.1254
  -8565089.83344  -6674095.68744                  22574096.3054   22574095.9884
 -25285519.25944 -19702991.34844                  20276947.8214   20276947.9964
 -20880429.11944 -16270447.62644                  21134154.6954   21134154.8814
  -8782517.15244  -6843515.22444                  23552174.8924   23552173.5864
 96 12  3  3 27  0.0000000  0  7G27G19G 4G26G 7G 2G15
 -14627199.32544 -11397809.65944                  20996440.3254   20996439.8724
  14349817.73944  11181675.65944                  23931115.7774   23931116.7704
  -2771013.91144  -2159230.99444                  24675197.6304   24675197.9454
  -8569909.71344  -6677851.44944                  22573179.1224   22573178.7344
 -25304604.78144 -19717863.17644                  20273315.9764   20273316.0194
 -20871325.46044 -16263353.86544                  21135887.2144   21135887.1374
  -8765298.03144  -6830097.69844                  23555451.4044   23555450.1484
 96 12  3  3 27 30.0000000  0  7G27G19G 4G26G 7G 2G15
 -14563278.51744 -11348001.25544                  21008603.9574   21008603.4274
  14447774.23344  11258005.35344                  23949756.5014   23949757.0324
  -2871651.89944  -2237650.18344                  24656046.8854   24656046.2904
  -8574219.44544  -6681209.69144                  22572358.9644   22572358.3664
 -25323223.04844 -19732370.90944                  20269773.2004   20269773.0914
 -20862052.83644 -16256128.44544                  21137651.7834   21137651.7044
  -8747507.98944  -6816235.32644                  23558837.0834   23558837.3504
 96 12  3  3 28  0.0000000  0  7G27G19G 4G26G 7G 2G15
 -14498903.51144 -11297838.93144                  21020853.9964   21020853.5894
  14545902.16344  11334468.67144                  23968429.8824   23968429.5474
  -2972366.00244  -2316128.70944                  24636881.8354   24636883.1554
  -8578008.36844  -6684162.10844                  22571638.0224   22571637.6294
 -25341365.81044 -19746508.11944                  20266320.8984   20266320.6464
 -20852601.30444 -16248763.61544                  21139450.2354   21139450.1324
  -8729146.02744  -6801927.29444                  23562331.5344   23562330.6394
 96 12  3  3 28 30.0000000  0  7G27G19G 4G26G 7G 2G15
 -14434080.58844 -11247327.57844                  21033189.5264   21033188.8914
  14644183.49444  11411051.51944                  23987132.5064   23987132.7814
  -3073173.39244  -2394679.91244                  24617698.7104   24617697.2884
  -8581266.38744  -6686700.84044                  22571017.8814   22571017.8364
 -25359037.88444 -19760278.55744                  20262957.9154   20262957.7724
 -20842974.65444 -16241262.32944                  21141282.1634   21141282.2744
  -8710212.18444  -6787173.62744                  23565933.9374   23565933.8284
 96 12  3  3 29  0.0000000  0  7G27G19G 4G26G 7G 2G15
 -14368830.71544 -11196483.53644                  21045606.3034   21045605.6714
  14742610.85744  11487748.13544                  24005862.6084   24005862.5534
  -3174098.36244  -2473322.74344                  24598492.8924   24598494.5694
  -8583999.43044  -6688830.49544                  22570497.8074   22570497.6934
 -25376244.19044 -19773686.05944                  20259683.6124   20259683.4354
 -20833210.38744 -16233653.80544                  21143140.0924   21143140.2894
  -8690716.25744  -6771981.99544                  23569643.9574   23569643.5754
 96 12  3  3 29 30.0000000  0  7G27G19G 4G26G 7G 2G15
 -14303136.98744 -11145293.63444                  21058107.4814   21058106.9834
  14841201.11044  11564571.67944                  24024623.5124   24024623.8964
  -3275116.80444  -2552038.41244                  24579269.4574   24579268.4044
  -8586190.73144  -6690538.01544                  22570080.9544   22570080.3654
 -25392952.59144 -19786705.58544                  20256503.9994   20256503.9814
 -20823299.93544 -16225931.36844                  21145025.9294   21145026.2324
  -8670645.14144  -6756342.17044                  23573463.3474   23573463.0284
 96 12  3  3 30  0.0000000  0  7G27G19G 4G26G 7G 2G15
 -14236995.75944 -11093755.03044                  21070693.5764   21070693.0084
  14939967.04444  11641532.11244                  24043417.6324   24043417.3344
  -3376225.65644  -2630824.52044                  24560029.0304   24560029.0084
  -8587830.66044  -6691815.89544                  22569769.0524   22569768.3504
 -25409159.09344 -19799334.02244                  20253419.9464   20253420.0194
 -20813253.56144 -16218103.02044                  21146937.7744   21146938.0574
  -8649999.82744  -6740254.89644                  23577391.7794   23577391.8714
 96 12  3  3 30 30.0000000  0  7G27G19G 4G26G 7G 2G15
 -14170420.73444 -11041878.40344                  21083362.2344   21083361.6514
  15038914.76544  11718634.19844                  24062246.6554   24062245.6814
  -3477423.13444  -2709679.71844                  24540771.7494   24540772.8194
  -8588935.13344  -6692676.53644                  22569558.8004   22569558.3744
 -25424875.99044 -19811580.94744                  20250429.0604   20250429.1774
 -20803095.90044 -16210187.95544                  21148870.7654   21148870.7854
  -8628789.15844  -6723727.09844                  23581428.4644   23581427.7324
 96 12  3  3 31  0.0000000  0  7G27G19G 4G26G 7G 2G15
 -14103392.69444 -10989648.77644                  21096117.3324   21096116.9914
  15138069.92844  11795897.92844                  24081114.8614   24081113.7454
  -3578672.24844  -2788575.11844                  24521504.6994   24521506.0994
  -8589494.86244  -6693112.70544                  22569452.0604   22569451.5914
 -25440085.56144 -19823432.55544                  20247534.8434   20247534.8144
 -20792806.15244 -16202169.97244                  21150829.0564   21150828.9364
  -8607001.91944  -6706750.02344                  23585574.5254   23585573.0374
 96 12  3  3 31 30.0000000  0  7G27G19G 4G26G 7G 2G15
 -14035912.93944 -10937067.16044                  21108958.6164   21108958.1744
  15237418.27444  11873312.18844                  24100020.6324   24100020.8474
  -3679982.96544  -2867518.54044                  24502225.8334   24502225.2474
  -8589522.12344  -6693133.95344                  22569446.8384   22569446.5134
 -25454811.31244 -19834907.15944                  20244732.6364   20244732.5044
 -20782371.16044 -16194038.81144                  21152814.7664   21152814.7244
  -8584648.62544  -6689331.86044                  23589828.0794   23589827.4824
 96 12  3  3 32  0.0000000  0  7G27G19G 4G26G 7G 2G15
 -13967998.80044 -10884147.06444                  21121882.1454   21121881.7644
  15336948.50444  11950868.19244                  24118960.8124   24118961.9454
  -3781376.40544  -2946526.41444                  24482931.2964   24482932.3784
  -8589040.22244  -6692758.44744                  22569538.6664   22569538.2824
 -25469089.76344 -19846033.21744                  20242015.6364   20242015.5244
 -20771801.56144 -16185802.75844                  21154825.8734   21154826.0774
  -8561732.47744  -6671475.11644                  23594188.8364   23594187.6474
 96 12  3  3 32 30.0000000  0  7G27G19G 4G26G 7G 2G15
 -13899653.50244 -10830891.00044                  21134887.6644   21134887.1534
  15436658.44644  12028564.22744                  24137935.1354   24137935.1514
  -3882844.48244  -3025592.44044                  24463622.9344   24463623.4604
  -8588046.89244  -6691984.43444                  22569727.7254   22569727.5154
 -25482931.22944 -19856818.76644                  20239381.6164   20239381.5524
 -20761078.05344 -16177446.77944                  21156866.4644   21156866.6494
  -8538244.11744  -6653172.49844                  23598658.4094   23598657.6384
 96 12  3  3 33  0.0000000  0  7G27G19G 4G26G 7G 2G15
 -13830875.62844 -10777297.86844                  21147975.6914   21147975.1014
  15536530.00344  12106386.19944                  24156939.9254   24156941.3984
  -3984394.83344  -3104722.58544                  24444298.5944   24444299.8994
  -8586544.31544  -6690813.61044                  22570013.7384   22570013.1174
 -25496335.64744 -19867263.76144                  20236830.7814   20236830.7914
 -20750185.27144 -16168958.89244                  21158939.2444   21158939.3864
  -8514186.97744  -6634426.66244                  23603236.1284   23603236.0324
 96 12  3  3 33 30.0000000  0  7G27G19G 4G26G 7G 2G15
 -13761685.03244 -10723383.13644                  21161142.4084   21161141.8284
  15636546.51844  12184321.09544                  24175972.3054   24175973.3754
  -4086036.99644  -3183924.27944                  24424956.5154   24424956.7964
  -8584537.55344  -6689249.91244                  22570395.5764   22570395.5244
 -25509324.17844 -19877384.68644                  20234359.1214   20234359.0824
 -20739140.74744 -16160352.76844                  21161040.8884   21161041.0124
  -8489570.46844  -6615244.95744                  23607920.7544   23607919.4704
 96 12  3  3 34  0.0000000  0  7G27G19G 4G26G 7G 2G15
 -13692040.38244 -10669114.58944                  21174395.3864   21174394.9144
  15736769.63544  12262417.01844                  24195044.3864   24195045.6664
  -4187698.42544  -3263140.94944                  24405611.0944   24405611.0974
  -8581967.41544  -6687247.21744                  22570884.7204   22570884.7184
 -25521829.84244 -19887129.35344                  20231979.3474   20231979.3464
 -20727904.12944 -16151596.96244                  21163179.3034   21163179.3354
  -8464341.51344  -6595586.02644                  23612721.8824   23612720.5594
 96 12  3  3 34 30.0000000  0  7G27G19G 4G26G 7G 2G15
 -13621976.90244 -10614519.68144                  21187727.7314   21187727.4324
  15837170.71944  12340651.58344                  24214150.3914   24214151.5334
  -4289394.93544  -3342384.98444                  24386258.8334   24386258.7384
  -8578857.86644  -6684824.19744                  22571476.3344   22571476.0504
 -25533861.43844 -19896504.61544                  20229689.8554   20229689.7464
 -20716495.90244 -16142707.43444                  21165350.2264   21165350.2654
  -8438538.57044  -6575479.83744                  23617632.0074   23617630.4504
 96 12  3  3 35  0.0000000  0  7G27G19G 4G26G 7G 2G15
 -13551530.39344 -10559626.31544                  21201133.3484   21201133.0164
  15937709.43844  12418993.44844                  24233282.6534   24233282.4294
  -4391170.35544  -3421690.47644                  24366891.9514   24366892.4064
  -8575252.15444  -6682014.56044                  22572162.5084   22572162.0824
 -25545444.56444 -19905530.42044                  20227485.7694   20227485.8184
 -20704967.07044 -16133723.92744                  21167544.1224   21167544.2064
  -8412205.28944  -6554960.37944                  23622642.9454   23622641.5474
 96 12  3  3 35 30.0000000  0  7G27G19G 4G26G 7G 2G15
 -13480681.80944 -10504419.64144                  21214615.5384   21214614.9294
  16038409.65944  12497461.11244                  24252445.2904   24252447.4794
  -4493001.36044  -3501039.31344                  24347514.5234   24347513.9344
  -8571128.60944  -6678801.41444                  22572947.2854   22572947.3234
 -25556563.10444 -19914194.21044                  20225369.8244   20225369.9974
 -20693316.10644 -16124645.25144                  21169761.2154   21169761.3154
  -8385319.98444  -6534010.79044                  23627758.9544   23627758.2894
 96 12  3  3 36  0.0000000  0  7G27G19G 4G26G 7G 2G15
 -13409410.31944 -10448883.43544                  21228178.0824   21228177.5434
  16139269.15044  12576052.88544                  24271637.8944   24271640.3214
  -4594881.15844  -3580426.15144                  24328127.6464   24328126.5974
  -8566481.94444  -6675180.64244                  22573831.4434   22573831.0994
 -25567186.89944 -19922472.48744                  20223348.1244   20223348.0514
 -20681532.42944 -16115463.16244                  21172003.4674   21172003.6484
  -8357872.88644  -6512623.43744                  23632981.4964   23632980.8734
 96 12  3  3 36 30.0000000  0  7G27G19G 4G26G 7G 2G15
 -13337705.69444 -10393009.71744                  21241822.8974   21241822.3204
  16240269.75444  12654754.62744                  24290857.2444   24290858.8684
  -4696819.05844  -3659858.25744                  24308729.8214   24308729.4374
  -8561322.45144  -6671160.26844                  22574813.2454   22574812.9024
 -25577326.56944 -19930373.52144                  20221418.6634   20221418.5414
 -20669616.50944 -16106178.02944                  21174271.1784   21174271.1714
  -8329866.68144  -6490800.42244                  23638311.0794   23638309.7564
 96 12  3  3 37  0.0000000  0  7G27G19G 4G26G 7G 2G15
 -13265562.50544 -10336794.25944                  21255551.2434   21255550.8654
  16341403.44644  12733560.07744                  24310101.9674   24310102.3724
  -4798817.01944  -3739337.15644                  24289320.3604   24289317.7424
  -8555650.14444  -6666740.29944                  22575892.5244   22575892.4824
 -25586994.19444 -19937906.72844                  20219578.9494   20219578.8324
 -20657574.96144 -16096795.00244                  21176562.5884   21176562.6134
  -8301299.17644  -6468540.03744                  23643747.5354   23643747.2114
 96 12  3  3 37 30.0000000  0  7G27G19G 4G26G 7G 2G15
 -13192991.92944 -10280245.77044                  21269361.1304   21269360.6714
  16442673.01344  12812471.39544                  24329373.0534   24329372.9844
  -4900865.43944  -3818855.37744                  24269900.4054   24269901.2364
  -8549462.83144  -6661919.02544                  22577070.0764   22577069.7914
 -25596182.66944 -19945066.57044                  20217830.4854   20217830.3854
 -20645389.98544 -16087300.21344                  21178881.2734   21178881.1294
  -8272167.64244  -6445840.14244                  23649291.3824   23649290.6434
 96 12  3  3 38  0.0000000  0  7G27G19G 4G26G 7G 2G15
 -13119997.08144 -10223366.68244                  21283251.8244   21283250.9444
  16544090.45044  12891497.95444                  24348672.5714   24348675.5534
  -5002960.18444  -3898409.72144                  24250472.1534   24250470.2324
  -8542760.19844  -6656696.21044                  22578345.5724   22578345.0424
 -25604885.11144 -19951847.68644                  20216174.4484   20216174.3814
 -20633042.11544 -16077678.49744                  21181231.0034   21181230.9814
  -8242471.88544  -6422700.57144                  23654942.5234   23654940.6684
 96 12  3  3 38 30.0000000  0  7G27G19G 4G26G 7G 2G15
 -13046576.60844 -10166155.93744                  21297223.2074   21297222.6424
  16645678.45644  12970657.41144                  24368004.8254   24368004.7374
  -5105087.80644  -3977989.63144                  24231037.8474   24231036.8744
  -8535536.45744  -6651067.33644                  22579720.2104   22579719.7394
 -25613109.23344 -19958256.08544                  20214609.4614   20214609.4424
 -20620506.95544 -16067910.84044                  21183616.3004   21183616.4004
  -8212202.65644  -6399114.15244                  23660702.1424   23660701.4984
 96 12  3  3 39  0.0000000  0  7G27G19G 4G26G 7G 2G15
 -12972732.56044 -10108615.14044                  21311275.0024   21311274.4754
  16747447.70744  13049958.11844                  24387371.1194   24387369.7924
  -5207234.05644  -4057584.12244                  24211599.9644   24211600.0724
  -8527784.72144  -6645027.03744                  22581195.5084   22581194.9584
 -25620852.22544 -19964289.57944                  20213135.8874   20213136.1544
 -20607788.74044 -16058000.54344                  21186036.4744   21186036.5184
  -8181357.86344  -6375079.24044                  23666571.3854   23666571.7844
 96 12  3  3 39 30.0000000  0  7G27G19G 4G26G 7G 2G15
 -12898465.59744 -10050744.79644                  21325407.5704   21325407.0814
  16849394.13844  13129396.82944                  24406770.7654   24406769.0894
  -5309397.63644  -4137192.09544                  24192158.3044   24192159.7754
  -8519510.44844  -6638579.56444                  22582769.9144   22582769.3404
 -25628121.29344 -19969953.78544                  20211752.5704   20211752.7054
 -20594896.60144 -16047954.72344                  21188489.8254   21188489.7664
  -8149943.06844  -6350600.18044                  23672549.2724   23672550.3154
 96 12  3  3 40  0.0000000  0  7G27G19G 4G26G 7G 2G15
 -12823769.95044  -9992540.41044                  21339621.7704   21339621.2164
  16951503.54244  13208962.57244                  24426201.4094   24426199.7484
  -5411571.95444  -4216808.44644                  24172715.1164   24172715.8814
  -8510727.74144  -6631735.89844                  22584441.2424   22584441.1264
 -25634938.05944 -19975265.54644                  20210455.4914   20210455.5184
 -20581848.64544 -16037787.48444                  21190972.8764   21190972.8594
  -8117966.58844  -6325683.43944                  23678634.4224   23678633.9364
 96 12  3  3 40 30.0000000  0  7G27G19G 4G26G 7G 2G15
 -12748645.87144  -9934002.18444                  21353917.5784   21353917.0494
  17053755.41644  13288639.32244                  24445658.8564   24445660.6084
  -5513743.92444  -4296422.96344                  24153273.0874   24153273.8854
  -8501432.29044  -6624492.69844                  22586209.8624   22586209.6204
 -25641321.14044 -19980239.36644                  20209240.9864   20209240.8194
 -20568657.65044 -16027508.78444                  21193482.8684   21193483.2024
  -8085430.19744  -6300330.42244                  23684826.1104   23684825.8404
 96 12  3  3 41  0.0000000  0  7G27G19G 4G26G 7G 2G15
 -12673098.13244  -9875133.83444                  21368293.9224   21368293.2794
  17156138.92744  13368418.68044                  24465141.5984   24465144.8014
  -5615907.28044  -4376030.79944                  24133831.9054   24133831.5144
  -8491622.00444  -6616848.32144                  22588076.9144   22588076.6874
 -25647264.73644 -19984870.73144                  20208109.9574   20208109.8074
 -20555334.44944 -16017127.06744                  21196018.2774   21196018.3304
  -8052333.20344  -6274540.54844                  23691124.1514   23691123.6534
 96 12  3  3 41 30.0000000  0  7G27G19G 4G26G 7G 2G15
 -12597135.36544  -9815942.08344                  21382748.9104   21382748.3944
  17258645.60844  13448293.94944                  24484648.1094   24484650.3194
  -5718067.54144  -4455636.17044                  24114391.2714   24114391.7494
  -8481299.32044  -6608804.68744                  22590041.2884   22590040.6104
 -25652760.26544 -19989152.95344                  20207064.0964   20207064.0874
 -20541866.19244 -16006632.32044                  21198581.2054   21198581.2084
  -8018679.36844  -6248316.78344                  23697528.2214   23697527.3704
 96 12  3  3 42  0.0000000  0  7G27G19G 4G26G 7G 2G15
 -12520766.44344  -9756433.84644                  21397281.3334   21397281.0204
  17361260.92944  13528253.93744                  24504175.4264   24504175.6154
  -5820225.49244  -4535239.75544                  24094951.5194   24094952.1684
  -8470466.44644  -6600363.50444                  22592102.8614   22592102.4314
 -25657810.15244 -19993087.92144                  20206103.0844   20206103.1254
 -20528249.22144 -15996021.69344                  21201172.4564   21201172.1434
  -7984474.26744  -6221663.43044                  23704037.4654   23704037.5184
 96 12  3  3 42 30.0000000  0  7G27G19G 4G26G 7G 2G15
 -12443997.59644  -9696613.97944                  21411890.0474   21411889.5644
  17463987.38244  13608300.49744                  24523723.5504   24523722.3144
  -5922394.79344  -4614852.18344                  24075509.4334   24075508.7704
  -8459114.73644  -6591518.02344                  22594262.8784   22594262.6504
 -25662405.81144 -19996668.94944                  20205228.4704   20205228.6334
 -20514485.30944 -15985296.57044                  21203791.6964   21203791.5064
  -7949716.44244  -6194579.42544                  23710651.4114   23710651.2034
 96 12  3  3 43  0.0000000  0  7G27G19G 4G26G 7G 2G15
 -12366827.32844  -9636481.31744                  21426575.2554   21426574.6024
  17566835.21544  13688441.63244                  24543294.8064   24543296.1114
  -6024583.74544  -4694479.92844                  24056063.6394   24056063.1774
  -8447256.80844  -6582278.08644                  22596519.2504   22596519.4354
 -25666521.38544 -19999875.88544                  20204445.4404   20204445.5294
 -20500565.24244 -15974449.76644                  21206440.4904   21206440.5354
  -7914409.05144  -6167067.16644                  23717369.7634   23717370.4994
 96 12  3  3 43 30.0000000  0  7G27G19G 4G26G 7G 2G15
 -12289242.33444  -9576025.49144                  21441339.1644   21441338.7724
  17669820.06344  13768689.51344                  24562892.0784   24562892.9654
  -6126793.77544  -4774124.09044                  24036613.5274   24036611.8014
  -8434888.78844  -6572640.67144                  22598872.8684   22598872.7684
 -25670151.18444 -20002704.29244                  20203754.7254   20203754.7344
 -20486475.01344 -15963470.36444                  21209121.7044   21209121.9924
  -7878547.59644  -6139123.18544                  23724194.1724   23724194.8574
 96 12  3  3 44  0.0000000  0  7G27G19G 4G26G 7G 2G15
 -12211252.25844  -9515254.02044                  21456180.0504   21456179.4904
  17772942.50544  13849044.62844                  24582515.2384   24582513.7074
  -6229023.61144  -4853783.68044                  24017159.5794   24017159.9664
  -8422014.74244  -6562608.95844                  22601322.8474   22601322.5874
 -25673315.06444 -20005169.64644                  20203152.5814   20203152.3394
 -20472223.73844 -15952365.47344                  21211833.7514   21211833.7874
  -7842134.13244  -6110749.05644                  23731123.6994   23731123.6384
 96 12  3  3 44 30.0000000  0  7G27G19G 4G26G 7G 2G15
 -12132871.17844  -9454177.86644                  21471095.5924   21471095.0634
  17876216.65544  13929517.97244                  24602167.9244   24602168.2174
  -6331277.24544  -4933461.81944                  23997701.2574   23997701.6904
  -8408635.45344  -6552183.55744                  22603868.9634   22603868.5104
 -25676004.20344 -20007265.07244                  20202640.8634   20202640.6804
 -20457821.35944 -15941142.84344                  21214574.5634   21214574.4174
  -7805167.80844  -6081944.13644                  23738157.9424   23738157.9924
 96 12  3  3 45  0.0000000  0  7G27G19G 4G26G 7G 2G15
 -12054106.69444  -9392802.96444                  21486083.9774   21486083.4404
  17979642.06544  14010109.17544                  24621849.1204   24621850.1424
  -6433542.47344  -5013148.97744                  23978241.1004   23978242.2824
  -8394750.00844  -6541363.75144                  22606511.1424   22606510.7004
 -25678219.63044 -20008991.37244                  20202219.3334   20202219.1914
 -20443263.34444 -15929798.93744                  21217344.8144   21217344.6634
  -7767649.18644  -6052708.84344                  23745297.7354   23745298.4904
 96 12  3  3 45 30.0000000  0  7G27G19G 4G26G 7G 2G15
 -11974957.89544  -9331128.59544                  21501145.5884   21501145.1174
  18083219.41344  14090818.77344                  24641559.3684   24641558.8774
  -6535802.24544  -5092831.89544                  23958781.9474   23958782.1674
  -8380336.98844  -6530132.99344                  22609253.7384   22609253.3384
 -25679971.53444 -20010356.48544                  20201885.7824   20201885.8314
 -20428554.01144 -15918337.12544                  21220143.7724   21220143.7594
  -7729566.57844  -6023034.06744                  23752544.5584   23752543.6394
 96 12  3  3 46  0.0000000  0  7G27G19G 4G26G 7G 2G15
 -11895440.83244  -9269167.26044                  21516277.1204   21516276.9964
  18186921.49244  14171625.55144                  24661293.8144   24661295.3894
  -6638057.28444  -5172511.11844                  23939323.8974   23939323.4574
  -8365406.74044  -6518498.84444                  22612094.8924   22612094.7824
 -25681281.30344 -20011377.07844                  20201636.6924   20201636.7184
 -20413727.84144 -15906784.26544                  21222964.9594   21222965.1354
  -7690935.17244  -5992931.69644                  23759895.5684   23759895.8974
 96 12  3  3 46 30.0000000  0  7G27G19G 4G26G 7G 2G15
 -11815531.12444  -9206899.97144                  21531483.1594   21531483.1214
  18290736.88744  14252520.66044                  24681049.4944   24681049.8634
  -6740305.59644  -5252185.10844                  23919866.8134   23919867.0614
  -8349974.19444  -6506473.52144                  22615031.5644   22615031.3904
 -25682150.34444 -20012054.24544                  20201471.4084   20201471.2884
 -20398777.92044 -15895134.97744                  21225809.9174   21225810.0214
  -7651759.31344  -5962405.04444                  23767350.6334   23767350.2264
 96 12  3  3 47  0.0000000  0  7G27G19G 4G26G 7G 2G15
 -11735200.40644  -9144304.62144                  21546769.7184   21546769.3744
  18394665.35344  14333503.83044                  24700825.9574   24700826.2324
  -6842526.96944  -5331838.08544                  23900414.6664   23900413.9714
  -8334043.87144  -6494060.30344                  22618063.0374   22618062.6264
 -25682588.22444 -20012395.44644                  20201388.0534   20201388.0904
 -20383683.23944 -15883372.89344                  21228682.3984   21228682.3174
  -7612035.37144  -5931451.32844                  23774910.2844   23774909.4014
 96 12  3  3 47 30.0000000  0  7G27G19G 4G26G 7G 2G15
 -11654442.81444  -9081376.64944                  21562137.3524   21562136.9844
  18498705.30744  14414573.91044                  24720623.9064   24720624.1724
  -6944717.73044  -5411467.22244                  23880968.3444   23880967.5974
  -8317625.79444  -6481267.01444                  22621187.1394   22621187.1614
 -25682601.66244 -20012405.91444                  20201385.5004   20201385.6454
 -20368435.15944 -15871491.27544                  21231584.1014   21231583.9874
  -7571766.32444  -5900072.85144                  23782572.8654   23782574.0204
 96 12  3  3 48  0.0000000  0  7G27G19G 4G26G 7G 2G15
 -11573257.00444  -9018114.99844                  21577586.7294   21577586.1964
  18602855.34044  14495729.75944                  24740442.6884   24740442.1944
  -7046875.43044  -5491070.60544                  23861528.6044   23861527.4804
  -8300741.67944  -6468110.56944                  22624400.3934   22624400.2904
 -25682185.27344 -20012081.45144                  20201464.5484   20201464.5764
 -20353010.58844 -15859472.13444                  21234519.2284   21234519.2194
  -7530955.26444  -5868272.02744                  23790338.2954   23790338.4494
 96 12  3  3 48 30.0000000  0  7G27G19G 4G26G 7G 2G15
 -11491659.39644  -8954532.46744                  21593114.2474   21593113.7934
  18707127.02544  14576980.39144                  24760285.0434   24760287.5414
  -7148997.92944  -5570646.53844                  23842095.0644   23842094.1644
  -8283397.31444  -6454595.48944                  22627700.9534   22627700.3484
 -25681336.39244 -20011419.98144                  20201626.0244   20201626.0484
 -20337392.30444 -15847302.04444                  21237491.2494   21237491.3634
  -7489603.19544  -5836049.63744                  23798207.5574   23798209.2784
 96 12  3  3 49  0.0000000  0  7G27G19G 4G26G 7G 2G15
 -11409685.04644  -8890656.36544                  21608713.4204   21608712.8924
  18811522.38844  14658327.40144                  24780150.4834   24780152.8484
  -7251090.08144  -5650198.85644                  23822667.2364   23822666.7964
  -8265572.09044  -6440705.71644                  22631092.9234   22631092.6294
 -25680060.78344 -20010425.99344                  20201868.8534   20201868.7294
 -20321596.48644 -15834993.61544                  21240497.0424   21240497.2964
  -7447715.47244  -5803409.86744                  23806178.5034   23806179.6454
 96 12  3  3 49 30.0000000  0  7G27G19G 4G26G 7G 2G15
 -11327327.86544  -8826481.95144                  21624385.4534   21624384.9094
  18916058.84244  14739784.34444                  24800043.1074   24800044.5624
  -7353138.31244  -5729716.93444                  23803247.7454   23803246.3114
  -8247239.99744  -6426420.97944                  22634581.5514   22634580.9984
 -25678340.87644 -20009085.79744                  20202196.2854   20202196.1024
 -20305614.81744 -15822540.36644                  21243538.2554   21243538.5544
  -7405276.91544  -5770340.77344                  23814254.4734   23814254.6844
 96 12  3  3 50  0.0000000  0  7G27G19G 4G26G 7G 2G15
 -11244594.45744  -8762014.37744                  21640129.0554   21640128.8164
  19020726.78744  14821343.75644                  24819961.0084   24819961.2744
  -7455158.76944  -5809213.37144                  23783833.6644   23783832.7114
  -8228396.73544  -6411737.92844                  22638167.2074   22638167.0844
 -25676185.38744 -20007406.18844                  20202606.4004   20202606.2404
 -20289475.19044 -15809964.03644                  21246609.6804   21246609.7074
  -7362298.05144  -5736850.79744                  23822433.6244   23822432.9304
 96 12  3  3 50 30.0000000  0  7G27G19G 4G26G 7G 2G15
 -11161481.03044  -8697250.69044                  21655945.1754   21655944.6804
  19125527.06744  14903006.26444                  24839904.2134   24839905.5464
  -7557142.32644  -5888681.06144                  23764427.0284   23764427.9224
  -8209009.08544  -6396630.67444                  22641856.4904   22641856.0704
 -25673588.58644 -20005382.70044                  20203100.4974   20203100.4244
 -20273199.32444 -15797281.54744                  21249706.8504   21249706.7844
  -7318774.60344  -5702936.43644                  23830716.1474   23830716.9964
 96 12  3  3 51  0.0000000  0  7G27G19G 4G26G 7G 2G15
 -11077965.33244  -8632173.54444                  21671837.8504   21671837.3764
  19230438.98244  14984755.79344                  24859867.8494   24859870.1214
  -7659085.79944  -5968117.51144                  23745027.7154   23745028.0204
  -8189077.52344  -6381099.59844                  22645649.3204   22645649.4364
 -25670537.29644 -20003005.06444                  20203681.0534   20203681.1944
 -20256777.31644 -15784485.18444                  21252831.8924   21252831.7254
  -7274704.22044  -5668595.87344                  23839101.8964   23839101.4494
 96 12  3  3 51 30.0000000  0  7G27G19G 4G26G 7G 2G15
 -10994065.38244  -8566796.97644                  21687803.3754   21687802.6264
  19335425.23944  15066563.24644                  24879845.5844   24879846.9064
  -7761007.61944  -6047537.09444                  23725632.4214   23725633.4604
  -8168649.59244  -6365181.73544                  22649536.5364   22649536.5604
 -25667033.10844 -20000274.52344                  20204347.7064   20204347.8114
 -20240217.58644 -15771581.50044                  21255983.0484   21255982.9774
  -7230107.13344  -5633844.88044                  23847588.3764   23847587.8754
 96 12  3  3 52  0.0000000  0  7G27G19G 4G26G 7G 2G15
 -10909796.84944  -8501133.20944                  21703839.1144   21703838.5534
  19440466.23544  15148413.32044                  24899834.2004   24899834.5004
  -7862905.42044  -6126937.97644                  23706242.3614   23706242.5564
  -8147739.06444  -6348887.82744                  22653515.8784   22653515.4974
 -25663071.75644 -19997187.75044                  20205101.6914   20205101.6964
 -20223521.70944 -15758571.72844                  21259160.1414   21259160.2034
  -7184988.51944  -5598687.51744                  23856174.1904   23856172.6964
 96 12  3  3 52 30.0000000  0  7G27G19G 4G26G 7G 2G15
 -10825166.29444  -8435187.34044                  21719943.6804   21719943.0654
  19545558.82744  15230303.62844                  24919832.7874   24919835.1944
  -7964758.09844  -6206303.68144                  23686860.7674   23686860.8734
  -8126362.09344  -6332230.46144                  22657583.9194   22657583.5534
 -25658649.52744 -19993741.85244                  20205943.2274   20205943.0914
 -20206666.03444 -15745437.43844                  21262367.8154   21262367.8024
  -7139344.40244  -5563120.67244                  23864859.7494   23864861.3524
 96 12  3  3 53  0.0000000  0  7G27G19G 4G26G 7G 2G15
 -10740178.17444  -8368962.85444                  21736116.4984   21736115.9704
  19650711.31344  15312240.61944                  24939843.1024   24939842.1384
  -8066572.06844  -6285639.22244                  23667486.2154   23667485.7884
  -8104547.24044  -6315231.88644                  22661734.8344   22661734.4594
 -25653783.96444 -19989950.49944                  20206869.2224   20206869.0914
 -20189634.12544 -15732165.82644                  21265608.9314   21265608.7974
  -7093182.52244  -5527150.36844                  23873643.7144   23873644.1504
 96 12  3  3 53 30.0000000  0  7G27G19G 4G26G 7G 2G15
 -10654823.22944  -8302452.52844                  21752359.0014   21752358.4824
  19755973.91544  15394263.42544                  24959874.4764   24959874.7474
  -8168319.62044  -6364923.01344                  23648124.4034   23648123.5244
  -8082277.10844  -6297878.54044                  22665972.6364   22665972.4034
 -25648472.43844 -19985811.64244                  20207879.9764   20207879.8184
 -20172425.10144 -15718756.20344                  21268883.6704   21268883.5484
  -7046486.97544  -5490764.24844                  23882529.6014   23882530.5374
